Wetterdaten: Donnerstag, 11.08.2016
Datum Zeit Temp. A. Feuchte A. Luftdruck Regen Wind Richtung Richtung Sonnenschein ET UV Solar Taupunkt Windchill Windben Empfang
11.08.2016 00:00 11,0 C 94 % 1020,9 hPa 0,0 l/m 4,8 km/h (1 Bft) SW 217 0 min 0,000 mm 0,0 UV-I 0 W/m 10,1 C 11,0 C 8,0 km/h (2 Bft) 97,37 %
11.08.2016 00:02 10,9 C 94 % 1021,0 hPa 0,0 l/m 5,8 km/h (2 Bft) S-SW 196 0 min 0,000 mm 0,0 UV-I 0 W/m 10,0 C 10,9 C 9,7 km/h (2 Bft) 97,67 %
11.08.2016 00:04 10,9 C 94 % 1020,9 hPa 0,0 l/m 5,9 km/h (2 Bft) SW 234 0 min 0,000 mm 0,0 UV-I 0 W/m 10,0 C 10,9 C 9,7 km/h (2 Bft) 100,00 %
11.08.2016 00:06 10,9 C 94 % 1021,0 hPa 0,0 l/m 5,8 km/h (2 Bft) S-SW 207 0 min 0,000 mm 0,0 UV-I 0 W/m 10,0 C 10,9 C 8,0 km/h (2 Bft) 97,87 %
11.08.2016 00:08 10,9 C 94 % 1020,9 hPa 0,0 l/m 4,9 km/h (1 Bft) SW 229 0 min 0,000 mm 0,0 UV-I 0 W/m 10,0 C 10,9 C 8,0 km/h (2 Bft) 100,00 %
11.08.2016 00:10 10,9 C 94 % 1020,9 hPa 0,0 l/m 3,6 km/h (1 Bft) S-SW 200 0 min 0,000 mm 0,0 UV-I 0 W/m 10,0 C 10,9 C 6,4 km/h (2 Bft) 100,00 %
11.08.2016 00:12 10,9 C 94 % 1020,8 hPa 0,0 l/m 4,1 km/h (1 Bft) S-SW 201 0 min 0,000 mm 0,0 UV-I 0 W/m 10,0 C 10,9 C 8,0 km/h (2 Bft) 97,87 %
11.08.2016 00:14 10,9 C 94 % 1020,8 hPa 0,0 l/m 2,4 km/h (1 Bft) S-SW 201 0 min 0,000 mm 0,0 UV-I 0 W/m 10,0 C 10,9 C 3,2 km/h (1 Bft) 98,00 %
11.08.2016 00:16 10,9 C 94 % 1020,8 hPa 0,0 l/m 2,3 km/h (1 Bft) S-SW 201 0 min 0,000 mm 0,0 UV-I 0 W/m 10,0 C 10,9 C 3,2 km/h (1 Bft) 100,00 %
11.08.2016 00:18 10,9 C 94 % 1020,8 hPa 0,0 l/m 1,6 km/h (1 Bft) S-SW 201 0 min 0,000 mm 0,0 UV-I 0 W/m 10,0 C 10,9 C 3,2 km/h (1 Bft) 100,00 %
11.08.2016 00:20 10,8 C 94 % 1020,8 hPa 0,0 l/m 3,1 km/h (1 Bft) S-SW 200 0 min 0,000 mm 0,0 UV-I 0 W/m 9,9 C 10,8 C 4,8 km/h (1 Bft) 100,00 %
11.08.2016 00:22 10,8 C 94 % 1020,8 hPa 0,0 l/m 3,5 km/h (1 Bft) S-SW 200 0 min 0,000 mm 0,0 UV-I 0 W/m 9,9 C 10,8 C 4,8 km/h (1 Bft) 100,00 %
11.08.2016 00:24 10,8 C 94 % 1020,8 hPa 0,0 l/m 2,0 km/h (1 Bft) S-SW 200 0 min 0,000 mm 0,0 UV-I 0 W/m 9,9 C 10,8 C 3,2 km/h (1 Bft) 98,11 %
11.08.2016 00:26 10,8 C 94 % 1020,7 hPa 0,0 l/m 1,8 km/h (1 Bft) S-SW 200 0 min 0,000 mm 0,0 UV-I 0 W/m 9,9 C 10,8 C 3,2 km/h (1 Bft) 100,00 %
11.08.2016 00:28 10,7 C 94 % 1020,7 hPa 0,0 l/m 2,4 km/h (1 Bft) S-SW 200 0 min 0,000 mm 0,0 UV-I 0 W/m 9,8 C 10,7 C 3,2 km/h (1 Bft) 100,00 %
11.08.2016 00:30 10,7 C 94 % 1020,7 hPa 0,0 l/m 1,7 km/h (1 Bft) S-SW 200 0 min 0,000 mm 0,0 UV-I 0 W/m 9,8 C 10,7 C 3,2 km/h (1 Bft) 100,00 %
11.08.2016 00:32 10,7 C 95 % 1020,7 hPa 0,0 l/m 1,8 km/h (1 Bft) S-SW 200 0 min 0,000 mm 0,0 UV-I 0 W/m 9,9 C 10,7 C 3,2 km/h (1 Bft) 100,00 %
11.08.2016 00:34 10,6 C 95 % 1020,7 hPa 0,0 l/m 1,3 km/h (1 Bft) S-SW 200 0 min 0,000 mm 0,0 UV-I 0 W/m 9,8 C 10,6 C 3,2 km/h (1 Bft) 100,00 %
11.08.2016 00:36 10,6 C 95 % 1020,6 hPa 0,0 l/m 1,5 km/h (1 Bft) S-SW 200 0 min 0,000 mm 0,0 UV-I 0 W/m 9,8 C 10,6 C 3,2 km/h (1 Bft) 97,87 %
11.08.2016 00:38 10,5 C 95 % 1020,6 hPa 0,0 l/m 1,5 km/h (1 Bft) S-SW 200 0 min 0,000 mm 0,0 UV-I 0 W/m 9,7 C 10,5 C 3,2 km/h (1 Bft) 100,00 %
11.08.2016 00:40 10,5 C 95 % 1020,6 hPa 0,0 l/m 1,7 km/h (1 Bft) S-SW 200 0 min 0,000 mm 0,0 UV-I 0 W/m 9,7 C 10,5 C 3,2 km/h (1 Bft) 100,00 %
11.08.2016 00:42 10,4 C 95 % 1020,6 hPa 0,0 l/m 0,8 km/h (0 Bft) S-SW 200 0 min 0,000 mm 0,0 UV-I 0 W/m 9,6 C 10,4 C 1,6 km/h (1 Bft) 100,00 %
11.08.2016 00:44 10,3 C 95 % 1020,6 hPa 0,0 l/m 0,3 km/h (0 Bft) S-SW 200 0 min 0,000 mm 0,0 UV-I 0 W/m 9,5 C 10,3 C 1,6 km/h (1 Bft) 100,00 %
11.08.2016 00:46 10,3 C 95 % 1020,7 hPa 0,0 l/m 0,4 km/h (0 Bft) S-SW 200 0 min 0,000 mm 0,0 UV-I 0 W/m 9,5 C 10,3 C 3,2 km/h (1 Bft) 100,00 %
11.08.2016 00:48 10,3 C 95 % 1020,7 hPa 0,0 l/m 1,5 km/h (1 Bft) S-SW 200 0 min 0,000 mm 0,0 UV-I 0 W/m 9,5 C 10,3 C 3,2 km/h (1 Bft) 100,00 %
11.08.2016 00:50 10,2 C 95 % 1020,7 hPa 0,0 l/m 0,1 km/h (0 Bft) S-SW 200 0 min 0,000 mm 0,0 UV-I 0 W/m 9,4 C 10,2 C 1,6 km/h (1 Bft) 100,00 %
11.08.2016 00:52 10,2 C 95 % 1020,8 hPa 0,0 l/m 3,0 km/h (1 Bft) S-SW 211 0 min 0,000 mm 0,0 UV-I 0 W/m 9,4 C 10,2 C 4,8 km/h (1 Bft) 100,00 %
11.08.2016 00:54 10,1 C 95 % 1020,7 hPa 0,0 l/m 1,3 km/h (1 Bft) S-SW 211 0 min 0,000 mm 0,0 UV-I 0 W/m 9,3 C 10,1 C 3,2 km/h (1 Bft) 100,00 %
11.08.2016 00:56 10,0 C 95 % 1020,7 hPa 0,0 l/m 0,7 km/h (0 Bft) S-SW 211 0 min 0,000 mm 0,0 UV-I 0 W/m 9,2 C 10,0 C 1,6 km/h (1 Bft) 100,00 %
11.08.2016 00:58 9,9 C 95 % 1020,7 hPa 0,0 l/m 1,2 km/h (1 Bft) S-SW 211 0 min 0,000 mm 0,0 UV-I 0 W/m 9,1 C 9,9 C 3,2 km/h (1 Bft) 100,00 %
11.08.2016 01:00 9,9 C 96 % 1020,8 hPa 0,0 l/m 0,8 km/h (0 Bft) S-SW 211 0 min 0,000 mm 0,0 UV-I 0 W/m 9,3 C 9,9 C 1,6 km/h (1 Bft) 100,00 %
11.08.2016 01:02 9,9 C 96 % 1020,8 hPa 0,0 l/m 0,4 km/h (0 Bft) S-SW 211 0 min 0,000 mm 0,0 UV-I 0 W/m 9,3 C 9,9 C 1,6 km/h (1 Bft) 100,00 %
11.08.2016 01:04 9,8 C 96 % 1020,7 hPa 0,0 l/m 1,1 km/h (1 Bft) S-SW 211 0 min 0,000 mm 0,0 UV-I 0 W/m 9,2 C 9,8 C 1,6 km/h (1 Bft) 100,00 %
11.08.2016 01:06 9,9 C 96 % 1020,7 hPa 0,0 l/m 2,2 km/h (1 Bft) S-SW 211 0 min 0,000 mm 0,0 UV-I 0 W/m 9,3 C 9,9 C 3,2 km/h (1 Bft) 100,00 %
11.08.2016 01:08 9,9 C 96 % 1020,7 hPa 0,0 l/m 2,3 km/h (1 Bft) S-SW 211 0 min 0,000 mm 0,0 UV-I 0 W/m 9,3 C 9,9 C 3,2 km/h (1 Bft) 97,87 %
11.08.2016 01:10 9,8 C 96 % 1020,7 hPa 0,0 l/m 1,8 km/h (1 Bft) S-SW 211 0 min 0,000 mm 0,0 UV-I 0 W/m 9,2 C 9,8 C 3,2 km/h (1 Bft) 100,00 %
11.08.2016 01:12 9,8 C 96 % 1020,7 hPa 0,0 l/m 1,0 km/h (0 Bft) S-SW 211 0 min 0,000 mm 0,0 UV-I 0 W/m 9,2 C 9,8 C 1,6 km/h (1 Bft) 100,00 %
11.08.2016 01:14 9,8 C 96 % 1020,7 hPa 0,0 l/m 1,7 km/h (1 Bft) S-SW 211 0 min 0,000 mm 0,0 UV-I 0 W/m 9,2 C 9,8 C 3,2 km/h (1 Bft) 98,39 %
11.08.2016 01:16 9,7 C 96 % 1020,7 hPa 0,0 l/m 1,1 km/h (1 Bft) S-SW 211 0 min 0,000 mm 0,0 UV-I 0 W/m 9,1 C 9,7 C 1,6 km/h (1 Bft) 100,00 %
11.08.2016 01:18 9,7 C 96 % 1020,7 hPa 0,0 l/m 0,0 km/h (0 Bft) S-SW 211 0 min 0,000 mm 0,0 UV-I 0 W/m 9,1 C 9,7 C 1,6 km/h (1 Bft) 98,39 %
11.08.2016 01:20 9,6 C 96 % 1020,7 hPa 0,0 l/m 1,1 km/h (1 Bft) S-SW 211 0 min 0,000 mm 0,0 UV-I 0 W/m 9,0 C 9,6 C 1,6 km/h (1 Bft) 97,87 %
11.08.2016 01:22 9,6 C 96 % 1020,7 hPa 0,0 l/m 0,9 km/h (0 Bft) S-SW 211 0 min 0,000 mm 0,0 UV-I 0 W/m 9,0 C 9,6 C 1,6 km/h (1 Bft) 97,37 %
11.08.2016 01:24 9,6 C 96 % 1020,8 hPa 0,0 l/m 0,1 km/h (0 Bft) S-SW 211 0 min 0,000 mm 0,0 UV-I 0 W/m 9,0 C 9,6 C 1,6 km/h (1 Bft) 98,00 %
11.08.2016 01:26 9,6 C 96 % 1020,8 hPa 0,0 l/m 0,9 km/h (0 Bft) S-SW 211 0 min 0,000 mm 0,0 UV-I 0 W/m 9,0 C 9,6 C 3,2 km/h (1 Bft) 97,87 %
11.08.2016 01:28 9,6 C 96 % 1020,9 hPa 0,0 l/m 1,7 km/h (1 Bft) S-SW 211 0 min 0,000 mm 0,0 UV-I 0 W/m 9,0 C 9,6 C 3,2 km/h (1 Bft) 96,00 %
11.08.2016 01:30 9,6 C 96 % 1020,9 hPa 0,0 l/m 2,3 km/h (1 Bft) S-SW 211 0 min 0,000 mm 0,0 UV-I 0 W/m 9,0 C 9,6 C 4,8 km/h (1 Bft) 97,56 %
11.08.2016 01:32 9,5 C 96 % 1020,9 hPa 0,0 l/m 3,6 km/h (1 Bft) S-SW 211 0 min 0,000 mm 0,0 UV-I 0 W/m 8,9 C 9,5 C 4,8 km/h (1 Bft) 95,74 %
11.08.2016 01:34 9,4 C 96 % 1020,9 hPa 0,0 l/m 4,2 km/h (1 Bft) SW 228 0 min 0,000 mm 0,0 UV-I 0 W/m 8,8 C 9,4 C 4,8 km/h (1 Bft) 98,00 %
11.08.2016 01:36 9,4 C 96 % 1020,9 hPa 0,0 l/m 4,1 km/h (1 Bft) SW 234 0 min 0,000 mm 0,0 UV-I 0 W/m 8,8 C 9,4 C 6,4 km/h (2 Bft) 97,37 %
11.08.2016 01:38 9,3 C 96 % 1020,9 hPa 0,0 l/m 4,4 km/h (1 Bft) SW 229 0 min 0,000 mm 0,0 UV-I 0 W/m 8,7 C 9,3 C 6,4 km/h (2 Bft) 98,11 %
11.08.2016 01:40 9,3 C 96 % 1021,0 hPa 0,0 l/m 4,5 km/h (1 Bft) SW 232 0 min 0,000 mm 0,0 UV-I 0 W/m 8,7 C 9,3 C 6,4 km/h (2 Bft) 96,00 %
11.08.2016 01:42 9,3 C 96 % 1020,9 hPa 0,0 l/m 4,2 km/h (1 Bft) SW 231 0 min 0,000 mm 0,0 UV-I 0 W/m 8,7 C 9,3 C 6,4 km/h (2 Bft) 96,00 %
11.08.2016 01:44 9,3 C 96 % 1021,0 hPa 0,0 l/m 4,1 km/h (1 Bft) SW 231 0 min 0,000 mm 0,0 UV-I 0 W/m 8,7 C 9,3 C 6,4 km/h (2 Bft) 97,37 %
11.08.2016 01:46 9,3 C 96 % 1021,0 hPa 0,0 l/m 3,3 km/h (1 Bft) SW 229 0 min 0,000 mm 0,0 UV-I 0 W/m 8,7 C 9,3 C 6,4 km/h (2 Bft) 93,62 %
11.08.2016 01:48 9,2 C 96 % 1021,0 hPa 0,0 l/m 3,1 km/h (1 Bft) SW 231 0 min 0,000 mm 0,0 UV-I 0 W/m 8,6 C 9,2 C 4,8 km/h (1 Bft) 97,87 %
11.08.2016 01:50 9,2 C 96 % 1021,0 hPa 0,0 l/m 4,0 km/h (1 Bft) W-SW 244 0 min 0,000 mm 0,0 UV-I 0 W/m 8,6 C 9,2 C 6,4 km/h (2 Bft) 97,22 %
11.08.2016 01:52 9,3 C 96 % 1021,0 hPa 0,0 l/m 3,9 km/h (1 Bft) W-SW 241 0 min 0,000 mm 0,0 UV-I 0 W/m 8,7 C 9,3 C 4,8 km/h (1 Bft) 96,88 %
11.08.2016 01:54 9,3 C 96 % 1021,0 hPa 0,0 l/m 3,7 km/h (1 Bft) W-SW 240 0 min 0,000 mm 0,0 UV-I 0 W/m 8,7 C 9,3 C 4,8 km/h (1 Bft) 100,00 %
11.08.2016 01:56 9,3 C 96 % 1021,1 hPa 0,0 l/m 4,7 km/h (1 Bft) SW 216 0 min 0,000 mm 0,0 UV-I 0 W/m 8,7 C 9,3 C 6,4 km/h (2 Bft) 97,44 %
11.08.2016 01:58 9,3 C 96 % 1021,0 hPa 0,0 l/m 5,3 km/h (1 Bft) SW 218 0 min 0,000 mm 0,0 UV-I 0 W/m 8,7 C 9,3 C 8,0 km/h (2 Bft) 98,11 %
11.08.2016 02:00 9,3 C 96 % 1021,0 hPa 0,0 l/m 5,6 km/h (1 Bft) S-SW 211 0 min 0,000 mm 0,0 UV-I 0 W/m 8,7 C 9,3 C 6,4 km/h (2 Bft) 100,00 %
11.08.2016 02:02 9,3 C 96 % 1020,9 hPa 0,0 l/m 5,9 km/h (2 Bft) SW 222 0 min 0,000 mm 0,0 UV-I 0 W/m 8,7 C 9,3 C 8,0 km/h (2 Bft) 97,87 %
11.08.2016 02:04 9,3 C 96 % 1021,0 hPa 0,0 l/m 5,3 km/h (1 Bft) SW 221 0 min 0,000 mm 0,0 UV-I 0 W/m 8,7 C 9,3 C 6,4 km/h (2 Bft) 100,00 %
11.08.2016 02:06 9,3 C 97 % 1020,9 hPa 0,0 l/m 5,4 km/h (1 Bft) SW 222 0 min 0,000 mm 0,0 UV-I 0 W/m 8,8 C 9,3 C 8,0 km/h (2 Bft) 100,00 %
11.08.2016 02:08 9,3 C 97 % 1020,9 hPa 0,0 l/m 5,2 km/h (1 Bft) S-SW 211 0 min 0,000 mm 0,0 UV-I 0 W/m 8,8 C 9,3 C 6,4 km/h (2 Bft) 100,00 %
11.08.2016 02:10 9,3 C 97 % 1020,8 hPa 0,0 l/m 4,8 km/h (1 Bft) SW 215 0 min 0,000 mm 0,0 UV-I 0 W/m 8,8 C 9,3 C 6,4 km/h (2 Bft) 98,21 %
11.08.2016 02:12 9,4 C 97 % 1020,9 hPa 0,0 l/m 4,3 km/h (1 Bft) SW 226 0 min 0,000 mm 0,0 UV-I 0 W/m 8,9 C 9,4 C 6,4 km/h (2 Bft) 100,00 %
11.08.2016 02:14 9,4 C 97 % 1020,8 hPa 0,0 l/m 5,0 km/h (1 Bft) SW 227 0 min 0,000 mm 0,0 UV-I 0 W/m 8,9 C 9,4 C 8,0 km/h (2 Bft) 100,00 %
11.08.2016 02:16 9,4 C 97 % 1020,9 hPa 0,0 l/m 3,3 km/h (1 Bft) SW 227 0 min 0,000 mm 0,0 UV-I 0 W/m 8,9 C 9,4 C 4,8 km/h (1 Bft) 100,00 %
11.08.2016 02:18 9,4 C 97 % 1020,9 hPa 0,0 l/m 4,0 km/h (1 Bft) SW 223 0 min 0,000 mm 0,0 UV-I 0 W/m 8,9 C 9,4 C 6,4 km/h (2 Bft) 100,00 %
11.08.2016 02:20 9,4 C 97 % 1020,9 hPa 0,0 l/m 4,5 km/h (1 Bft) W 267 0 min 0,000 mm 0,0 UV-I 0 W/m 8,9 C 9,4 C 6,4 km/h (2 Bft) 100,00 %
11.08.2016 02:22 9,3 C 97 % 1020,9 hPa 0,0 l/m 4,0 km/h (1 Bft) W-SW 241 0 min 0,000 mm 0,0 UV-I 0 W/m 8,8 C 9,3 C 6,4 km/h (2 Bft) 100,00 %
11.08.2016 02:24 9,3 C 96 % 1020,9 hPa 0,0 l/m 4,4 km/h (1 Bft) SW 225 0 min 0,000 mm 0,0 UV-I 0 W/m 8,7 C 9,3 C 6,4 km/h (2 Bft) 100,00 %
11.08.2016 02:26 9,3 C 96 % 1020,9 hPa 0,0 l/m 5,1 km/h (1 Bft) SW 226 0 min 0,000 mm 0,0 UV-I 0 W/m 8,7 C 9,3 C 6,4 km/h (2 Bft) 100,00 %
11.08.2016 02:28 9,2 C 96 % 1020,8 hPa 0,0 l/m 5,0 km/h (1 Bft) SW 221 0 min 0,000 mm 0,0 UV-I 0 W/m 8,6 C 9,2 C 6,4 km/h (2 Bft) 100,00 %
11.08.2016 02:30 9,2 C 96 % 1020,8 hPa 0,0 l/m 4,3 km/h (1 Bft) SW 222 0 min 0,000 mm 0,0 UV-I 0 W/m 8,6 C 9,2 C 4,8 km/h (1 Bft) 100,00 %
11.08.2016 02:32 9,2 C 96 % 1020,8 hPa 0,0 l/m 3,9 km/h (1 Bft) SW 225 0 min 0,000 mm 0,0 UV-I 0 W/m 8,6 C 9,2 C 6,4 km/h (2 Bft) 97,87 %
11.08.2016 02:34 9,2 C 96 % 1020,8 hPa 0,0 l/m 4,3 km/h (1 Bft) W-SW 253 0 min 0,000 mm 0,0 UV-I 0 W/m 8,6 C 9,2 C 6,4 km/h (2 Bft) 100,00 %
11.08.2016 02:36 9,2 C 96 % 1020,9 hPa 0,0 l/m 4,1 km/h (1 Bft) W-SW 252 0 min 0,000 mm 0,0 UV-I 0 W/m 8,6 C 9,2 C 6,4 km/h (2 Bft) 100,00 %
11.08.2016 02:38 9,2 C 96 % 1020,8 hPa 0,0 l/m 4,0 km/h (1 Bft) W-SW 250 0 min 0,000 mm 0,0 UV-I 0 W/m 8,6 C 9,2 C 6,4 km/h (2 Bft) 100,00 %
11.08.2016 02:40 9,3 C 97 % 1020,8 hPa 0,0 l/m 4,6 km/h (1 Bft) W-SW 242 0 min 0,000 mm 0,0 UV-I 0 W/m 8,8 C 9,3 C 8,0 km/h (2 Bft) 100,00 %
11.08.2016 02:42 9,3 C 97 % 1020,8 hPa 0,0 l/m 7,3 km/h (2 Bft) W-SW 254 0 min 0,000 mm 0,0 UV-I 0 W/m 8,8 C 8,6 C 11,3 km/h (2 Bft) 100,00 %
11.08.2016 02:44 9,3 C 97 % 1020,8 hPa 0,0 l/m 7,0 km/h (2 Bft) W 263 0 min 0,000 mm 0,0 UV-I 0 W/m 8,8 C 8,9 C 11,3 km/h (2 Bft) 96,23 %
11.08.2016 02:46 9,4 C 97 % 1020,7 hPa 0,0 l/m 6,3 km/h (2 Bft) SW 234 0 min 0,000 mm 0,0 UV-I 0 W/m 8,9 C 9,4 C 11,3 km/h (2 Bft) 97,87 %
11.08.2016 02:48 9,4 C 97 % 1020,8 hPa 0,0 l/m 6,9 km/h (2 Bft) W-SW 246 0 min 0,000 mm 0,0 UV-I 0 W/m 8,9 C 9,0 C 11,3 km/h (2 Bft) 100,00 %
11.08.2016 02:50 9,4 C 97 % 1020,8 hPa 0,0 l/m 6,9 km/h (2 Bft) W-SW 250 0 min 0,000 mm 0,0 UV-I 0 W/m 8,9 C 9,0 C 11,3 km/h (2 Bft) 97,87 %
11.08.2016 02:52 9,6 C 97 % 1020,8 hPa 0,0 l/m 8,7 km/h (2 Bft) W 262 0 min 0,000 mm 0,0 UV-I 0 W/m 9,1 C 8,0 C 12,9 km/h (3 Bft) 100,00 %
11.08.2016 02:54 9,6 C 97 % 1020,8 hPa 0,0 l/m 8,0 km/h (2 Bft) W 262 0 min 0,000 mm 0,0 UV-I 0 W/m 9,1 C 8,4 C 12,9 km/h (3 Bft) 100,00 %
11.08.2016 02:56 9,7 C 97 % 1020,8 hPa 0,0 l/m 7,5 km/h (2 Bft) W 259 0 min 0,000 mm 0,0 UV-I 0 W/m 9,2 C 8,9 C 12,9 km/h (3 Bft) 97,56 %
11.08.2016 02:58 9,7 C 97 % 1020,8 hPa 0,0 l/m 7,1 km/h (2 Bft) W-SW 248 0 min 0,000 mm 0,0 UV-I 0 W/m 9,2 C 9,2 C 11,3 km/h (2 Bft) 97,73 %
11.08.2016 03:00 9,8 C 97 % 1020,9 hPa 0,0 l/m 7,2 km/h (2 Bft) W-SW 250 0 min 0,000 mm 0,0 UV-I 0 W/m 9,3 C 9,2 C 11,3 km/h (2 Bft) 100,00 %
11.08.2016 03:02 9,8 C 97 % 1021,0 hPa 0,0 l/m 7,8 km/h (2 Bft) W-SW 253 0 min 0,000 mm 0,0 UV-I 0 W/m 9,3 C 8,8 C 11,3 km/h (2 Bft) 100,00 %
11.08.2016 03:04 9,8 C 97 % 1021,0 hPa 0,0 l/m 10,3 km/h (2 Bft) W-NW 294 0 min 0,000 mm 0,0 UV-I 0 W/m 9,3 C 7,2 C 12,9 km/h (3 Bft) 97,44 %
11.08.2016 03:06 9,9 C 97 % 1021,0 hPa 0,0 l/m 11,1 km/h (2 Bft) W-SW 257 0 min 0,000 mm 0,0 UV-I 0 W/m 9,4 C 6,9 C 14,5 km/h (3 Bft) 96,36 %
11.08.2016 03:08 10,0 C 96 % 1021,0 hPa 0,0 l/m 11,1 km/h (2 Bft) W-SW 254 0 min 0,000 mm 0,0 UV-I 0 W/m 9,4 C 7,0 C 16,1 km/h (3 Bft) 97,62 %
11.08.2016 03:10 10,1 C 97 % 1021,1 hPa 0,0 l/m 8,9 km/h (2 Bft) W-SW 257 0 min 0,000 mm 0,0 UV-I 0 W/m 9,6 C 8,4 C 14,5 km/h (3 Bft) 100,00 %
11.08.2016 03:12 10,1 C 96 % 1021,0 hPa 0,0 l/m 7,7 km/h (2 Bft) W 261 0 min 0,000 mm 0,0 UV-I 0 W/m 9,5 C 9,2 C 16,1 km/h (3 Bft) 100,00 %
11.08.2016 03:14 10,2 C 96 % 1021,1 hPa 0,0 l/m 9,6 km/h (2 Bft) W 276 0 min 0,000 mm 0,0 UV-I 0 W/m 9,6 C 8,0 C 14,5 km/h (3 Bft) 100,00 %
11.08.2016 03:16 10,2 C 96 % 1021,0 hPa 0,2 l/m 6,8 km/h (2 Bft) W-NW 298 0 min 0,000 mm 0,0 UV-I 0 W/m 9,6 C 9,9 C 22,5 km/h (4 Bft) 100,00 %
11.08.2016 03:18 10,2 C 96 % 1021,0 hPa 0,0 l/m 6,8 km/h (2 Bft) W-SW 257 0 min 0,000 mm 0,0 UV-I 0 W/m 9,6 C 9,9 C 14,5 km/h (3 Bft) 100,00 %
11.08.2016 03:20 10,2 C 95 % 1021,1 hPa 0,0 l/m 7,2 km/h (2 Bft) NW 309 0 min 0,000 mm 0,0 UV-I 0 W/m 9,4 C 9,6 C 14,5 km/h (3 Bft) 100,00 %
11.08.2016 03:22 10,1 C 95 % 1021,1 hPa 0,0 l/m 10,4 km/h (2 Bft) W-SW 243 0 min 0,000 mm 0,0 UV-I 0 W/m 9,3 C 7,5 C 17,7 km/h (3 Bft) 100,00 %
11.08.2016 03:24 10,0 C 94 % 1021,1 hPa 0,2 l/m 9,3 km/h (2 Bft) W-SW 242 0 min 0,000 mm 0,0 UV-I 0 W/m 9,1 C 8,0 C 17,7 km/h (3 Bft) 98,00 %
11.08.2016 03:26 10,0 C 93 % 1021,0 hPa 0,4 l/m 10,1 km/h (2 Bft) W-SW 240 0 min 0,000 mm 0,0 UV-I 0 W/m 8,9 C 7,5 C 17,7 km/h (3 Bft) 97,37 %
11.08.2016 03:28 9,9 C 92 % 1021,2 hPa 0,0 l/m 7,4 km/h (2 Bft) W-SW 250 0 min 0,000 mm 0,0 UV-I 0 W/m 8,7 C 9,2 C 12,9 km/h (3 Bft) 96,23 %
11.08.2016 03:30 9,8 C 92 % 1021,3 hPa 0,2 l/m 8,6 km/h (2 Bft) W-SW 250 0 min 0,000 mm 0,0 UV-I 0 W/m 8,6 C 8,2 C 12,9 km/h (3 Bft) 97,56 %
11.08.2016 03:32 9,8 C 92 % 1021,3 hPa 0,0 l/m 7,9 km/h (2 Bft) W-SW 240 0 min 0,000 mm 0,0 UV-I 0 W/m 8,6 C 8,7 C 12,9 km/h (3 Bft) 97,87 %
11.08.2016 03:34 9,7 C 92 % 1021,2 hPa 0,2 l/m 4,6 km/h (1 Bft) W 263 0 min 0,000 mm 0,0 UV-I 0 W/m 8,5 C 9,7 C 9,7 km/h (2 Bft) 96,00 %
11.08.2016 03:36 9,7 C 92 % 1021,0 hPa 0,2 l/m 9,5 km/h (2 Bft) S 178 0 min 0,000 mm 0,0 UV-I 0 W/m 8,5 C 7,6 C 19,3 km/h (3 Bft) 95,12 %
11.08.2016 03:38 10,1 C 85 % 1020,9 hPa 0,0 l/m 5,4 km/h (1 Bft) N 360 0 min 0,000 mm 0,0 UV-I 0 W/m 7,7 C 10,1 C 9,7 km/h (2 Bft) 98,11 %
11.08.2016 03:40 10,4 C 87 % 1020,9 hPa 0,2 l/m 1,5 km/h (1 Bft) N-NW 340 0 min 0,000 mm 0,0 UV-I 0 W/m 8,3 C 10,4 C 4,8 km/h (1 Bft) 98,11 %
11.08.2016 03:42 10,4 C 86 % 1020,9 hPa 0,0 l/m 4,6 km/h (1 Bft) S-SW 200 0 min 0,000 mm 0,0 UV-I 0 W/m 8,2 C 10,4 C 9,7 km/h (2 Bft) 97,37 %
11.08.2016 03:44 10,4 C 87 % 1020,8 hPa 0,0 l/m 5,6 km/h (1 Bft) S-SW 196 0 min 0,000 mm 0,0 UV-I 0 W/m 8,3 C 10,4 C 9,7 km/h (2 Bft) 95,74 %
11.08.2016 03:46 10,3 C 87 % 1020,8 hPa 0,0 l/m 2,7 km/h (1 Bft) S 183 0 min 0,000 mm 0,0 UV-I 0 W/m 8,2 C 10,3 C 6,4 km/h (2 Bft) 95,74 %
11.08.2016 03:48 10,3 C 87 % 1020,7 hPa 0,0 l/m 1,9 km/h (1 Bft) S 183 0 min 0,000 mm 0,0 UV-I 0 W/m 8,2 C 10,3 C 3,2 km/h (1 Bft) 96,43 %
11.08.2016 03:50 10,3 C 87 % 1020,7 hPa 0,0 l/m 2,8 km/h (1 Bft) S 182 0 min 0,000 mm 0,0 UV-I 0 W/m 8,2 C 10,3 C 4,8 km/h (1 Bft) 97,44 %
11.08.2016 03:52 10,3 C 88 % 1020,8 hPa 0,0 l/m 2,3 km/h (1 Bft) S 182 0 min 0,000 mm 0,0 UV-I 0 W/m 8,4 C 10,3 C 3,2 km/h (1 Bft) 100,00 %
11.08.2016 03:54 10,3 C 89 % 1020,8 hPa 0,0 l/m 2,6 km/h (1 Bft) S 183 0 min 0,000 mm 0,0 UV-I 0 W/m 8,6 C 10,3 C 3,2 km/h (1 Bft) 97,18 %
11.08.2016 03:56 10,2 C 90 % 1020,7 hPa 0,0 l/m 2,0 km/h (1 Bft) S 182 0 min 0,000 mm 0,0 UV-I 0 W/m 8,6 C 10,2 C 3,2 km/h (1 Bft) 97,37 %
11.08.2016 03:58 10,1 C 91 % 1020,7 hPa 0,0 l/m 2,8 km/h (1 Bft) S 182 0 min 0,000 mm 0,0 UV-I 0 W/m 8,7 C 10,1 C 4,8 km/h (1 Bft) 98,00 %
11.08.2016 04:00 9,9 C 91 % 1020,7 hPa 0,0 l/m 2,4 km/h (1 Bft) S 182 0 min 0,000 mm 0,0 UV-I 0 W/m 8,5 C 9,9 C 3,2 km/h (1 Bft) 98,11 %
11.08.2016 04:02 9,8 C 92 % 1020,7 hPa 0,0 l/m 2,9 km/h (1 Bft) S 191 0 min 0,000 mm 0,0 UV-I 0 W/m 8,6 C 9,8 C 4,8 km/h (1 Bft) 100,00 %
11.08.2016 04:04 9,7 C 92 % 1020,7 hPa 0,0 l/m 3,7 km/h (1 Bft) S-SW 209 0 min 0,000 mm 0,0 UV-I 0 W/m 8,5 C 9,7 C 6,4 km/h (2 Bft) 96,00 %
11.08.2016 04:06 9,6 C 92 % 1020,8 hPa 0,0 l/m 4,1 km/h (1 Bft) S-SW 207 0 min 0,000 mm 0,0 UV-I 0 W/m 8,4 C 9,6 C 6,4 km/h (2 Bft) 97,87 %
11.08.2016 04:08 9,4 C 92 % 1020,8 hPa 0,0 l/m 3,4 km/h (1 Bft) S-SW 213 0 min 0,000 mm 0,0 UV-I 0 W/m 8,2 C 9,4 C 4,8 km/h (1 Bft) 100,00 %
11.08.2016 04:10 9,3 C 93 % 1020,9 hPa 0,0 l/m 2,6 km/h (1 Bft) S-SW 201 0 min 0,000 mm 0,0 UV-I 0 W/m 8,2 C 9,3 C 4,8 km/h (1 Bft) 98,39 %
11.08.2016 04:12 9,2 C 93 % 1020,9 hPa 0,0 l/m 3,6 km/h (1 Bft) S-SW 201 0 min 0,000 mm 0,0 UV-I 0 W/m 8,1 C 9,2 C 4,8 km/h (1 Bft) 97,87 %
11.08.2016 04:14 9,2 C 93 % 1021,0 hPa 0,0 l/m 4,0 km/h (1 Bft) S-SW 213 0 min 0,000 mm 0,0 UV-I 0 W/m 8,1 C 9,2 C 6,4 km/h (2 Bft) 100,00 %
11.08.2016 04:16 9,1 C 94 % 1021,0 hPa 0,0 l/m 5,5 km/h (1 Bft) SW 233 0 min 0,000 mm 0,0 UV-I 0 W/m 8,2 C 9,1 C 9,7 km/h (2 Bft) 97,37 %
11.08.2016 04:18 9,0 C 94 % 1021,0 hPa 0,0 l/m 5,8 km/h (2 Bft) SW 225 0 min 0,000 mm 0,0 UV-I 0 W/m 8,1 C 9,0 C 9,7 km/h (2 Bft) 100,00 %
11.08.2016 04:20 8,9 C 94 % 1021,1 hPa 0,0 l/m 5,3 km/h (1 Bft) S 188 0 min 0,000 mm 0,0 UV-I 0 W/m 8,0 C 8,9 C 8,0 km/h (2 Bft) 100,00 %
11.08.2016 04:22 8,9 C 94 % 1021,1 hPa 0,0 l/m 6,1 km/h (2 Bft) SW 219 0 min 0,000 mm 0,0 UV-I 0 W/m 8,0 C 8,9 C 11,3 km/h (2 Bft) 100,00 %
11.08.2016 04:24 8,9 C 94 % 1021,1 hPa 0,0 l/m 7,8 km/h (2 Bft) S-SW 192 0 min 0,000 mm 0,0 UV-I 0 W/m 8,0 C 7,8 C 11,3 km/h (2 Bft) 100,00 %
11.08.2016 04:26 8,9 C 94 % 1021,1 hPa 0,0 l/m 7,2 km/h (2 Bft) SW 225 0 min 0,000 mm 0,0 UV-I 0 W/m 8,0 C 8,3 C 12,9 km/h (3 Bft) 100,00 %
11.08.2016 04:28 8,8 C 94 % 1021,2 hPa 0,0 l/m 6,6 km/h (2 Bft) S-SW 211 0 min 0,000 mm 0,0 UV-I 0 W/m 7,9 C 8,7 C 9,7 km/h (2 Bft) 97,87 %
11.08.2016 04:30 8,9 C 94 % 1021,2 hPa 0,0 l/m 6,0 km/h (2 Bft) S-SW 205 0 min 0,000 mm 0,0 UV-I 0 W/m 8,0 C 8,9 C 8,0 km/h (2 Bft) 98,08 %
11.08.2016 04:32 8,9 C 94 % 1021,3 hPa 0,0 l/m 7,9 km/h (2 Bft) S-SW 196 0 min 0,000 mm 0,0 UV-I 0 W/m 8,0 C 7,8 C 11,3 km/h (2 Bft) 100,00 %
11.08.2016 04:34 8,9 C 94 % 1021,3 hPa 0,0 l/m 7,6 km/h (2 Bft) S-SW 192 0 min 0,000 mm 0,0 UV-I 0 W/m 8,0 C 8,0 C 11,3 km/h (2 Bft) 100,00 %
11.08.2016 04:36 8,9 C 94 % 1021,3 hPa 0,0 l/m 6,0 km/h (2 Bft) SW 224 0 min 0,000 mm 0,0 UV-I 0 W/m 8,0 C 8,9 C 8,0 km/h (2 Bft) 100,00 %
11.08.2016 04:38 8,9 C 94 % 1021,5 hPa 0,0 l/m 6,6 km/h (2 Bft) SW 234 0 min 0,000 mm 0,0 UV-I 0 W/m 8,0 C 8,8 C 9,7 km/h (2 Bft) 97,73 %
11.08.2016 04:40 8,9 C 94 % 1021,5 hPa 0,0 l/m 5,4 km/h (1 Bft) S-SW 207 0 min 0,000 mm 0,0 UV-I 0 W/m 8,0 C 8,9 C 8,0 km/h (2 Bft) 100,00 %
11.08.2016 04:42 8,9 C 95 % 1021,5 hPa 0,0 l/m 6,9 km/h (2 Bft) S-SW 202 0 min 0,000 mm 0,0 UV-I 0 W/m 8,1 C 8,5 C 9,7 km/h (2 Bft) 97,87 %
11.08.2016 04:44 8,9 C 95 % 1021,4 hPa 0,0 l/m 5,9 km/h (2 Bft) S-SW 200 0 min 0,000 mm 0,0 UV-I 0 W/m 8,1 C 8,9 C 9,7 km/h (2 Bft) 100,00 %
11.08.2016 04:46 8,9 C 95 % 1021,4 hPa 0,0 l/m 4,6 km/h (1 Bft) S-SW 200 0 min 0,000 mm 0,0 UV-I 0 W/m 8,1 C 8,9 C 6,4 km/h (2 Bft) 100,00 %
11.08.2016 04:48 9,0 C 95 % 1021,4 hPa 0,0 l/m 5,2 km/h (1 Bft) S-SW 196 0 min 0,000 mm 0,0 UV-I 0 W/m 8,2 C 9,0 C 8,0 km/h (2 Bft) 100,00 %
11.08.2016 04:50 9,0 C 95 % 1021,4 hPa 0,0 l/m 5,4 km/h (1 Bft) S 191 0 min 0,000 mm 0,0 UV-I 0 W/m 8,2 C 9,0 C 8,0 km/h (2 Bft) 100,00 %
11.08.2016 04:52 9,1 C 95 % 1021,3 hPa 0,0 l/m 4,5 km/h (1 Bft) S-SW 198 0 min 0,000 mm 0,0 UV-I 0 W/m 8,3 C 9,1 C 6,4 km/h (2 Bft) 100,00 %
11.08.2016 04:54 9,1 C 95 % 1021,3 hPa 0,0 l/m 3,9 km/h (1 Bft) S-SW 203 0 min 0,000 mm 0,0 UV-I 0 W/m 8,3 C 9,1 C 4,8 km/h (1 Bft) 100,00 %
11.08.2016 04:56 9,1 C 95 % 1021,2 hPa 0,0 l/m 2,9 km/h (1 Bft) S-SW 203 0 min 0,000 mm 0,0 UV-I 0 W/m 8,3 C 9,1 C 4,8 km/h (1 Bft) 98,11 %
11.08.2016 04:58 9,1 C 95 % 1021,2 hPa 0,0 l/m 1,9 km/h (1 Bft) S-SW 203 0 min 0,000 mm 0,0 UV-I 0 W/m 8,3 C 9,1 C 3,2 km/h (1 Bft) 100,00 %
11.08.2016 05:00 9,1 C 95 % 1021,2 hPa 0,0 l/m 1,2 km/h (1 Bft) S-SW 203 0 min 0,000 mm 0,0 UV-I 0 W/m 8,3 C 9,1 C 3,2 km/h (1 Bft) 100,00 %
11.08.2016 05:02 9,1 C 95 % 1021,3 hPa 0,0 l/m 2,1 km/h (1 Bft) S-SW 203 0 min 0,000 mm 0,0 UV-I 0 W/m 8,3 C 9,1 C 3,2 km/h (1 Bft) 100,00 %
11.08.2016 05:04 9,1 C 95 % 1021,2 hPa 0,0 l/m 2,9 km/h (1 Bft) S-SW 203 0 min 0,000 mm 0,0 UV-I 0 W/m 8,3 C 9,1 C 3,2 km/h (1 Bft) 100,00 %
11.08.2016 05:06 9,1 C 95 % 1021,2 hPa 0,0 l/m 3,4 km/h (1 Bft) S-SW 203 0 min 0,000 mm 0,0 UV-I 0 W/m 8,3 C 9,1 C 4,8 km/h (1 Bft) 100,00 %
11.08.2016 05:08 9,1 C 95 % 1021,2 hPa 0,0 l/m 3,9 km/h (1 Bft) S 170 0 min 0,000 mm 0,0 UV-I 0 W/m 8,3 C 9,1 C 6,4 km/h (2 Bft) 100,00 %
11.08.2016 05:10 9,1 C 95 % 1021,2 hPa 0,0 l/m 3,0 km/h (1 Bft) S 170 0 min 0,000 mm 0,0 UV-I 0 W/m 8,3 C 9,1 C 6,4 km/h (2 Bft) 98,00 %
11.08.2016 05:12 9,1 C 95 % 1021,2 hPa 0,0 l/m 3,7 km/h (1 Bft) S 170 0 min 0,000 mm 0,0 UV-I 0 W/m 8,3 C 9,1 C 6,4 km/h (2 Bft) 100,00 %
11.08.2016 05:14 9,1 C 95 % 1021,2 hPa 0,0 l/m 3,2 km/h (1 Bft) S 186 0 min 0,000 mm 0,0 UV-I 0 W/m 8,3 C 9,1 C 6,4 km/h (2 Bft) 97,14 %
11.08.2016 05:16 9,1 C 95 % 1021,3 hPa 0,0 l/m 3,2 km/h (1 Bft) S 188 0 min 0,000 mm 0,0 UV-I 0 W/m 8,3 C 9,1 C 4,8 km/h (1 Bft) 100,00 %
11.08.2016 05:18 9,1 C 95 % 1021,3 hPa 0,0 l/m 3,1 km/h (1 Bft) S-SW 204 0 min 0,000 mm 0,0 UV-I 0 W/m 8,3 C 9,1 C 4,8 km/h (1 Bft) 100,00 %
11.08.2016 05:20 9,2 C 95 % 1021,3 hPa 0,0 l/m 3,2 km/h (1 Bft) SW 225 0 min 0,000 mm 0,0 UV-I 0 W/m 8,4 C 9,2 C 4,8 km/h (1 Bft) 97,37 %
11.08.2016 05:22 9,2 C 95 % 1021,4 hPa 0,0 l/m 2,6 km/h (1 Bft) SW 226 0 min 0,000 mm 0,0 UV-I 0 W/m 8,4 C 9,2 C 3,2 km/h (1 Bft) 97,87 %
11.08.2016 05:24 9,2 C 95 % 1021,4 hPa 0,0 l/m 1,0 km/h (0 Bft) SW 226 0 min 0,000 mm 0,0 UV-I 0 W/m 8,4 C 9,2 C 3,2 km/h (1 Bft) 98,11 %
11.08.2016 05:26 9,2 C 95 % 1021,3 hPa 0,0 l/m 2,2 km/h (1 Bft) SW 228 0 min 0,000 mm 0,0 UV-I 0 W/m 8,4 C 9,2 C 3,2 km/h (1 Bft) 94,00 %
11.08.2016 05:28 9,2 C 95 % 1021,3 hPa 0,0 l/m 0,5 km/h (0 Bft) W-SW 252 0 min 0,000 mm 0,0 UV-I 0 W/m 8,4 C 9,2 C 3,2 km/h (1 Bft) 96,00 %
11.08.2016 05:30 9,2 C 95 % 1021,3 hPa 0,0 l/m 1,6 km/h (1 Bft) W 275 0 min 0,000 mm 0,0 UV-I 0 W/m 8,4 C 9,2 C 3,2 km/h (1 Bft) 100,00 %
11.08.2016 05:32 9,2 C 95 % 1021,3 hPa 0,0 l/m 1,3 km/h (1 Bft) N 9 0 min 0,000 mm 0,0 UV-I 0 W/m 8,4 C 9,2 C 4,8 km/h (1 Bft) 93,62 %
11.08.2016 05:34 9,1 C 95 % 1021,3 hPa 0,0 l/m 1,2 km/h (1 Bft) N 9 0 min 0,000 mm 0,0 UV-I 0 W/m 8,3 C 9,1 C 3,2 km/h (1 Bft) 98,00 %
11.08.2016 05:36 9,1 C 95 % 1021,3 hPa 0,0 l/m 2,3 km/h (1 Bft) N 9 0 min 0,000 mm 0,0 UV-I 0 W/m 8,3 C 9,1 C 3,2 km/h (1 Bft) 96,00 %
11.08.2016 05:38 9,1 C 95 % 1021,3 hPa 0,0 l/m 1,9 km/h (1 Bft) N 9 0 min 0,000 mm 0,0 UV-I 0 W/m 8,3 C 9,1 C 3,2 km/h (1 Bft) 96,00 %
11.08.2016 05:40 9,1 C 95 % 1021,3 hPa 0,0 l/m 1,1 km/h (1 Bft) N 9 0 min 0,000 mm 0,0 UV-I 0 W/m 8,3 C 9,1 C 3,2 km/h (1 Bft) 92,11 %
11.08.2016 05:42 9,0 C 95 % 1021,4 hPa 0,0 l/m 1,4 km/h (1 Bft) N 9 0 min 0,000 mm 0,0 UV-I 0 W/m 8,2 C 9,0 C 3,2 km/h (1 Bft) 97,87 %
11.08.2016 05:44 8,9 C 95 % 1021,3 hPa 0,0 l/m 0,2 km/h (0 Bft) N 9 0 min 0,000 mm 0,0 UV-I 0 W/m 8,1 C 8,9 C 1,6 km/h (1 Bft) 97,87 %
11.08.2016 05:46 9,0 C 95 % 1021,3 hPa 0,0 l/m 0,6 km/h (0 Bft) NW 313 0 min 0,000 mm 0,0 UV-I 0 W/m 8,2 C 9,0 C 3,2 km/h (1 Bft) 94,00 %
11.08.2016 05:48 9,0 C 95 % 1021,4 hPa 0,0 l/m 1,7 km/h (1 Bft) NW 319 0 min 0,000 mm 0,0 UV-I 0 W/m 8,2 C 9,0 C 3,2 km/h (1 Bft) 98,00 %
11.08.2016 05:50 9,0 C 95 % 1021,3 hPa 0,0 l/m 1,6 km/h (1 Bft) NW 319 0 min 0,000 mm 0,0 UV-I 0 W/m 8,2 C 9,0 C 3,2 km/h (1 Bft) 97,44 %
11.08.2016 05:52 9,1 C 95 % 1021,4 hPa 0,0 l/m 1,5 km/h (1 Bft) NW 316 0 min 0,000 mm 0,0 UV-I 0 W/m 8,3 C 9,1 C 3,2 km/h (1 Bft) 98,00 %
11.08.2016 05:54 9,1 C 95 % 1021,4 hPa 0,0 l/m 0,9 km/h (0 Bft) NW 316 0 min 0,000 mm 0,0 UV-I 4 W/m 8,3 C 9,1 C 3,2 km/h (1 Bft) 98,00 %
11.08.2016 05:56 9,1 C 94 % 1021,5 hPa 0,0 l/m 0,1 km/h (0 Bft) NW 316 0 min 0,000 mm 0,0 UV-I 5 W/m 8,2 C 9,1 C 1,6 km/h (1 Bft) 97,87 %
11.08.2016 05:58 9,1 C 94 % 1021,4 hPa 0,0 l/m 0,1 km/h (0 Bft) NW 316 0 min 0,000 mm 0,0 UV-I 5 W/m 8,2 C 9,1 C 1,6 km/h (1 Bft) 95,74 %
11.08.2016 06:00 9,0 C 95 % 1021,4 hPa 0,0 l/m 0,1 km/h (0 Bft) NW 316 0 min 0,000 mm 0,0 UV-I 5 W/m 8,2 C 9,0 C 1,6 km/h (1 Bft) 97,87 %
11.08.2016 06:02 8,9 C 95 % 1021,5 hPa 0,0 l/m 0,1 km/h (0 Bft) NW 317 0 min 0,000 mm 0,0 UV-I 5 W/m 8,1 C 8,9 C 1,6 km/h (1 Bft) 100,00 %
11.08.2016 06:04 8,9 C 95 % 1021,5 hPa 0,0 l/m 0,3 km/h (0 Bft) NW 317 0 min 0,000 mm 0,0 UV-I 6 W/m 8,1 C 8,9 C 1,6 km/h (1 Bft) 97,87 %
11.08.2016 06:06 8,8 C 95 % 1021,5 hPa 0,0 l/m 0,8 km/h (0 Bft) NW 317 0 min 0,000 mm 0,0 UV-I 7 W/m 8,0 C 8,8 C 3,2 km/h (1 Bft) 97,87 %
11.08.2016 06:08 8,8 C 95 % 1021,6 hPa 0,0 l/m 0,2 km/h (0 Bft) NW 317 0 min 0,000 mm 0,0 UV-I 8 W/m 8,0 C 8,8 C 1,6 km/h (1 Bft) 97,87 %
11.08.2016 06:10 8,7 C 95 % 1021,6 hPa 0,0 l/m 1,6 km/h (1 Bft) NW 317 0 min 0,000 mm 0,0 UV-I 10 W/m 7,9 C 8,7 C 3,2 km/h (1 Bft) 100,00 %
11.08.2016 06:12 8,7 C 95 % 1021,6 hPa 0,0 l/m 1,3 km/h (1 Bft) NW 317 0 min 0,000 mm 0,0 UV-I 11 W/m 7,9 C 8,7 C 1,6 km/h (1 Bft) 100,00 %
11.08.2016 06:14 8,7 C 95 % 1021,6 hPa 0,0 l/m 2,6 km/h (1 Bft) NW 317 0 min 0,000 mm 0,0 UV-I 13 W/m 7,9 C 8,7 C 3,2 km/h (1 Bft) 100,00 %
11.08.2016 06:16 8,7 C 95 % 1021,6 hPa 0,0 l/m 1,9 km/h (1 Bft) NW 317 0 min 0,000 mm 0,0 UV-I 14 W/m 7,9 C 8,7 C 3,2 km/h (1 Bft) 97,56 %
11.08.2016 06:18 8,7 C 96 % 1021,7 hPa 0,0 l/m 1,0 km/h (0 Bft) NW 317 0 min 0,000 mm 0,0 UV-I 16 W/m 8,1 C 8,7 C 3,2 km/h (1 Bft) 97,73 %
11.08.2016 06:20 8,7 C 96 % 1021,8 hPa 0,0 l/m 1,3 km/h (1 Bft) NW 317 0 min 0,000 mm 0,0 UV-I 18 W/m 8,1 C 8,7 C 3,2 km/h (1 Bft) 98,11 %
11.08.2016 06:22 8,7 C 96 % 1021,8 hPa 0,0 l/m 2,0 km/h (1 Bft) NW 317 0 min 0,000 mm 0,0 UV-I 19 W/m 8,1 C 8,7 C 3,2 km/h (1 Bft) 100,00 %
11.08.2016 06:24 8,8 C 96 % 1021,9 hPa 0,0 l/m 1,5 km/h (1 Bft) NW 317 0 min 0,000 mm 0,0 UV-I 19 W/m 8,2 C 8,8 C 3,2 km/h (1 Bft) 100,00 %
11.08.2016 06:26 8,8 C 96 % 1021,9 hPa 0,0 l/m 1,8 km/h (1 Bft) NW 317 0 min 0,000 mm 0,0 UV-I 19 W/m 8,2 C 8,8 C 3,2 km/h (1 Bft) 100,00 %
11.08.2016 06:28 8,8 C 96 % 1021,9 hPa 0,0 l/m 2,5 km/h (1 Bft) N 351 0 min 0,000 mm 0,0 UV-I 19 W/m 8,2 C 8,8 C 4,8 km/h (1 Bft) 100,00 %
11.08.2016 06:30 8,8 C 96 % 1021,9 hPa 0,0 l/m 2,8 km/h (1 Bft) N 355 0 min 0,000 mm 0,0 UV-I 21 W/m 8,2 C 8,8 C 4,8 km/h (1 Bft) 97,92 %
11.08.2016 06:32 8,8 C 96 % 1022,0 hPa 0,0 l/m 1,2 km/h (1 Bft) N 355 0 min 0,000 mm 0,0 UV-I 23 W/m 8,2 C 8,8 C 3,2 km/h (1 Bft) 94,74 %
11.08.2016 06:34 8,9 C 96 % 1022,0 hPa 0,0 l/m 2,6 km/h (1 Bft) N 355 0 min 0,000 mm 0,0 UV-I 23 W/m 8,3 C 8,9 C 3,2 km/h (1 Bft) 100,00 %
11.08.2016 06:36 8,9 C 96 % 1022,0 hPa 0,0 l/m 2,6 km/h (1 Bft) N-NO 15 0 min 0,000 mm 0,0 UV-I 23 W/m 8,3 C 8,9 C 4,8 km/h (1 Bft) 98,00 %
11.08.2016 06:38 9,1 C 96 % 1022,0 hPa 0,0 l/m 2,5 km/h (1 Bft) N-NO 15 0 min 0,000 mm 0,0 UV-I 22 W/m 8,5 C 9,1 C 3,2 km/h (1 Bft) 100,00 %
11.08.2016 06:40 9,1 C 96 % 1022,0 hPa 0,0 l/m 1,4 km/h (1 Bft) N-NO 15 0 min 0,000 mm 0,0 UV-I 21 W/m 8,5 C 9,1 C 3,2 km/h (1 Bft) 100,00 %
11.08.2016 06:42 9,2 C 96 % 1022,0 hPa 0,0 l/m 2,3 km/h (1 Bft) O-NO 57 0 min 0,000 mm 0,0 UV-I 21 W/m 8,6 C 9,2 C 4,8 km/h (1 Bft) 97,14 %
11.08.2016 06:44 9,2 C 96 % 1022,0 hPa 0,0 l/m 4,3 km/h (1 Bft) O-SO 113 0 min 0,000 mm 0,0 UV-I 20 W/m 8,6 C 9,2 C 6,4 km/h (2 Bft) 100,00 %
11.08.2016 06:46 9,2 C 96 % 1022,0 hPa 0,0 l/m 3,1 km/h (1 Bft) O-SO 113 0 min 0,000 mm 0,0 UV-I 19 W/m 8,6 C 9,2 C 4,8 km/h (1 Bft) 100,00 %
11.08.2016 06:48 9,3 C 96 % 1022,0 hPa 0,0 l/m 3,2 km/h (1 Bft) O-SO 113 0 min 0,000 mm 0,0 UV-I 20 W/m 8,7 C 9,3 C 4,8 km/h (1 Bft) 95,74 %
11.08.2016 06:50 9,3 C 97 % 1022,0 hPa 0,0 l/m 2,0 km/h (1 Bft) O-SO 113 0 min 0,000 mm 0,0 UV-I 23 W/m 8,8 C 9,3 C 3,2 km/h (1 Bft) 98,11 %
11.08.2016 06:52 9,3 C 97 % 1022,0 hPa 0,0 l/m 1,5 km/h (1 Bft) O-SO 113 0 min 0,000 mm 0,0 UV-I 25 W/m 8,8 C 9,3 C 3,2 km/h (1 Bft) 100,00 %
11.08.2016 06:54 9,3 C 96 % 1022,1 hPa 0,0 l/m 0,6 km/h (0 Bft) O-SO 113 0 min 0,000 mm 0,0 UV-I 24 W/m 8,7 C 9,3 C 1,6 km/h (1 Bft) 100,00 %
11.08.2016 06:56 9,4 C 96 % 1022,2 hPa 0,0 l/m 0,0 km/h (0 Bft) O-SO 113 0 min 0,000 mm 0,0 UV-I 21 W/m 8,8 C 9,4 C 0,0 km/h (0 Bft) 96,00 %
11.08.2016 06:58 9,5 C 96 % 1022,2 hPa 0,0 l/m 0,1 km/h (0 Bft) O-SO 113 0 min 0,000 mm 0,0 UV-I 17 W/m 8,9 C 9,5 C 1,6 km/h (1 Bft) 100,00 %
11.08.2016 07:00 9,6 C 96 % 1022,3 hPa 0,0 l/m 0,0 km/h (0 Bft) O-SO 113 0 min 0,000 mm 0,0 UV-I 14 W/m 9,0 C 9,6 C 0,0 km/h (0 Bft) 100,00 %
11.08.2016 07:02 9,6 C 96 % 1022,3 hPa 0,0 l/m 0,0 km/h (0 Bft) O-SO 113 0 min 0,000 mm 0,0 UV-I 17 W/m 9,0 C 9,6 C 1,6 km/h (1 Bft) 97,92 %
11.08.2016 07:04 9,6 C 96 % 1022,3 hPa 0,0 l/m 0,4 km/h (0 Bft) O-SO 113 0 min 0,000 mm 0,0 UV-I 18 W/m 9,0 C 9,6 C 1,6 km/h (1 Bft) 97,44 %
11.08.2016 07:06 9,7 C 96 % 1022,3 hPa 0,0 l/m 0,1 km/h (0 Bft) O-SO 113 0 min 0,000 mm 0,0 UV-I 19 W/m 9,1 C 9,7 C 1,6 km/h (1 Bft) 97,87 %
11.08.2016 07:08 9,8 C 96 % 1022,4 hPa 0,0 l/m 0,1 km/h (0 Bft) O-SO 113 0 min 0,000 mm 0,0 UV-I 20 W/m 9,2 C 9,8 C 1,6 km/h (1 Bft) 98,00 %
11.08.2016 07:10 9,8 C 96 % 1022,4 hPa 0,0 l/m 0,0 km/h (0 Bft) O-SO 113 0 min 0,000 mm 0,0 UV-I 19 W/m 9,2 C 9,8 C 0,0 km/h (0 Bft) 100,00 %
11.08.2016 07:12 9,9 C 96 % 1022,3 hPa 0,0 l/m 0,0 km/h (0 Bft) O-SO 113 0 min 0,000 mm 0,0 UV-I 21 W/m 9,3 C 9,9 C 0,0 km/h (0 Bft) 100,00 %
11.08.2016 07:14 9,9 C 96 % 1022,4 hPa 0,0 l/m 0,0 km/h (0 Bft) O-SO 113 0 min 0,000 mm 0,0 UV-I 23 W/m 9,3 C 9,9 C 0,0 km/h (0 Bft) 97,37 %
11.08.2016 07:16 9,9 C 96 % 1022,3 hPa 0,0 l/m 0,0 km/h (0 Bft) O-SO 113 0 min 0,000 mm 0,0 UV-I 26 W/m 9,3 C 9,9 C 0,0 km/h (0 Bft) 100,00 %
11.08.2016 07:18 9,9 C 95 % 1022,3 hPa 0,0 l/m 0,0 km/h (0 Bft) O-SO 113 0 min 0,000 mm 0,0 UV-I 30 W/m 9,1 C 9,9 C 0,0 km/h (0 Bft) 100,00 %
11.08.2016 07:20 9,9 C 95 % 1022,3 hPa 0,0 l/m 0,0 km/h (0 Bft) O-SO 113 0 min 0,000 mm 0,0 UV-I 32 W/m 9,1 C 9,9 C 0,0 km/h (0 Bft) 100,00 %
11.08.2016 07:22 10,0 C 95 % 1022,3 hPa 0,0 l/m 0,0 km/h (0 Bft) O-SO 113 0 min 0,000 mm 0,0 UV-I 33 W/m 9,2 C 10,0 C 0,0 km/h (0 Bft) 96,08 %
11.08.2016 07:24 10,1 C 95 % 1022,3 hPa 0,0 l/m 0,0 km/h (0 Bft) O-SO 113 0 min 0,000 mm 0,0 UV-I 45 W/m 9,3 C 10,1 C 0,0 km/h (0 Bft) 97,87 %
11.08.2016 07:26 10,1 C 95 % 1022,3 hPa 0,0 l/m 0,7 km/h (0 Bft) O-SO 113 0 min 0,000 mm 0,0 UV-I 52 W/m 9,3 C 10,1 C 3,2 km/h (1 Bft) 97,87 %
11.08.2016 07:28 10,1 C 95 % 1022,4 hPa 0,0 l/m 1,5 km/h (1 Bft) O-SO 113 0 min 0,000 mm 0,0 UV-I 42 W/m 9,3 C 10,1 C 3,2 km/h (1 Bft) 94,74 %
11.08.2016 07:30 10,1 C 96 % 1022,4 hPa 0,0 l/m 2,0 km/h (1 Bft) O-SO 113 0 min 0,000 mm 0,0 UV-I 35 W/m 9,5 C 10,1 C 3,2 km/h (1 Bft) 98,00 %
11.08.2016 07:32 10,1 C 96 % 1022,4 hPa 0,0 l/m 2,7 km/h (1 Bft) O-SO 113 0 min 0,000 mm 0,0 UV-I 28 W/m 9,5 C 10,1 C 3,2 km/h (1 Bft) 96,08 %
11.08.2016 07:34 10,1 C 96 % 1022,4 hPa 0,0 l/m 2,7 km/h (1 Bft) O-SO 113 0 min 0,000 mm 0,0 UV-I 34 W/m 9,5 C 10,1 C 3,2 km/h (1 Bft) 97,37 %
11.08.2016 07:36 10,1 C 96 % 1022,5 hPa 0,0 l/m 2,3 km/h (1 Bft) O-SO 113 0 min 0,000 mm 0,0 UV-I 46 W/m 9,5 C 10,1 C 3,2 km/h (1 Bft) 97,87 %
11.08.2016 07:38 10,1 C 96 % 1022,5 hPa 0,0 l/m 1,8 km/h (1 Bft) O-SO 113 0 min 0,000 mm 0,0 UV-I 56 W/m 9,5 C 10,1 C 3,2 km/h (1 Bft) 97,87 %
11.08.2016 07:40 10,1 C 96 % 1022,5 hPa 0,0 l/m 2,1 km/h (1 Bft) O-SO 113 0 min 0,000 mm 0,0 UV-I 61 W/m 9,5 C 10,1 C 3,2 km/h (1 Bft) 98,11 %
11.08.2016 07:42 10,1 C 96 % 1022,5 hPa 0,0 l/m 2,1 km/h (1 Bft) O-SO 113 0 min 0,000 mm 0,0 UV-I 74 W/m 9,5 C 10,1 C 3,2 km/h (1 Bft) 97,56 %
11.08.2016 07:44 10,1 C 96 % 1022,5 hPa 0,0 l/m 2,0 km/h (1 Bft) O-SO 113 0 min 0,000 mm 0,0 UV-I 82 W/m 9,5 C 10,1 C 3,2 km/h (1 Bft) 96,00 %
11.08.2016 07:46 10,2 C 96 % 1022,5 hPa 0,0 l/m 1,7 km/h (1 Bft) O-SO 113 0 min 0,000 mm 0,0 UV-I 84 W/m 9,6 C 10,2 C 3,2 km/h (1 Bft) 97,62 %
11.08.2016 07:48 10,2 C 96 % 1022,5 hPa 0,0 l/m 0,0 km/h (0 Bft) O-SO 113 0 min 0,000 mm 0,0 UV-I 93 W/m 9,6 C 10,2 C 1,6 km/h (1 Bft) 96,00 %
11.08.2016 07:50 10,3 C 96 % 1022,5 hPa 0,0 l/m 0,9 km/h (0 Bft) O-SO 113 0 min 0,000 mm 0,0 UV-I 108 W/m 9,7 C 10,3 C 1,6 km/h (1 Bft) 91,49 %
11.08.2016 07:52 10,3 C 96 % 1022,5 hPa 0,0 l/m 1,3 km/h (1 Bft) O-SO 113 0 min 0,000 mm 0,0 UV-I 94 W/m 9,7 C 10,3 C 3,2 km/h (1 Bft) 97,87 %
11.08.2016 07:54 10,4 C 96 % 1022,6 hPa 0,0 l/m 1,3 km/h (1 Bft) O-SO 113 0 min 0,000 mm 0,0 UV-I 78 W/m 9,8 C 10,4 C 1,6 km/h (1 Bft) 98,00 %
11.08.2016 07:56 10,5 C 96 % 1022,6 hPa 0,0 l/m 1,2 km/h (1 Bft) O-SO 113 0 min 0,000 mm 0,0 UV-I 72 W/m 9,9 C 10,5 C 3,2 km/h (1 Bft) 95,74 %
11.08.2016 07:58 10,6 C 96 % 1022,7 hPa 0,0 l/m 0,9 km/h (0 Bft) O-SO 113 0 min 0,000 mm 0,0 UV-I 70 W/m 10,0 C 10,6 C 1,6 km/h (1 Bft) 97,73 %
11.08.2016 08:00 10,6 C 95 % 1022,7 hPa 0,0 l/m 1,5 km/h (1 Bft) O-SO 113 0 min 0,025 mm 0,0 UV-I 70 W/m 9,8 C 10,6 C 3,2 km/h (1 Bft) 100,00 %
11.08.2016 08:02 10,6 C 95 % 1022,7 hPa 0,0 l/m 1,7 km/h (1 Bft) O-SO 113 0 min 0,000 mm 0,0 UV-I 72 W/m 9,8 C 10,6 C 3,2 km/h (1 Bft) 100,00 %
11.08.2016 08:04 10,6 C 95 % 1022,7 hPa 0,0 l/m 1,3 km/h (1 Bft) O-SO 113 0 min 0,000 mm 0,0 UV-I 75 W/m 9,8 C 10,6 C 3,2 km/h (1 Bft) 100,00 %
11.08.2016 08:06 10,6 C 95 % 1022,7 hPa 0,0 l/m 1,3 km/h (1 Bft) O-SO 113 0 min 0,000 mm 0,0 UV-I 78 W/m 9,8 C 10,6 C 3,2 km/h (1 Bft) 98,00 %
11.08.2016 08:08 10,7 C 95 % 1022,6 hPa 0,0 l/m 0,8 km/h (0 Bft) O-SO 113 0 min 0,000 mm 0,0 UV-I 82 W/m 9,9 C 10,7 C 3,2 km/h (1 Bft) 100,00 %
11.08.2016 08:10 10,6 C 94 % 1022,7 hPa 0,0 l/m 0,0 km/h (0 Bft) O-SO 113 0 min 0,000 mm 0,0 UV-I 91 W/m 9,7 C 10,6 C 1,6 km/h (1 Bft) 100,00 %
11.08.2016 08:12 10,6 C 94 % 1022,7 hPa 0,0 l/m 0,1 km/h (0 Bft) O-SO 113 0 min 0,000 mm 0,0 UV-I 101 W/m 9,7 C 10,6 C 1,6 km/h (1 Bft) 100,00 %
11.08.2016 08:14 10,6 C 95 % 1022,7 hPa 0,0 l/m 0,8 km/h (0 Bft) O-SO 113 0 min 0,000 mm 0,0 UV-I 105 W/m 9,8 C 10,6 C 3,2 km/h (1 Bft) 100,00 %
11.08.2016 08:16 10,7 C 95 % 1022,7 hPa 0,0 l/m 0,8 km/h (0 Bft) O-SO 113 0 min 0,000 mm 0,0 UV-I 105 W/m 9,9 C 10,7 C 1,6 km/h (1 Bft) 98,11 %
11.08.2016 08:18 10,7 C 95 % 1022,7 hPa 0,0 l/m 1,7 km/h (1 Bft) O-SO 113 0 min 0,000 mm 0,0 UV-I 104 W/m 9,9 C 10,7 C 3,2 km/h (1 Bft) 100,00 %
11.08.2016 08:20 10,8 C 94 % 1022,7 hPa 0,0 l/m 1,7 km/h (1 Bft) O-SO 113 0 min 0,000 mm 0,0 UV-I 103 W/m 9,9 C 10,8 C 3,2 km/h (1 Bft) 97,44 %
11.08.2016 08:22 10,8 C 95 % 1022,8 hPa 0,0 l/m 1,5 km/h (1 Bft) O-SO 113 0 min 0,000 mm 0,0 UV-I 93 W/m 10,0 C 10,8 C 3,2 km/h (1 Bft) 100,00 %
11.08.2016 08:24 10,8 C 94 % 1022,9 hPa 0,0 l/m 2,0 km/h (1 Bft) NW 324 0 min 0,000 mm 0,0 UV-I 77 W/m 9,9 C 10,8 C 3,2 km/h (1 Bft) 100,00 %
11.08.2016 08:26 10,8 C 94 % 1022,9 hPa 0,0 l/m 1,9 km/h (1 Bft) NW 320 0 min 0,000 mm 0,0 UV-I 61 W/m 9,9 C 10,8 C 4,8 km/h (1 Bft) 100,00 %
11.08.2016 08:28 10,8 C 94 % 1022,9 hPa 0,0 l/m 2,8 km/h (1 Bft) W-SW 258 0 min 0,000 mm 0,0 UV-I 53 W/m 9,9 C 10,8 C 4,8 km/h (1 Bft) 100,00 %
11.08.2016 08:30 10,9 C 94 % 1022,9 hPa 0,0 l/m 2,1 km/h (1 Bft) W 267 0 min 0,000 mm 0,0 UV-I 53 W/m 10,0 C 10,9 C 3,2 km/h (1 Bft) 100,00 %
11.08.2016 08:32 10,9 C 95 % 1022,9 hPa 0,0 l/m 0,7 km/h (0 Bft) W 267 0 min 0,000 mm 0,0 UV-I 56 W/m 10,1 C 10,9 C 3,2 km/h (1 Bft) 100,00 %
11.08.2016 08:34 10,9 C 95 % 1023,0 hPa 0,0 l/m 0,2 km/h (0 Bft) W 267 0 min 0,000 mm 0,0 UV-I 62 W/m 10,1 C 10,9 C 1,6 km/h (1 Bft) 100,00 %
11.08.2016 08:36 10,9 C 95 % 1023,1 hPa 0,0 l/m 0,8 km/h (0 Bft) W 267 0 min 0,000 mm 0,0 UV-I 68 W/m 10,1 C 10,9 C 3,2 km/h (1 Bft) 97,87 %
11.08.2016 08:38 10,9 C 95 % 1023,0 hPa 0,0 l/m 1,7 km/h (1 Bft) W 267 0 min 0,000 mm 0,0 UV-I 74 W/m 10,1 C 10,9 C 3,2 km/h (1 Bft) 100,00 %
11.08.2016 08:40 10,9 C 95 % 1023,1 hPa 0,0 l/m 2,0 km/h (1 Bft) W 273 0 min 0,000 mm 0,0 UV-I 85 W/m 10,1 C 10,9 C 4,8 km/h (1 Bft) 98,00 %
11.08.2016 08:42 10,9 C 94 % 1023,1 hPa 0,0 l/m 0,3 km/h (0 Bft) W 273 0 min 0,000 mm 0,0 UV-I 87 W/m 10,0 C 10,9 C 1,6 km/h (1 Bft) 97,37 %
11.08.2016 08:44 10,9 C 95 % 1023,1 hPa 0,0 l/m 0,2 km/h (0 Bft) W 273 0 min 0,000 mm 0,0 UV-I 83 W/m 10,1 C 10,9 C 1,6 km/h (1 Bft) 100,00 %
11.08.2016 08:46 11,0 C 95 % 1023,1 hPa 0,0 l/m 0,6 km/h (0 Bft) W 273 0 min 0,000 mm 0,0 UV-I 86 W/m 10,2 C 11,0 C 1,6 km/h (1 Bft) 97,56 %
11.08.2016 08:48 11,0 C 95 % 1023,2 hPa 0,0 l/m 1,8 km/h (1 Bft) W 274 0 min 0,000 mm 0,0 UV-I 88 W/m 10,2 C 11,0 C 4,8 km/h (1 Bft) 97,87 %
11.08.2016 08:50 10,9 C 95 % 1023,1 hPa 0,0 l/m 1,5 km/h (1 Bft) W 274 0 min 0,000 mm 0,0 UV-I 88 W/m 10,1 C 10,9 C 3,2 km/h (1 Bft) 98,00 %
11.08.2016 08:52 10,9 C 95 % 1023,1 hPa 0,0 l/m 2,2 km/h (1 Bft) W 277 0 min 0,000 mm 0,0 UV-I 90 W/m 10,1 C 10,9 C 6,4 km/h (2 Bft) 100,00 %
11.08.2016 08:54 10,9 C 95 % 1023,1 hPa 0,0 l/m 2,0 km/h (1 Bft) W-NW 303 0 min 0,000 mm 0,0 UV-I 98 W/m 10,1 C 10,9 C 4,8 km/h (1 Bft) 100,00 %
11.08.2016 08:56 10,9 C 94 % 1023,1 hPa 0,0 l/m 3,2 km/h (1 Bft) W 264 0 min 0,000 mm 0,0 UV-I 102 W/m 10,0 C 10,9 C 6,4 km/h (2 Bft) 100,00 %
11.08.2016 08:58 11,0 C 95 % 1023,1 hPa 0,0 l/m 3,2 km/h (1 Bft) W 262 0 min 0,000 mm 0,0 UV-I 99 W/m 10,2 C 11,0 C 6,4 km/h (2 Bft) 100,00 %
11.08.2016 09:00 11,0 C 94 % 1023,1 hPa 0,0 l/m 3,1 km/h (1 Bft) W 264 0 min 0,051 mm 0,0 UV-I 93 W/m 10,1 C 11,0 C 4,8 km/h (1 Bft) 100,00 %
11.08.2016 09:02 11,0 C 94 % 1023,2 hPa 0,0 l/m 3,9 km/h (1 Bft) W 259 0 min 0,000 mm 0,0 UV-I 86 W/m 10,1 C 11,0 C 6,4 km/h (2 Bft) 97,87 %
11.08.2016 09:04 11,1 C 95 % 1023,1 hPa 0,0 l/m 3,0 km/h (1 Bft) W-NW 298 0 min 0,000 mm 0,0 UV-I 78 W/m 10,3 C 11,1 C 4,8 km/h (1 Bft) 100,00 %
11.08.2016 09:06 11,1 C 95 % 1023,1 hPa 0,0 l/m 2,3 km/h (1 Bft) W-NW 298 0 min 0,000 mm 0,0 UV-I 81 W/m 10,3 C 11,1 C 4,8 km/h (1 Bft) 100,00 %
11.08.2016 09:08 11,1 C 95 % 1023,1 hPa 0,0 l/m 1,9 km/h (1 Bft) W 273 0 min 0,000 mm 0,0 UV-I 90 W/m 10,3 C 11,1 C 4,8 km/h (1 Bft) 97,92 %
11.08.2016 09:10 11,1 C 95 % 1023,1 hPa 0,0 l/m 2,0 km/h (1 Bft) W 264 0 min 0,000 mm 0,1 UV-I 105 W/m 10,3 C 11,1 C 4,8 km/h (1 Bft) 97,87 %
11.08.2016 09:12 11,0 C 94 % 1023,2 hPa 0,0 l/m 1,9 km/h (1 Bft) W 281 0 min 0,000 mm 0,5 UV-I 117 W/m 10,1 C 11,0 C 4,8 km/h (1 Bft) 97,37 %
11.08.2016 09:14 11,0 C 94 % 1023,2 hPa 0,0 l/m 1,9 km/h (1 Bft) W 279 0 min 0,000 mm 0,6 UV-I 127 W/m 10,1 C 11,0 C 3,2 km/h (1 Bft) 100,00 %
11.08.2016 09:16 11,1 C 94 % 1023,2 hPa 0,0 l/m 2,8 km/h (1 Bft) N-NW 339 0 min 0,000 mm 0,6 UV-I 132 W/m 10,2 C 11,1 C 4,8 km/h (1 Bft) 98,00 %
11.08.2016 09:18 11,2 C 94 % 1023,2 hPa 0,0 l/m 3,0 km/h (1 Bft) W 263 0 min 0,000 mm 0,6 UV-I 138 W/m 10,3 C 11,2 C 4,8 km/h (1 Bft) 98,00 %
11.08.2016 09:20 11,2 C 94 % 1023,2 hPa 0,0 l/m 1,5 km/h (1 Bft) W 263 0 min 0,000 mm 0,7 UV-I 152 W/m 10,3 C 11,2 C 3,2 km/h (1 Bft) 100,00 %
11.08.2016 09:22 11,2 C 94 % 1023,2 hPa 0,0 l/m 0,3 km/h (0 Bft) W 263 0 min 0,000 mm 0,9 UV-I 176 W/m 10,3 C 11,2 C 3,2 km/h (1 Bft) 96,00 %
11.08.2016 09:24 11,2 C 94 % 1023,2 hPa 0,0 l/m 4,9 km/h (1 Bft) W 259 0 min 0,000 mm 1,0 UV-I 211 W/m 10,3 C 11,2 C 8,0 km/h (2 Bft) 97,14 %
11.08.2016 09:26 11,3 C 94 % 1023,2 hPa 0,0 l/m 2,7 km/h (1 Bft) W-SW 239 0 min 0,000 mm 1,1 UV-I 246 W/m 10,4 C 11,3 C 6,4 km/h (2 Bft) 98,21 %
11.08.2016 09:28 11,3 C 93 % 1023,2 hPa 0,0 l/m 3,7 km/h (1 Bft) W 262 0 min 0,000 mm 1,1 UV-I 223 W/m 10,2 C 11,3 C 9,7 km/h (2 Bft) 96,00 %
11.08.2016 09:30 11,4 C 93 % 1023,3 hPa 0,0 l/m 3,4 km/h (1 Bft) W-SW 252 0 min 0,000 mm 1,1 UV-I 213 W/m 10,3 C 11,4 C 4,8 km/h (1 Bft) 97,37 %
11.08.2016 09:32 11,4 C 93 % 1023,2 hPa 0,0 l/m 3,4 km/h (1 Bft) W 259 0 min 0,000 mm 1,1 UV-I 229 W/m 10,3 C 11,4 C 6,4 km/h (2 Bft) 94,00 %
11.08.2016 09:34 11,5 C 93 % 1023,2 hPa 0,0 l/m 4,2 km/h (1 Bft) SW 234 0 min 0,000 mm 1,3 UV-I 257 W/m 10,4 C 11,5 C 6,4 km/h (2 Bft) 98,00 %
11.08.2016 09:36 11,6 C 94 % 1023,2 hPa 0,0 l/m 3,0 km/h (1 Bft) SW 234 0 min 0,000 mm 1,3 UV-I 286 W/m 10,7 C 11,6 C 4,8 km/h (1 Bft) 94,29 %
11.08.2016 09:38 11,7 C 93 % 1023,2 hPa 0,0 l/m 2,4 km/h (1 Bft) SW 235 0 min 0,000 mm 1,3 UV-I 256 W/m 10,6 C 11,7 C 4,8 km/h (1 Bft) 96,00 %
11.08.2016 09:40 11,8 C 94 % 1023,2 hPa 0,0 l/m 5,6 km/h (1 Bft) SW 229 0 min 0,000 mm 1,3 UV-I 239 W/m 10,9 C 11,8 C 8,0 km/h (2 Bft) 98,21 %
11.08.2016 09:42 11,8 C 93 % 1023,3 hPa 0,0 l/m 5,2 km/h (1 Bft) SW 236 0 min 0,000 mm 1,4 UV-I 278 W/m 10,7 C 11,8 C 8,0 km/h (2 Bft) 97,44 %
11.08.2016 09:44 11,8 C 93 % 1023,2 hPa 0,0 l/m 4,8 km/h (1 Bft) SW 232 2 min 0,000 mm 1,8 UV-I 364 W/m 10,7 C 11,8 C 6,4 km/h (2 Bft) 97,87 %
11.08.2016 09:46 11,9 C 92 % 1023,2 hPa 0,0 l/m 4,6 km/h (1 Bft) W-SW 255 2 min 0,000 mm 1,7 UV-I 348 W/m 10,6 C 11,9 C 8,0 km/h (2 Bft) 94,00 %
11.08.2016 09:48 12,1 C 93 % 1023,2 hPa 0,0 l/m 4,2 km/h (1 Bft) W-SW 256 0 min 0,000 mm 1,5 UV-I 220 W/m 11,0 C 12,1 C 6,4 km/h (2 Bft) 96,00 %
11.08.2016 09:50 12,1 C 92 % 1023,2 hPa 0,0 l/m 3,1 km/h (1 Bft) W-SW 256 0 min 0,000 mm 1,9 UV-I 258 W/m 10,8 C 12,1 C 4,8 km/h (1 Bft) 97,87 %
11.08.2016 09:52 12,2 C 93 % 1023,2 hPa 0,0 l/m 3,2 km/h (1 Bft) W-SW 247 2 min 0,000 mm 2,0 UV-I 411 W/m 11,1 C 12,2 C 4,8 km/h (1 Bft) 95,74 %
11.08.2016 09:54 12,3 C 92 % 1023,3 hPa 0,0 l/m 3,1 km/h (1 Bft) W-SW 255 2 min 0,000 mm 2,0 UV-I 423 W/m 11,0 C 12,3 C 6,4 km/h (2 Bft) 97,56 %
11.08.2016 09:56 12,5 C 92 % 1023,3 hPa 0,0 l/m 2,2 km/h (1 Bft) W-SW 250 0 min 0,000 mm 1,8 UV-I 284 W/m 11,2 C 12,5 C 6,4 km/h (2 Bft) 98,11 %
11.08.2016 09:58 12,5 C 91 % 1023,3 hPa 0,0 l/m 5,7 km/h (1 Bft) W-SW 250 0 min 0,000 mm 1,9 UV-I 307 W/m 11,1 C 12,5 C 9,7 km/h (2 Bft) 98,00 %
11.08.2016 10:00 12,5 C 90 % 1023,3 hPa 0,0 l/m 4,9 km/h (1 Bft) W-SW 240 2 min 0,127 mm 2,1 UV-I 520 W/m 10,9 C 12,5 C 8,0 km/h (2 Bft) 97,73 %
11.08.2016 10:02 12,7 C 91 % 1023,3 hPa 0,0 l/m 5,1 km/h (1 Bft) SW 233 2 min 0,000 mm 2,3 UV-I 564 W/m 11,3 C 12,7 C 9,7 km/h (2 Bft) 97,87 %
11.08.2016 10:04 12,8 C 90 % 1023,3 hPa 0,0 l/m 6,6 km/h (2 Bft) W 264 2 min 0,000 mm 2,1 UV-I 564 W/m 11,2 C 12,7 C 9,7 km/h (2 Bft) 97,87 %
11.08.2016 10:06 12,9 C 90 % 1023,3 hPa 0,0 l/m 6,0 km/h (2 Bft) W 272 2 min 0,000 mm 2,2 UV-I 603 W/m 11,3 C 12,9 C 12,9 km/h (3 Bft) 97,87 %
11.08.2016 10:08 12,9 C 88 % 1023,3 hPa 0,0 l/m 6,8 km/h (2 Bft) SW 215 2 min 0,000 mm 2,1 UV-I 672 W/m 11,0 C 12,7 C 12,9 km/h (3 Bft) 100,00 %
11.08.2016 10:10 12,9 C 88 % 1023,3 hPa 0,0 l/m 4,1 km/h (1 Bft) W 267 0 min 0,000 mm 2,1 UV-I 342 W/m 11,0 C 12,9 C 6,4 km/h (2 Bft) 98,11 %
11.08.2016 10:12 13,0 C 87 % 1023,3 hPa 0,0 l/m 4,3 km/h (1 Bft) W-NW 287 2 min 0,000 mm 2,7 UV-I 726 W/m 10,9 C 13,0 C 9,7 km/h (2 Bft) 100,00 %
11.08.2016 10:14 13,2 C 86 % 1023,3 hPa 0,0 l/m 4,4 km/h (1 Bft) S-SW 213 2 min 0,000 mm 2,7 UV-I 824 W/m 10,9 C 13,2 C 8,0 km/h (2 Bft) 97,73 %
11.08.2016 10:16 13,1 C 85 % 1023,3 hPa 0,0 l/m 4,9 km/h (1 Bft) W-SW 247 2 min 0,000 mm 1,8 UV-I 421 W/m 10,6 C 13,1 C 8,0 km/h (2 Bft) 97,22 %
11.08.2016 10:18 13,1 C 87 % 1023,3 hPa 0,0 l/m 3,0 km/h (1 Bft) W-SW 240 0 min 0,000 mm 2,0 UV-I 310 W/m 11,0 C 13,1 C 6,4 km/h (2 Bft) 100,00 %
11.08.2016 10:20 13,4 C 86 % 1023,3 hPa 0,0 l/m 2,7 km/h (1 Bft) W 263 2 min 0,000 mm 2,8 UV-I 632 W/m 11,1 C 13,4 C 4,8 km/h (1 Bft) 100,00 %
11.08.2016 10:22 13,8 C 86 % 1023,3 hPa 0,0 l/m 1,4 km/h (1 Bft) W-NW 298 2 min 0,000 mm 2,7 UV-I 801 W/m 11,5 C 13,8 C 3,2 km/h (1 Bft) 100,00 %
11.08.2016 10:24 13,8 C 80 % 1023,2 hPa 0,0 l/m 3,1 km/h (1 Bft) NW 313 2 min 0,000 mm 2,6 UV-I 798 W/m 10,4 C 13,8 C 4,8 km/h (1 Bft) 97,87 %
11.08.2016 10:26 13,8 C 82 % 1023,3 hPa 0,0 l/m 2,0 km/h (1 Bft) NW 314 2 min 0,000 mm 2,2 UV-I 526 W/m 10,8 C 13,8 C 4,8 km/h (1 Bft) 100,00 %
11.08.2016 10:28 13,7 C 82 % 1023,2 hPa 0,0 l/m 1,5 km/h (1 Bft) NW 315 0 min 0,000 mm 2,1 UV-I 346 W/m 10,7 C 13,7 C 3,2 km/h (1 Bft) 100,00 %
11.08.2016 10:30 13,6 C 83 % 1023,2 hPa 0,0 l/m 3,8 km/h (1 Bft) W 259 0 min 0,000 mm 1,9 UV-I 241 W/m 10,8 C 13,6 C 9,7 km/h (2 Bft) 100,00 %
11.08.2016 10:32 13,5 C 81 % 1023,2 hPa 0,0 l/m 3,0 km/h (1 Bft) W 259 0 min 0,000 mm 2,2 UV-I 245 W/m 10,3 C 13,5 C 4,8 km/h (1 Bft) 100,00 %
11.08.2016 10:34 13,7 C 83 % 1023,2 hPa 0,0 l/m 1,1 km/h (1 Bft) W 259 2 min 0,000 mm 3,1 UV-I 702 W/m 10,9 C 13,7 C 3,2 km/h (1 Bft) 100,00 %
11.08.2016 10:36 13,7 C 82 % 1023,2 hPa 0,0 l/m 1,1 km/h (1 Bft) W 269 2 min 0,000 mm 2,8 UV-I 752 W/m 10,7 C 13,7 C 3,2 km/h (1 Bft) 100,00 %
11.08.2016 10:38 13,8 C 82 % 1023,2 hPa 0,0 l/m 2,8 km/h (1 Bft) N 360 2 min 0,000 mm 3,0 UV-I 755 W/m 10,8 C 13,8 C 4,8 km/h (1 Bft) 100,00 %
11.08.2016 10:40 13,7 C 79 % 1023,2 hPa 0,0 l/m 2,0 km/h (1 Bft) N-NW 346 2 min 0,000 mm 3,0 UV-I 759 W/m 10,1 C 13,7 C 3,2 km/h (1 Bft) 97,56 %
11.08.2016 10:42 13,8 C 81 % 1023,3 hPa 0,0 l/m 2,6 km/h (1 Bft) NW 306 2 min 0,000 mm 3,5 UV-I 773 W/m 10,6 C 13,8 C 4,8 km/h (1 Bft) 100,00 %
11.08.2016 10:44 14,2 C 82 % 1023,3 hPa 0,0 l/m 1,1 km/h (1 Bft) NW 306 2 min 0,000 mm 3,6 UV-I 805 W/m 11,2 C 14,2 C 3,2 km/h (1 Bft) 100,00 %
11.08.2016 10:46 14,3 C 76 % 1023,2 hPa 0,0 l/m 2,9 km/h (1 Bft) S-SW 196 2 min 0,000 mm 3,6 UV-I 836 W/m 10,1 C 14,3 C 4,8 km/h (1 Bft) 100,00 %
11.08.2016 10:48 14,3 C 75 % 1023,2 hPa 0,0 l/m 3,4 km/h (1 Bft) W-SW 242 2 min 0,000 mm 3,7 UV-I 881 W/m 9,9 C 14,3 C 6,4 km/h (2 Bft) 100,00 %
11.08.2016 10:50 14,4 C 77 % 1023,2 hPa 0,0 l/m 4,7 km/h (1 Bft) W-SW 245 2 min 0,000 mm 3,3 UV-I 923 W/m 10,4 C 14,4 C 11,3 km/h (2 Bft) 97,14 %
11.08.2016 10:52 14,4 C 75 % 1023,2 hPa 0,0 l/m 5,1 km/h (1 Bft) W-SW 247 0 min 0,000 mm 2,0 UV-I 359 W/m 10,0 C 14,4 C 8,0 km/h (2 Bft) 100,00 %
11.08.2016 10:54 14,3 C 74 % 1023,1 hPa 0,0 l/m 3,9 km/h (1 Bft) W 268 0 min 0,000 mm 2,2 UV-I 287 W/m 9,7 C 14,3 C 4,8 km/h (1 Bft) 100,00 %
11.08.2016 10:56 14,1 C 74 % 1023,1 hPa 0,0 l/m 3,0 km/h (1 Bft) W 269 0 min 0,000 mm 1,7 UV-I 209 W/m 9,5 C 14,1 C 6,4 km/h (2 Bft) 100,00 %
11.08.2016 10:58 13,8 C 79 % 1023,1 hPa 0,0 l/m 3,4 km/h (1 Bft) W 266 0 min 0,000 mm 1,7 UV-I 221 W/m 10,2 C 13,8 C 9,7 km/h (2 Bft) 100,00 %
11.08.2016 11:00 13,8 C 82 % 1023,1 hPa 0,0 l/m 2,0 km/h (1 Bft) W 277 0 min 0,000 mm 1,7 UV-I 240 W/m 10,8 C 13,8 C 3,2 km/h (1 Bft) 100,00 %
11.08.2016 11:02 13,7 C 81 % 1023,2 hPa 0,0 l/m 4,0 km/h (1 Bft) W 265 0 min 0,280 mm 1,9 UV-I 270 W/m 10,5 C 13,7 C 6,4 km/h (2 Bft) 100,00 %
11.08.2016 11:04 13,8 C 79 % 1023,2 hPa 0,0 l/m 1,6 km/h (1 Bft) W-NW 299 0 min 0,000 mm 2,0 UV-I 305 W/m 10,2 C 13,8 C 3,2 km/h (1 Bft) 100,00 %
11.08.2016 11:06 14,0 C 81 % 1023,2 hPa 0,0 l/m 1,0 km/h (0 Bft) W 277 2 min 0,000 mm 2,1 UV-I 419 W/m 10,8 C 14,0 C 3,2 km/h (1 Bft) 100,00 %
11.08.2016 11:08 14,1 C 78 % 1023,2 hPa 0,0 l/m 4,9 km/h (1 Bft) W 280 0 min 0,000 mm 1,8 UV-I 327 W/m 10,3 C 14,1 C 9,7 km/h (2 Bft) 100,00 %
11.08.2016 11:10 14,1 C 80 % 1023,2 hPa 0,0 l/m 5,4 km/h (1 Bft) W-SW 248 0 min 0,000 mm 1,7 UV-I 259 W/m 10,7 C 14,1 C 9,7 km/h (2 Bft) 98,11 %
11.08.2016 11:12 14,0 C 80 % 1023,2 hPa 0,0 l/m 4,0 km/h (1 Bft) SW 232 0 min 0,000 mm 1,6 UV-I 170 W/m 10,6 C 14,0 C 6,4 km/h (2 Bft) 95,12 %
11.08.2016 11:14 13,9 C 80 % 1023,2 hPa 0,0 l/m 4,3 km/h (1 Bft) W-SW 242 0 min 0,000 mm 1,9 UV-I 140 W/m 10,5 C 13,9 C 6,4 km/h (2 Bft) 100,00 %
11.08.2016 11:16 13,8 C 81 % 1023,2 hPa 0,0 l/m 3,5 km/h (1 Bft) W 269 0 min 0,000 mm 2,2 UV-I 166 W/m 10,6 C 13,8 C 6,4 km/h (2 Bft) 98,11 %
11.08.2016 11:18 14,0 C 82 % 1023,1 hPa 0,0 l/m 7,1 km/h (2 Bft) W-SW 246 2 min 0,000 mm 3,8 UV-I 564 W/m 11,0 C 13,6 C 11,3 km/h (2 Bft) 97,37 %
11.08.2016 11:20 14,3 C 82 % 1023,2 hPa 0,0 l/m 4,6 km/h (1 Bft) W-SW 254 2 min 0,000 mm 4,1 UV-I 860 W/m 11,3 C 14,3 C 8,0 km/h (2 Bft) 98,11 %
11.08.2016 11:22 14,6 C 79 % 1023,1 hPa 0,0 l/m 4,0 km/h (1 Bft) W 281 2 min 0,000 mm 4,2 UV-I 891 W/m 11,0 C 14,6 C 9,7 km/h (2 Bft) 95,12 %
11.08.2016 11:24 14,6 C 77 % 1023,1 hPa 0,0 l/m 2,6 km/h (1 Bft) W 281 2 min 0,000 mm 3,4 UV-I 499 W/m 10,6 C 14,6 C 4,8 km/h (1 Bft) 97,87 %
11.08.2016 11:26 14,6 C 80 % 1023,1 hPa 0,0 l/m 2,3 km/h (1 Bft) SW 227 2 min 0,000 mm 2,5 UV-I 499 W/m 11,2 C 14,6 C 4,8 km/h (1 Bft) 98,11 %
11.08.2016 11:28 14,7 C 77 % 1023,1 hPa 0,0 l/m 3,8 km/h (1 Bft) S-SW 207 0 min 0,000 mm 1,9 UV-I 252 W/m 10,7 C 14,7 C 11,3 km/h (2 Bft) 98,00 %
11.08.2016 11:30 14,7 C 80 % 1023,1 hPa 0,0 l/m 7,4 km/h (2 Bft) S-SW 210 0 min 0,000 mm 2,0 UV-I 215 W/m 11,3 C 14,1 C 12,9 km/h (3 Bft) 97,37 %
11.08.2016 11:32 14,6 C 80 % 1023,1 hPa 0,0 l/m 7,6 km/h (2 Bft) SW 234 0 min 0,000 mm 2,5 UV-I 259 W/m 11,2 C 13,9 C 12,9 km/h (3 Bft) 97,87 %
11.08.2016 11:34 14,4 C 78 % 1023,1 hPa 0,0 l/m 8,3 km/h (2 Bft) SW 214 2 min 0,000 mm 2,8 UV-I 833 W/m 10,6 C 13,3 C 16,1 km/h (3 Bft) 97,87 %
11.08.2016 11:36 14,5 C 80 % 1023,1 hPa 0,0 l/m 6,8 km/h (2 Bft) W-SW 243 2 min 0,000 mm 3,8 UV-I 914 W/m 11,1 C 14,3 C 17,7 km/h (3 Bft) 95,74 %
11.08.2016 11:38 14,8 C 82 % 1023,1 hPa 0,0 l/m 9,5 km/h (2 Bft) W-SW 250 2 min 0,000 mm 4,4 UV-I 904 W/m 11,8 C 13,1 C 17,7 km/h (3 Bft) 98,11 %
11.08.2016 11:40 15,3 C 79 % 1023,1 hPa 0,0 l/m 5,5 km/h (1 Bft) SW 227 2 min 0,000 mm 4,5 UV-I 868 W/m 11,7 C 15,3 C 12,9 km/h (3 Bft) 97,62 %
11.08.2016 11:42 15,6 C 76 % 1023,1 hPa 0,0 l/m 10,5 km/h (2 Bft) SW 232 2 min 0,000 mm 4,7 UV-I 865 W/m 11,4 C 13,6 C 14,5 km/h (3 Bft) 98,08 %
11.08.2016 11:44 15,7 C 74 % 1023,1 hPa 0,0 l/m 3,5 km/h (1 Bft) W-NW 298 2 min 0,000 mm 4,7 UV-I 860 W/m 11,1 C 15,7 C 8,0 km/h (2 Bft) 97,44 %
11.08.2016 11:46 15,8 C 75 % 1023,0 hPa 0,0 l/m 5,0 km/h (1 Bft) W-SW 238 2 min 0,000 mm 4,8 UV-I 866 W/m 11,4 C 15,8 C 11,3 km/h (2 Bft) 98,00 %
11.08.2016 11:48 15,8 C 76 % 1023,0 hPa 0,0 l/m 5,5 km/h (1 Bft) W 260 2 min 0,000 mm 4,3 UV-I 812 W/m 11,6 C 15,8 C 16,1 km/h (3 Bft) 93,62 %
11.08.2016 11:50 15,7 C 73 % 1023,1 hPa 0,0 l/m 9,4 km/h (2 Bft) SW 219 2 min 0,000 mm 4,9 UV-I 877 W/m 10,9 C 14,2 C 16,1 km/h (3 Bft) 95,74 %
11.08.2016 11:52 15,7 C 71 % 1023,1 hPa 0,0 l/m 12,0 km/h (2 Bft) W-SW 252 2 min 0,000 mm 5,0 UV-I 950 W/m 10,5 C 13,1 C 17,7 km/h (3 Bft) 95,12 %
11.08.2016 11:54 15,8 C 71 % 1023,1 hPa 0,0 l/m 12,5 km/h (3 Bft) W-SW 246 2 min 0,000 mm 4,7 UV-I 985 W/m 10,6 C 13,0 C 17,7 km/h (3 Bft) 98,15 %
11.08.2016 11:56 15,7 C 72 % 1023,1 hPa 0,0 l/m 10,6 km/h (2 Bft) W-SW 253 2 min 0,000 mm 2,5 UV-I 956 W/m 10,7 C 13,6 C 14,5 km/h (3 Bft) 98,11 %
11.08.2016 11:58 15,4 C 70 % 1023,1 hPa 0,0 l/m 10,8 km/h (2 Bft) SW 233 0 min 0,000 mm 1,4 UV-I 263 W/m 10,0 C 13,2 C 16,1 km/h (3 Bft) 95,12 %
11.08.2016 12:00 15,1 C 73 % 1023,1 hPa 0,0 l/m 13,6 km/h (3 Bft) SW 227 0 min 0,279 mm 1,3 UV-I 143 W/m 10,3 C 11,8 C 20,9 km/h (4 Bft) 100,00 %
11.08.2016 12:02 14,9 C 75 % 1023,1 hPa 0,0 l/m 10,9 km/h (2 Bft) W 259 0 min 0,000 mm 1,4 UV-I 151 W/m 10,5 C 12,6 C 17,7 km/h (3 Bft) 100,00 %
11.08.2016 12:04 14,7 C 74 % 1023,1 hPa 0,0 l/m 14,3 km/h (3 Bft) W 267 0 min 0,000 mm 1,6 UV-I 167 W/m 10,1 C 11,1 C 22,5 km/h (4 Bft) 100,00 %
11.08.2016 12:06 14,6 C 77 % 1023,2 hPa 0,0 l/m 11,7 km/h (2 Bft) SW 233 0 min 0,000 mm 1,9 UV-I 222 W/m 10,6 C 11,9 C 16,1 km/h (3 Bft) 98,21 %
11.08.2016 12:08 14,5 C 77 % 1023,1 hPa 0,0 l/m 19,4 km/h (3 Bft) SW 232 0 min 0,000 mm 1,8 UV-I 264 W/m 10,5 C 9,3 C 35,4 km/h (5 Bft) 100,00 %
11.08.2016 12:10 14,1 C 74 % 1023,1 hPa 0,2 l/m 22,3 km/h (4 Bft) S 186 0 min 0,000 mm 1,5 UV-I 195 W/m 9,5 C 8,0 C 37,0 km/h (5 Bft) 100,00 %
11.08.2016 12:12 13,7 C 73 % 1023,2 hPa 0,0 l/m 19,6 km/h (3 Bft) W-SW 252 0 min 0,000 mm 1,7 UV-I 214 W/m 8,9 C 8,2 C 32,2 km/h (5 Bft) 95,45 %
11.08.2016 12:14 13,3 C 76 % 1023,2 hPa 0,0 l/m 13,8 km/h (3 Bft) SW 222 0 min 0,000 mm 2,3 UV-I 275 W/m 9,2 C 9,6 C 20,9 km/h (4 Bft) 100,00 %
11.08.2016 12:16 13,4 C 77 % 1023,2 hPa 0,0 l/m 15,6 km/h (3 Bft) SW 226 0 min 0,000 mm 4,2 UV-I 301 W/m 9,5 C 9,0 C 25,7 km/h (4 Bft) 100,00 %
11.08.2016 12:18 13,6 C 76 % 1023,2 hPa 0,0 l/m 14,4 km/h (3 Bft) S-SW 202 0 min 0,000 mm 2,4 UV-I 297 W/m 9,4 C 9,7 C 22,5 km/h (4 Bft) 100,00 %
11.08.2016 12:20 13,5 C 75 % 1023,2 hPa 0,0 l/m 17,2 km/h (3 Bft) S-SW 205 0 min 0,000 mm 1,9 UV-I 226 W/m 9,2 C 8,6 C 27,4 km/h (4 Bft) 97,44 %
11.08.2016 12:22 13,4 C 76 % 1023,2 hPa 0,0 l/m 12,7 km/h (3 Bft) SW 232 0 min 0,000 mm 2,1 UV-I 207 W/m 9,3 C 10,1 C 19,3 km/h (3 Bft) 100,00 %
11.08.2016 12:24 13,5 C 77 % 1023,2 hPa 0,0 l/m 11,9 km/h (2 Bft) S-SW 213 0 min 0,000 mm 3,1 UV-I 243 W/m 9,5 C 10,6 C 19,3 km/h (3 Bft) 100,00 %
11.08.2016 12:26 13,8 C 77 % 1023,2 hPa 0,0 l/m 12,0 km/h (2 Bft) SW 217 2 min 0,000 mm 5,0 UV-I 883 W/m 9,8 C 10,9 C 19,3 km/h (3 Bft) 100,00 %
11.08.2016 12:28 14,1 C 75 % 1023,2 hPa 0,0 l/m 12,9 km/h (3 Bft) SW 219 2 min 0,000 mm 4,2 UV-I 1034 W/m 9,7 C 10,9 C 22,5 km/h (4 Bft) 100,00 %
11.08.2016 12:30 14,2 C 76 % 1023,1 hPa 0,0 l/m 14,5 km/h (3 Bft) S-SW 195 2 min 0,000 mm 4,4 UV-I 1034 W/m 10,0 C 10,4 C 22,5 km/h (4 Bft) 100,00 %
11.08.2016 12:32 14,2 C 74 % 1023,1 hPa 0,0 l/m 11,8 km/h (2 Bft) S-SW 202 2 min 0,000 mm 3,9 UV-I 774 W/m 9,6 C 11,4 C 20,9 km/h (4 Bft) 100,00 %
11.08.2016 12:34 14,3 C 75 % 1023,1 hPa 0,0 l/m 13,6 km/h (3 Bft) SW 218 2 min 0,000 mm 4,7 UV-I 454 W/m 9,9 C 10,8 C 27,4 km/h (4 Bft) 97,37 %
11.08.2016 12:36 14,5 C 76 % 1023,1 hPa 0,0 l/m 12,3 km/h (3 Bft) W 261 2 min 0,000 mm 5,1 UV-I 936 W/m 10,3 C 11,6 C 19,3 km/h (3 Bft) 98,11 %
11.08.2016 12:38 14,7 C 74 % 1023,1 hPa 0,0 l/m 12,6 km/h (3 Bft) S 182 2 min 0,000 mm 5,2 UV-I 911 W/m 10,1 C 11,7 C 17,7 km/h (3 Bft) 100,00 %
11.08.2016 12:40 14,8 C 74 % 1023,1 hPa 0,0 l/m 14,5 km/h (3 Bft) SW 222 2 min 0,000 mm 5,2 UV-I 911 W/m 10,2 C 11,1 C 24,1 km/h (4 Bft) 100,00 %
11.08.2016 12:42 15,0 C 78 % 1023,1 hPa 0,0 l/m 9,8 km/h (2 Bft) W-SW 242 2 min 0,000 mm 5,2 UV-I 917 W/m 11,2 C 13,2 C 16,1 km/h (3 Bft) 100,00 %
11.08.2016 12:44 15,3 C 76 % 1023,0 hPa 0,0 l/m 9,4 km/h (2 Bft) W-SW 248 2 min 0,000 mm 5,4 UV-I 931 W/m 11,1 C 13,7 C 16,1 km/h (3 Bft) 100,00 %
11.08.2016 12:46 15,7 C 75 % 1023,0 hPa 0,0 l/m 7,1 km/h (2 Bft) W 260 2 min 0,000 mm 5,4 UV-I 940 W/m 11,3 C 15,3 C 17,7 km/h (3 Bft) 97,87 %
11.08.2016 12:48 16,0 C 70 % 1022,9 hPa 0,0 l/m 13,0 km/h (3 Bft) W 260 2 min 0,000 mm 5,4 UV-I 926 W/m 10,5 C 13,1 C 24,1 km/h (4 Bft) 100,00 %
11.08.2016 12:50 16,0 C 70 % 1022,9 hPa 0,0 l/m 15,1 km/h (3 Bft) S-SW 202 2 min 0,000 mm 5,4 UV-I 903 W/m 10,5 C 12,4 C 24,1 km/h (4 Bft) 100,00 %
11.08.2016 12:52 16,0 C 71 % 1022,9 hPa 0,0 l/m 12,2 km/h (2 Bft) W-SW 250 2 min 0,000 mm 5,4 UV-I 909 W/m 10,7 C 13,3 C 17,7 km/h (3 Bft) 100,00 %
11.08.2016 12:54 16,1 C 72 % 1022,9 hPa 0,0 l/m 11,9 km/h (2 Bft) SW 217 2 min 0,000 mm 5,3 UV-I 965 W/m 11,0 C 13,6 C 19,3 km/h (3 Bft) 98,08 %
11.08.2016 12:56 16,2 C 70 % 1022,9 hPa 0,0 l/m 12,3 km/h (3 Bft) S-SW 192 2 min 0,000 mm 4,4 UV-I 1013 W/m 10,7 C 13,5 C 16,1 km/h (3 Bft) 100,00 %
11.08.2016 12:58 15,9 C 70 % 1022,9 hPa 0,0 l/m 15,1 km/h (3 Bft) W-SW 242 2 min 0,000 mm 3,7 UV-I 871 W/m 10,4 C 12,3 C 24,1 km/h (4 Bft) 98,00 %
11.08.2016 13:00 15,8 C 71 % 1022,9 hPa 0,0 l/m 13,1 km/h (3 Bft) SW 225 2 min 0,000 mm 4,3 UV-I 533 W/m 10,6 C 12,8 C 20,9 km/h (4 Bft) 100,00 %
11.08.2016 13:02 16,1 C 72 % 1022,9 hPa 0,0 l/m 14,4 km/h (3 Bft) W-SW 245 2 min 0,356 mm 5,1 UV-I 1042 W/m 11,0 C 12,7 C 20,9 km/h (4 Bft) 100,00 %
11.08.2016 13:04 16,2 C 70 % 1022,8 hPa 0,0 l/m 13,2 km/h (3 Bft) W-SW 252 2 min 0,000 mm 5,2 UV-I 963 W/m 10,7 C 13,2 C 20,9 km/h (4 Bft) 100,00 %
11.08.2016 13:06 16,4 C 68 % 1022,8 hPa 0,0 l/m 14,9 km/h (3 Bft) S-SO 159 2 min 0,000 mm 5,3 UV-I 919 W/m 10,5 C 12,9 C 20,9 km/h (4 Bft) 100,00 %
11.08.2016 13:08 16,5 C 68 % 1022,8 hPa 0,0 l/m 7,5 km/h (2 Bft) N-NW 339 2 min 0,000 mm 5,3 UV-I 893 W/m 10,6 C 15,9 C 16,1 km/h (3 Bft) 100,00 %
11.08.2016 13:10 16,4 C 62 % 1022,8 hPa 0,0 l/m 7,5 km/h (2 Bft) SW 227 2 min 0,000 mm 5,3 UV-I 891 W/m 9,1 C 15,8 C 12,9 km/h (3 Bft) 100,00 %
11.08.2016 13:12 16,4 C 66 % 1022,8 hPa 0,0 l/m 7,7 km/h (2 Bft) N 349 2 min 0,000 mm 5,3 UV-I 911 W/m 10,0 C 15,7 C 19,3 km/h (3 Bft) 100,00 %
11.08.2016 13:14 16,4 C 66 % 1022,7 hPa 0,0 l/m 2,3 km/h (1 Bft) W-NW 285 2 min 0,000 mm 4,0 UV-I 820 W/m 10,0 C 16,4 C 4,8 km/h (1 Bft) 97,87 %
11.08.2016 13:16 16,2 C 66 % 1022,7 hPa 0,0 l/m 7,7 km/h (2 Bft) W-NW 283 0 min 0,000 mm 2,4 UV-I 180 W/m 9,8 C 15,5 C 12,9 km/h (3 Bft) 97,87 %
11.08.2016 13:18 15,9 C 65 % 1022,7 hPa 0,0 l/m 13,6 km/h (3 Bft) W 273 0 min 0,000 mm 2,8 UV-I 232 W/m 9,3 C 12,7 C 25,7 km/h (4 Bft) 95,12 %
11.08.2016 13:20 15,7 C 64 % 1022,8 hPa 0,0 l/m 11,5 km/h (2 Bft) W 273 0 min 0,000 mm 4,1 UV-I 334 W/m 8,9 C 13,3 C 19,3 km/h (3 Bft) 96,23 %
11.08.2016 13:22 15,8 C 66 % 1022,8 hPa 0,0 l/m 3,5 km/h (1 Bft) W-NW 290 0 min 0,000 mm 2,8 UV-I 227 W/m 9,5 C 15,8 C 9,7 km/h (2 Bft) 97,22 %
11.08.2016 13:24 15,7 C 66 % 1022,7 hPa 0,0 l/m 3,2 km/h (1 Bft) W 263 0 min 0,000 mm 4,1 UV-I 186 W/m 9,4 C 15,7 C 6,4 km/h (2 Bft) 98,11 %
11.08.2016 13:26 15,9 C 69 % 1022,8 hPa 0,0 l/m 3,8 km/h (1 Bft) W 267 2 min 0,000 mm 5,3 UV-I 900 W/m 10,2 C 15,9 C 6,4 km/h (2 Bft) 98,11 %
11.08.2016 13:28 16,4 C 68 % 1022,7 hPa 0,0 l/m 7,2 km/h (2 Bft) W-SW 238 2 min 0,000 mm 5,4 UV-I 945 W/m 10,5 C 16,0 C 14,5 km/h (3 Bft) 97,87 %
11.08.2016 13:30 16,7 C 63 % 1022,8 hPa 0,0 l/m 5,4 km/h (1 Bft) W 262 2 min 0,000 mm 4,9 UV-I 922 W/m 9,6 C 16,7 C 14,5 km/h (3 Bft) 97,37 %
11.08.2016 13:32 16,9 C 63 % 1022,8 hPa 0,0 l/m 11,3 km/h (2 Bft) W 271 2 min 0,000 mm 5,3 UV-I 914 W/m 9,8 C 14,7 C 20,9 km/h (4 Bft) 98,21 %
11.08.2016 13:34 17,1 C 63 % 1022,8 hPa 0,0 l/m 12,1 km/h (2 Bft) SW 233 2 min 0,000 mm 5,3 UV-I 908 W/m 10,0 C 14,7 C 22,5 km/h (4 Bft) 97,56 %
11.08.2016 13:36 17,1 C 53 % 1022,8 hPa 0,0 l/m 4,3 km/h (1 Bft) W-NW 296 2 min 0,000 mm 5,3 UV-I 905 W/m 7,4 C 17,1 C 9,7 km/h (2 Bft) 96,23 %
11.08.2016 13:38 17,2 C 59 % 1022,8 hPa 0,0 l/m 7,1 km/h (2 Bft) W-SW 257 2 min 0,000 mm 5,4 UV-I 910 W/m 9,1 C 16,9 C 12,9 km/h (3 Bft) 95,24 %
11.08.2016 13:40 17,2 C 58 % 1022,8 hPa 0,0 l/m 8,4 km/h (2 Bft) W-NW 284 2 min 0,000 mm 5,2 UV-I 925 W/m 8,9 C 16,2 C 17,7 km/h (3 Bft) 96,15 %
11.08.2016 13:42 17,1 C 57 % 1022,7 hPa 0,0 l/m 6,4 km/h (2 Bft) W 267 2 min 0,000 mm 4,0 UV-I 925 W/m 8,5 C 17,1 C 16,1 km/h (3 Bft) 100,00 %
11.08.2016 13:44 16,8 C 60 % 1022,7 hPa 0,0 l/m 6,3 km/h (2 Bft) W-NW 286 2 min 0,000 mm 3,7 UV-I 925 W/m 9,0 C 16,8 C 14,5 km/h (3 Bft) 100,00 %
11.08.2016 13:46 16,4 C 56 % 1022,8 hPa 0,0 l/m 7,3 km/h (2 Bft) W-SW 249 2 min 0,000 mm 3,5 UV-I 710 W/m 7,6 C 15,9 C 17,7 km/h (3 Bft) 98,00 %
11.08.2016 13:48 16,2 C 57 % 1022,7 hPa 0,0 l/m 10,0 km/h (2 Bft) SW 234 0 min 0,000 mm 4,5 UV-I 153 W/m 7,7 C 14,4 C 16,1 km/h (3 Bft) 100,00 %
11.08.2016 13:50 16,4 C 59 % 1022,7 hPa 0,0 l/m 7,7 km/h (2 Bft) SW 228 2 min 0,000 mm 5,1 UV-I 876 W/m 8,4 C 15,7 C 12,9 km/h (3 Bft) 97,56 %
11.08.2016 13:52 16,8 C 60 % 1022,7 hPa 0,0 l/m 10,4 km/h (2 Bft) SW 222 2 min 0,000 mm 5,2 UV-I 898 W/m 9,0 C 14,9 C 20,9 km/h (4 Bft) 100,00 %
11.08.2016 13:54 17,1 C 62 % 1022,7 hPa 0,0 l/m 10,9 km/h (2 Bft) W-SW 239 2 min 0,000 mm 5,2 UV-I 934 W/m 9,8 C 15,1 C 20,9 km/h (4 Bft) 98,00 %
11.08.2016 13:56 17,2 C 55 % 1022,7 hPa 0,0 l/m 10,1 km/h (2 Bft) SW 218 2 min 0,000 mm 4,1 UV-I 878 W/m 8,1 C 15,5 C 19,3 km/h (3 Bft) 100,00 %
11.08.2016 13:58 16,9 C 54 % 1022,7 hPa 0,0 l/m 8,4 km/h (2 Bft) SW 225 0 min 0,000 mm 3,8 UV-I 334 W/m 7,5 C 15,9 C 17,7 km/h (3 Bft) 100,00 %
11.08.2016 14:00 16,8 C 57 % 1022,6 hPa 0,0 l/m 16,3 km/h (3 Bft) S-SW 203 2 min 0,406 mm 3,4 UV-I 815 W/m 8,2 C 13,0 C 22,5 km/h (4 Bft) 100,00 %
11.08.2016 14:02 16,7 C 55 % 1022,7 hPa 0,0 l/m 13,7 km/h (3 Bft) SW 236 0 min 0,000 mm 2,3 UV-I 236 W/m 7,6 C 13,7 C 19,3 km/h (3 Bft) 98,00 %
11.08.2016 14:04 16,4 C 56 % 1022,7 hPa 0,0 l/m 10,3 km/h (2 Bft) W-SW 250 0 min 0,000 mm 2,2 UV-I 222 W/m 7,6 C 14,5 C 17,7 km/h (3 Bft) 100,00 %
11.08.2016 14:06 16,2 C 58 % 1022,7 hPa 0,0 l/m 7,8 km/h (2 Bft) W 260 0 min 0,000 mm 2,3 UV-I 231 W/m 7,9 C 15,5 C 14,5 km/h (3 Bft) 98,21 %
11.08.2016 14:08 16,1 C 59 % 1022,7 hPa 0,0 l/m 8,8 km/h (2 Bft) W 267 0 min 0,000 mm 2,6 UV-I 250 W/m 8,1 C 14,9 C 14,5 km/h (3 Bft) 100,00 %
11.08.2016 14:10 16,0 C 57 % 1022,7 hPa 0,0 l/m 7,9 km/h (2 Bft) W-SW 244 0 min 0,000 mm 3,1 UV-I 246 W/m 7,5 C 15,2 C 16,1 km/h (3 Bft) 97,87 %
11.08.2016 14:12 15,9 C 55 % 1022,7 hPa 0,0 l/m 7,9 km/h (2 Bft) SW 234 0 min 0,000 mm 2,4 UV-I 184 W/m 6,9 C 15,1 C 12,9 km/h (3 Bft) 100,00 %
11.08.2016 14:14 15,8 C 56 % 1022,7 hPa 0,0 l/m 8,2 km/h (2 Bft) W 277 0 min 0,000 mm 2,5 UV-I 165 W/m 7,0 C 14,8 C 12,9 km/h (3 Bft) 100,00 %
11.08.2016 14:16 15,8 C 58 % 1022,6 hPa 0,0 l/m 6,8 km/h (2 Bft) W-SW 255 0 min 0,000 mm 3,8 UV-I 206 W/m 7,6 C 15,6 C 14,5 km/h (3 Bft) 97,87 %
11.08.2016 14:18 16,1 C 61 % 1022,6 hPa 0,0 l/m 7,6 km/h (2 Bft) W-SW 240 2 min 0,000 mm 4,1 UV-I 758 W/m 8,6 C 15,5 C 14,5 km/h (3 Bft) 100,00 %
11.08.2016 14:20 16,2 C 57 % 1022,6 hPa 0,0 l/m 10,1 km/h (2 Bft) W-SW 255 0 min 0,000 mm 2,9 UV-I 423 W/m 7,7 C 14,4 C 19,3 km/h (3 Bft) 100,00 %
11.08.2016 14:22 16,3 C 60 % 1022,6 hPa 0,0 l/m 9,6 km/h (2 Bft) W-SW 254 2 min 0,000 mm 4,5 UV-I 471 W/m 8,5 C 14,7 C 16,1 km/h (3 Bft) 98,11 %
11.08.2016 14:24 16,6 C 61 % 1022,6 hPa 0,0 l/m 6,2 km/h (2 Bft) W-SW 237 2 min 0,000 mm 4,7 UV-I 863 W/m 9,0 C 16,6 C 9,7 km/h (2 Bft) 100,00 %
11.08.2016 14:26 16,8 C 58 % 1022,5 hPa 0,0 l/m 11,3 km/h (2 Bft) W-SW 257 2 min 0,000 mm 4,7 UV-I 853 W/m 8,5 C 14,6 C 17,7 km/h (3 Bft) 100,00 %
11.08.2016 14:28 16,9 C 58 % 1022,5 hPa 0,0 l/m 6,8 km/h (2 Bft) W-SW 237 2 min 0,000 mm 4,7 UV-I 853 W/m 8,6 C 16,7 C 12,9 km/h (3 Bft) 100,00 %
11.08.2016 14:30 17,1 C 56 % 1022,5 hPa 0,0 l/m 11,3 km/h (2 Bft) W 261 2 min 0,000 mm 4,7 UV-I 853 W/m 8,3 C 14,9 C 16,1 km/h (3 Bft) 100,00 %
11.08.2016 14:32 17,3 C 57 % 1022,4 hPa 0,0 l/m 6,7 km/h (2 Bft) O-SO 120 2 min 0,000 mm 4,7 UV-I 858 W/m 8,7 C 17,2 C 14,5 km/h (3 Bft) 100,00 %
11.08.2016 14:34 17,4 C 52 % 1022,5 hPa 0,0 l/m 4,8 km/h (1 Bft) W-SW 242 2 min 0,000 mm 3,5 UV-I 694 W/m 7,4 C 17,4 C 11,3 km/h (2 Bft) 94,74 %
11.08.2016 14:36 17,2 C 51 % 1022,5 hPa 0,0 l/m 9,1 km/h (2 Bft) W-SW 258 0 min 0,000 mm 4,2 UV-I 294 W/m 7,0 C 15,9 C 19,3 km/h (3 Bft) 100,00 %
11.08.2016 14:38 17,0 C 53 % 1022,5 hPa 0,0 l/m 4,9 km/h (1 Bft) W-SW 247 0 min 0,000 mm 3,6 UV-I 294 W/m 7,4 C 17,0 C 12,9 km/h (3 Bft) 100,00 %
11.08.2016 14:40 16,8 C 53 % 1022,5 hPa 0,0 l/m 7,6 km/h (2 Bft) W 265 0 min 0,000 mm 2,7 UV-I 259 W/m 7,2 C 16,2 C 16,1 km/h (3 Bft) 100,00 %
11.08.2016 14:42 16,5 C 54 % 1022,5 hPa 0,0 l/m 8,5 km/h (2 Bft) W-SW 252 0 min 0,000 mm 2,4 UV-I 186 W/m 7,2 C 15,4 C 17,7 km/h (3 Bft) 100,00 %
11.08.2016 14:44 16,3 C 56 % 1022,6 hPa 0,0 l/m 8,9 km/h (2 Bft) W-SW 242 0 min 0,000 mm 2,3 UV-I 177 W/m 7,5 C 15,0 C 17,7 km/h (3 Bft) 98,11 %
11.08.2016 14:46 16,1 C 56 % 1022,6 hPa 0,0 l/m 6,9 km/h (2 Bft) W-SW 256 0 min 0,000 mm 2,5 UV-I 192 W/m 7,3 C 15,8 C 16,1 km/h (3 Bft) 100,00 %
11.08.2016 14:48 16,0 C 59 % 1022,6 hPa 0,0 l/m 3,3 km/h (1 Bft) W-SW 239 0 min 0,000 mm 3,4 UV-I 334 W/m 8,0 C 16,0 C 4,8 km/h (1 Bft) 100,00 %
11.08.2016 14:50 16,3 C 58 % 1022,6 hPa 0,0 l/m 6,6 km/h (2 Bft) SW 221 2 min 0,000 mm 4,2 UV-I 621 W/m 8,0 C 16,2 C 12,9 km/h (3 Bft) 100,00 %
11.08.2016 14:52 16,5 C 56 % 1022,6 hPa 0,0 l/m 8,3 km/h (2 Bft) W 263 2 min 0,000 mm 3,6 UV-I 898 W/m 7,7 C 15,5 C 12,9 km/h (3 Bft) 97,44 %
11.08.2016 14:54 16,5 C 58 % 1022,5 hPa 0,0 l/m 6,2 km/h (2 Bft) W 262 0 min 0,000 mm 3,0 UV-I 332 W/m 8,2 C 16,5 C 11,3 km/h (2 Bft) 95,74 %
11.08.2016 14:56 16,5 C 57 % 1022,5 hPa 0,0 l/m 11,5 km/h (2 Bft) W 267 0 min 0,000 mm 3,4 UV-I 288 W/m 8,0 C 14,2 C 19,3 km/h (3 Bft) 100,00 %
11.08.2016 14:58 16,6 C 57 % 1022,5 hPa 0,0 l/m 9,0 km/h (2 Bft) W-SW 238 2 min 0,000 mm 4,0 UV-I 792 W/m 8,0 C 15,3 C 17,7 km/h (3 Bft) 97,62 %
11.08.2016 15:00 16,7 C 56 % 1022,6 hPa 0,0 l/m 11,0 km/h (2 Bft) S-SW 212 2 min 0,000 mm 4,1 UV-I 867 W/m 7,9 C 14,6 C 17,7 km/h (3 Bft) 100,00 %
11.08.2016 15:02 16,8 C 57 % 1022,6 hPa 0,0 l/m 7,9 km/h (2 Bft) W 266 2 min 0,330 mm 4,0 UV-I 834 W/m 8,2 C 16,0 C 17,7 km/h (3 Bft) 94,00 %
11.08.2016 15:04 16,9 C 54 % 1022,5 hPa 0,0 l/m 12,4 km/h (3 Bft) W-SW 246 2 min 0,000 mm 4,1 UV-I 820 W/m 7,5 C 14,3 C 19,3 km/h (3 Bft) 97,73 %
11.08.2016 15:06 16,9 C 52 % 1022,6 hPa 0,0 l/m 9,8 km/h (2 Bft) W-SW 252 2 min 0,000 mm 3,6 UV-I 819 W/m 7,0 C 15,3 C 19,3 km/h (3 Bft) 97,56 %
11.08.2016 15:08 16,9 C 52 % 1022,5 hPa 0,0 l/m 5,1 km/h (1 Bft) N-NW 346 2 min 0,000 mm 4,1 UV-I 833 W/m 7,0 C 16,9 C 11,3 km/h (2 Bft) 96,43 %
11.08.2016 15:10 17,2 C 53 % 1022,5 hPa 0,0 l/m 5,9 km/h (2 Bft) SW 224 2 min 0,000 mm 4,1 UV-I 855 W/m 7,5 C 17,2 C 12,9 km/h (3 Bft) 98,00 %
11.08.2016 15:12 17,4 C 56 % 1022,5 hPa 0,0 l/m 10,9 km/h (2 Bft) SW 221 2 min 0,000 mm 4,1 UV-I 861 W/m 8,5 C 15,4 C 17,7 km/h (3 Bft) 97,87 %
11.08.2016 15:14 17,6 C 55 % 1022,4 hPa 0,0 l/m 13,8 km/h (3 Bft) W-SW 254 2 min 0,000 mm 4,1 UV-I 853 W/m 8,5 C 14,7 C 20,9 km/h (4 Bft) 95,74 %
11.08.2016 15:16 17,7 C 53 % 1022,5 hPa 0,0 l/m 10,0 km/h (2 Bft) SW 219 2 min 0,000 mm 4,1 UV-I 875 W/m 8,0 C 16,1 C 17,7 km/h (3 Bft) 94,74 %
11.08.2016 15:18 17,8 C 53 % 1022,4 hPa 0,0 l/m 6,8 km/h (2 Bft) W-SW 248 2 min 0,000 mm 4,0 UV-I 856 W/m 8,1 C 17,6 C 11,3 km/h (2 Bft) 94,34 %
11.08.2016 15:20 17,9 C 53 % 1022,4 hPa 0,0 l/m 7,2 km/h (2 Bft) W 275 2 min 0,000 mm 3,9 UV-I 853 W/m 8,2 C 17,5 C 14,5 km/h (3 Bft) 97,56 %
11.08.2016 15:22 17,8 C 55 % 1022,4 hPa 0,0 l/m 6,2 km/h (2 Bft) SW 221 2 min 0,000 mm 3,8 UV-I 878 W/m 8,6 C 17,8 C 14,5 km/h (3 Bft) 94,00 %
11.08.2016 15:24 17,7 C 53 % 1022,4 hPa 0,0 l/m 12,6 km/h (3 Bft) W-SW 248 2 min 0,000 mm 2,9 UV-I 570 W/m 8,0 C 15,2 C 19,3 km/h (3 Bft) 95,74 %
11.08.2016 15:26 17,6 C 51 % 1022,4 hPa 0,0 l/m 12,3 km/h (3 Bft) SW 228 0 min 0,000 mm 2,7 UV-I 337 W/m 7,3 C 15,2 C 16,1 km/h (3 Bft) 95,74 %
11.08.2016 15:28 17,3 C 52 % 1022,4 hPa 0,0 l/m 6,5 km/h (2 Bft) W-SW 254 0 min 0,000 mm 2,3 UV-I 312 W/m 7,3 C 17,3 C 11,3 km/h (2 Bft) 97,56 %
11.08.2016 15:30 17,1 C 54 % 1022,4 hPa 0,0 l/m 3,8 km/h (1 Bft) NW 311 0 min 0,000 mm 2,3 UV-I 323 W/m 7,7 C 17,1 C 14,5 km/h (3 Bft) 98,11 %
11.08.2016 15:32 17,1 C 61 % 1022,4 hPa 0,0 l/m 1,7 km/h (1 Bft) N-NO 15 2 min 0,000 mm 2,9 UV-I 477 W/m 9,5 C 17,1 C 4,8 km/h (1 Bft) 100,00 %
11.08.2016 15:34 17,6 C 58 % 1022,4 hPa 0,0 l/m 5,3 km/h (1 Bft) NW 315 2 min 0,000 mm 3,4 UV-I 813 W/m 9,2 C 17,6 C 14,5 km/h (3 Bft) 97,44 %
11.08.2016 15:36 17,7 C 59 % 1022,4 hPa 0,0 l/m 5,4 km/h (1 Bft) W 263 2 min 0,000 mm 3,4 UV-I 779 W/m 9,6 C 17,7 C 11,3 km/h (2 Bft) 100,00 %
11.08.2016 15:38 17,8 C 54 % 1022,4 hPa 0,0 l/m 4,8 km/h (1 Bft) N-NO 26 2 min 0,000 mm 3,4 UV-I 769 W/m 8,4 C 17,8 C 9,7 km/h (2 Bft) 100,00 %
11.08.2016 15:40 17,8 C 55 % 1022,4 hPa 0,0 l/m 5,6 km/h (1 Bft) W-NW 284 2 min 0,000 mm 3,4 UV-I 750 W/m 8,6 C 17,8 C 12,9 km/h (3 Bft) 98,11 %
11.08.2016 15:42 17,8 C 56 % 1022,4 hPa 0,0 l/m 9,7 km/h (2 Bft) W-NW 282 2 min 0,000 mm 3,4 UV-I 735 W/m 8,9 C 16,3 C 16,1 km/h (3 Bft) 98,11 %
11.08.2016 15:44 17,8 C 53 % 1022,4 hPa 0,0 l/m 8,4 km/h (2 Bft) SW 220 2 min 0,000 mm 3,4 UV-I 739 W/m 8,1 C 16,9 C 14,5 km/h (3 Bft) 100,00 %
11.08.2016 15:46 17,8 C 57 % 1022,4 hPa 0,0 l/m 7,6 km/h (2 Bft) W-SW 253 2 min 0,000 mm 3,3 UV-I 744 W/m 9,2 C 17,2 C 14,5 km/h (3 Bft) 100,00 %
11.08.2016 15:48 17,8 C 55 % 1022,4 hPa 0,0 l/m 5,2 km/h (1 Bft) W-NW 297 2 min 0,000 mm 3,1 UV-I 700 W/m 8,6 C 17,8 C 12,9 km/h (3 Bft) 100,00 %
11.08.2016 15:50 17,9 C 53 % 1022,4 hPa 0,0 l/m 6,8 km/h (2 Bft) NW 311 2 min 0,000 mm 3,1 UV-I 656 W/m 8,2 C 17,7 C 11,3 km/h (2 Bft) 100,00 %
11.08.2016 15:52 17,8 C 54 % 1022,4 hPa 0,0 l/m 8,4 km/h (2 Bft) N-NW 344 2 min 0,000 mm 3,2 UV-I 736 W/m 8,4 C 16,9 C 17,7 km/h (3 Bft) 100,00 %
11.08.2016 15:54 17,8 C 50 % 1022,4 hPa 0,0 l/m 10,1 km/h (2 Bft) W-NW 292 2 min 0,000 mm 3,2 UV-I 739 W/m 7,2 C 16,2 C 17,7 km/h (3 Bft) 100,00 %
11.08.2016 15:56 17,7 C 53 % 1022,5 hPa 0,0 l/m 10,7 km/h (2 Bft) W-SW 244 2 min 0,000 mm 2,9 UV-I 739 W/m 8,0 C 15,8 C 20,9 km/h (4 Bft) 97,73 %
11.08.2016 15:58 17,4 C 52 % 1022,4 hPa 0,0 l/m 7,2 km/h (2 Bft) W 259 2 min 0,000 mm 2,7 UV-I 740 W/m 7,4 C 17,0 C 12,9 km/h (3 Bft) 100,00 %
11.08.2016 16:00 17,2 C 54 % 1022,5 hPa 0,0 l/m 7,0 km/h (2 Bft) W-SW 247 2 min 0,000 mm 3,0 UV-I 715 W/m 7,8 C 16,9 C 12,9 km/h (3 Bft) 97,37 %
11.08.2016 16:02 17,3 C 55 % 1022,4 hPa 0,0 l/m 8,0 km/h (2 Bft) SW 225 2 min 0,432 mm 2,9 UV-I 680 W/m 8,2 C 16,5 C 14,5 km/h (3 Bft) 96,00 %
11.08.2016 16:04 17,4 C 53 % 1022,4 hPa 0,0 l/m 15,2 km/h (3 Bft) W-SW 256 2 min 0,000 mm 2,8 UV-I 666 W/m 7,7 C 14,0 C 19,3 km/h (3 Bft) 100,00 %
11.08.2016 16:06 17,3 C 51 % 1022,4 hPa 0,0 l/m 9,4 km/h (2 Bft) SW 219 2 min 0,000 mm 2,9 UV-I 664 W/m 7,1 C 15,9 C 17,7 km/h (3 Bft) 100,00 %
11.08.2016 16:08 17,3 C 53 % 1022,4 hPa 0,0 l/m 10,3 km/h (2 Bft) W-SW 242 2 min 0,000 mm 2,8 UV-I 660 W/m 7,6 C 15,5 C 22,5 km/h (4 Bft) 100,00 %
11.08.2016 16:10 17,4 C 53 % 1022,4 hPa 0,0 l/m 8,2 km/h (2 Bft) W 269 2 min 0,000 mm 2,8 UV-I 649 W/m 7,7 C 16,5 C 16,1 km/h (3 Bft) 100,00 %
11.08.2016 16:12 17,6 C 54 % 1022,5 hPa 0,0 l/m 13,5 km/h (3 Bft) W-SW 249 2 min 0,000 mm 2,7 UV-I 648 W/m 8,2 C 14,8 C 20,9 km/h (4 Bft) 100,00 %
11.08.2016 16:14 17,6 C 53 % 1022,4 hPa 0,0 l/m 10,5 km/h (2 Bft) W 275 2 min 0,000 mm 2,6 UV-I 656 W/m 7,9 C 15,8 C 17,7 km/h (3 Bft) 100,00 %
11.08.2016 16:16 17,5 C 54 % 1022,5 hPa 0,0 l/m 9,2 km/h (2 Bft) W-SW 254 2 min 0,000 mm 2,0 UV-I 575 W/m 8,1 C 16,2 C 17,7 km/h (3 Bft) 100,00 %
11.08.2016 16:18 17,2 C 50 % 1022,5 hPa 0,0 l/m 12,4 km/h (3 Bft) W-NW 283 0 min 0,000 mm 1,8 UV-I 151 W/m 6,7 C 14,7 C 25,7 km/h (4 Bft) 100,00 %
11.08.2016 16:20 17,1 C 54 % 1022,5 hPa 0,0 l/m 5,6 km/h (1 Bft) W-NW 301 0 min 0,000 mm 2,2 UV-I 144 W/m 7,7 C 17,1 C 11,3 km/h (2 Bft) 100,00 %
11.08.2016 16:22 17,2 C 55 % 1022,5 hPa 0,0 l/m 5,5 km/h (1 Bft) W 269 2 min 0,000 mm 2,5 UV-I 418 W/m 8,1 C 17,2 C 9,7 km/h (2 Bft) 100,00 %
11.08.2016 16:24 17,5 C 55 % 1022,5 hPa 0,0 l/m 3,8 km/h (1 Bft) S 190 2 min 0,000 mm 2,5 UV-I 669 W/m 8,4 C 17,5 C 11,3 km/h (2 Bft) 100,00 %
11.08.2016 16:26 17,7 C 53 % 1022,5 hPa 0,0 l/m 6,4 km/h (2 Bft) W-SW 254 2 min 0,000 mm 2,4 UV-I 653 W/m 8,0 C 17,7 C 14,5 km/h (3 Bft) 100,00 %
11.08.2016 16:28 17,9 C 55 % 1022,5 hPa 0,0 l/m 8,9 km/h (2 Bft) W-SW 241 2 min 0,000 mm 2,4 UV-I 646 W/m 8,7 C 16,8 C 17,7 km/h (3 Bft) 100,00 %
11.08.2016 16:30 17,9 C 53 % 1022,5 hPa 0,0 l/m 12,6 km/h (3 Bft) W-SW 240 2 min 0,000 mm 2,4 UV-I 645 W/m 8,2 C 15,4 C 19,3 km/h (3 Bft) 100,00 %
11.08.2016 16:32 17,7 C 54 % 1022,5 hPa 0,0 l/m 10,2 km/h (2 Bft) SW 236 2 min 0,000 mm 2,1 UV-I 652 W/m 8,3 C 16,0 C 17,7 km/h (3 Bft) 100,00 %
11.08.2016 16:34 17,4 C 54 % 1022,5 hPa 0,0 l/m 12,1 km/h (2 Bft) SW 229 2 min 0,000 mm 1,6 UV-I 388 W/m 8,0 C 15,0 C 20,9 km/h (4 Bft) 96,00 %
11.08.2016 16:36 17,2 C 59 % 1022,5 hPa 0,0 l/m 12,3 km/h (3 Bft) SW 220 2 min 0,000 mm 2,1 UV-I 455 W/m 9,1 C 14,7 C 19,3 km/h (3 Bft) 100,00 %
11.08.2016 16:38 17,0 C 65 % 1022,5 hPa 0,0 l/m 8,9 km/h (2 Bft) SO 145 2 min 0,000 mm 1,9 UV-I 607 W/m 10,4 C 15,8 C 17,7 km/h (3 Bft) 100,00 %
11.08.2016 16:40 16,7 C 66 % 1022,5 hPa 0,0 l/m 9,6 km/h (2 Bft) S-SO 167 2 min 0,000 mm 1,6 UV-I 605 W/m 10,3 C 15,2 C 19,3 km/h (3 Bft) 100,00 %
11.08.2016 16:42 16,6 C 66 % 1022,5 hPa 0,0 l/m 10,8 km/h (2 Bft) S 190 2 min 0,000 mm 2,0 UV-I 580 W/m 10,2 C 14,6 C 17,7 km/h (3 Bft) 97,87 %
11.08.2016 16:44 16,4 C 64 % 1022,5 hPa 0,0 l/m 14,6 km/h (3 Bft) SO 143 2 min 0,000 mm 1,5 UV-I 379 W/m 9,6 C 13,0 C 22,5 km/h (4 Bft) 97,87 %
11.08.2016 16:46 16,2 C 65 % 1022,5 hPa 0,0 l/m 10,5 km/h (2 Bft) S-SO 157 0 min 0,000 mm 1,3 UV-I 141 W/m 9,6 C 14,2 C 17,7 km/h (3 Bft) 100,00 %
11.08.2016 16:48 16,0 C 66 % 1022,5 hPa 0,0 l/m 12,8 km/h (3 Bft) S-SW 207 0 min 0,000 mm 1,3 UV-I 198 W/m 9,7 C 13,1 C 27,4 km/h (4 Bft) 97,87 %
11.08.2016 16:50 16,1 C 67 % 1022,5 hPa 0,0 l/m 13,4 km/h (3 Bft) S 190 0 min 0,000 mm 1,6 UV-I 216 W/m 10,0 C 13,0 C 20,9 km/h (4 Bft) 100,00 %
11.08.2016 16:52 16,4 C 67 % 1022,5 hPa 0,0 l/m 12,3 km/h (3 Bft) SW 215 2 min 0,000 mm 1,9 UV-I 592 W/m 10,3 C 13,8 C 17,7 km/h (3 Bft) 97,92 %
11.08.2016 16:54 16,6 C 62 % 1022,4 hPa 0,0 l/m 13,5 km/h (3 Bft) S-SW 198 2 min 0,000 mm 1,5 UV-I 567 W/m 9,3 C 13,6 C 20,9 km/h (4 Bft) 95,92 %
11.08.2016 16:56 16,3 C 65 % 1022,5 hPa 0,0 l/m 11,9 km/h (2 Bft) S 188 0 min 0,000 mm 1,4 UV-I 197 W/m 9,7 C 13,8 C 17,7 km/h (3 Bft) 95,83 %
11.08.2016 16:58 16,3 C 65 % 1022,5 hPa 0,0 l/m 9,9 km/h (2 Bft) S-SW 204 0 min 0,000 mm 1,6 UV-I 291 W/m 9,7 C 14,6 C 17,7 km/h (3 Bft) 95,74 %
11.08.2016 17:00 16,3 C 65 % 1022,5 hPa 0,0 l/m 8,8 km/h (2 Bft) S-SO 165 2 min 0,330 mm 1,6 UV-I 471 W/m 9,7 C 15,1 C 16,1 km/h (3 Bft) 95,74 %
11.08.2016 17:02 16,3 C 64 % 1022,5 hPa 0,0 l/m 8,0 km/h (2 Bft) S-SO 164 2 min 0,000 mm 1,7 UV-I 381 W/m 9,5 C 15,5 C 14,5 km/h (3 Bft) 93,62 %
11.08.2016 17:04 16,4 C 66 % 1022,5 hPa 0,0 l/m 4,3 km/h (1 Bft) S-SO 165 2 min 0,000 mm 1,5 UV-I 577 W/m 10,0 C 16,4 C 11,3 km/h (2 Bft) 97,37 %
11.08.2016 17:06 16,4 C 65 % 1022,5 hPa 0,0 l/m 8,8 km/h (2 Bft) S 176 0 min 0,000 mm 1,2 UV-I 258 W/m 9,8 C 15,2 C 16,1 km/h (3 Bft) 95,74 %
11.08.2016 17:08 16,3 C 65 % 1022,5 hPa 0,0 l/m 7,1 km/h (2 Bft) SW 227 0 min 0,000 mm 1,1 UV-I 137 W/m 9,7 C 15,9 C 14,5 km/h (3 Bft) 97,87 %
11.08.2016 17:10 16,2 C 65 % 1022,5 hPa 0,0 l/m 7,6 km/h (2 Bft) S-SW 200 0 min 0,000 mm 1,1 UV-I 142 W/m 9,6 C 15,6 C 12,9 km/h (3 Bft) 95,74 %
11.08.2016 17:12 16,3 C 65 % 1022,4 hPa 0,0 l/m 8,5 km/h (2 Bft) S 180 2 min 0,000 mm 1,4 UV-I 455 W/m 9,7 C 15,2 C 16,1 km/h (3 Bft) 97,87 %
11.08.2016 17:14 16,5 C 66 % 1022,4 hPa 0,0 l/m 7,9 km/h (2 Bft) SW 233 2 min 0,000 mm 1,3 UV-I 545 W/m 10,1 C 15,7 C 12,9 km/h (3 Bft) 95,74 %
11.08.2016 17:16 16,7 C 66 % 1022,4 hPa 0,0 l/m 11,6 km/h (2 Bft) SW 230 2 min 0,000 mm 1,3 UV-I 271 W/m 10,3 C 14,4 C 19,3 km/h (3 Bft) 100,00 %
11.08.2016 17:18 16,8 C 66 % 1022,3 hPa 0,0 l/m 10,8 km/h (2 Bft) S-SW 200 2 min 0,000 mm 1,3 UV-I 443 W/m 10,4 C 14,8 C 20,9 km/h (4 Bft) 98,00 %
11.08.2016 17:20 16,9 C 67 % 1022,3 hPa 0,0 l/m 10,8 km/h (2 Bft) W-SW 240 2 min 0,000 mm 1,3 UV-I 519 W/m 10,7 C 14,9 C 16,1 km/h (3 Bft) 93,62 %
11.08.2016 17:22 17,0 C 63 % 1022,3 hPa 0,0 l/m 12,1 km/h (2 Bft) S-SW 200 2 min 0,000 mm 1,3 UV-I 523 W/m 9,9 C 14,5 C 17,7 km/h (3 Bft) 97,87 %
11.08.2016 17:24 17,0 C 64 % 1022,4 hPa 0,0 l/m 10,5 km/h (2 Bft) SW 214 2 min 0,000 mm 1,2 UV-I 532 W/m 10,1 C 15,1 C 14,5 km/h (3 Bft) 97,87 %
11.08.2016 17:26 17,0 C 65 % 1022,4 hPa 0,0 l/m 10,9 km/h (2 Bft) SW 232 2 min 0,000 mm 1,1 UV-I 512 W/m 10,4 C 15,0 C 19,3 km/h (3 Bft) 100,00 %
11.08.2016 17:28 16,8 C 64 % 1022,4 hPa 0,0 l/m 13,2 km/h (3 Bft) S-SW 209 0 min 0,000 mm 0,9 UV-I 177 W/m 10,0 C 13,9 C 19,3 km/h (3 Bft) 100,00 %
11.08.2016 17:30 16,7 C 64 % 1022,4 hPa 0,0 l/m 12,8 km/h (3 Bft) S-SO 160 0 min 0,000 mm 0,8 UV-I 166 W/m 9,9 C 14,0 C 19,3 km/h (3 Bft) 97,87 %
11.08.2016 17:32 16,4 C 65 % 1022,4 hPa 0,0 l/m 12,6 km/h (3 Bft) S-SW 212 0 min 0,000 mm 0,8 UV-I 182 W/m 9,8 C 13,7 C 19,3 km/h (3 Bft) 100,00 %
11.08.2016 17:34 16,4 C 66 % 1022,4 hPa 0,0 l/m 13,2 km/h (3 Bft) S-SW 199 2 min 0,000 mm 0,9 UV-I 258 W/m 10,0 C 13,5 C 20,9 km/h (4 Bft) 100,00 %
11.08.2016 17:36 16,4 C 66 % 1022,4 hPa 0,0 l/m 11,6 km/h (2 Bft) S 188 0 min 0,000 mm 0,8 UV-I 216 W/m 10,0 C 14,0 C 16,1 km/h (3 Bft) 97,87 %
11.08.2016 17:38 16,3 C 67 % 1022,3 hPa 0,0 l/m 10,6 km/h (2 Bft) S 177 2 min 0,000 mm 0,9 UV-I 240 W/m 10,2 C 14,3 C 17,7 km/h (3 Bft) 97,87 %
11.08.2016 17:40 16,4 C 66 % 1022,4 hPa 0,0 l/m 9,7 km/h (2 Bft) SW 226 2 min 0,000 mm 0,9 UV-I 459 W/m 10,0 C 14,8 C 17,7 km/h (3 Bft) 100,00 %
11.08.2016 17:42 16,6 C 67 % 1022,3 hPa 0,0 l/m 8,1 km/h (2 Bft) S 171 2 min 0,000 mm 0,9 UV-I 331 W/m 10,4 C 15,7 C 14,5 km/h (3 Bft) 100,00 %
11.08.2016 17:44 16,7 C 66 % 1022,3 hPa 0,0 l/m 10,6 km/h (2 Bft) SW 221 2 min 0,000 mm 1,0 UV-I 516 W/m 10,3 C 14,8 C 17,7 km/h (3 Bft) 100,00 %
11.08.2016 17:46 16,9 C 68 % 1022,4 hPa 0,0 l/m 9,3 km/h (2 Bft) S-SW 193 2 min 0,000 mm 1,0 UV-I 467 W/m 11,0 C 15,5 C 17,7 km/h (3 Bft) 100,00 %
11.08.2016 17:48 16,8 C 63 % 1022,3 hPa 0,0 l/m 14,0 km/h (3 Bft) W-SW 237 2 min 0,000 mm 1,0 UV-I 427 W/m 9,7 C 13,7 C 19,3 km/h (3 Bft) 100,00 %
11.08.2016 17:50 16,7 C 64 % 1022,3 hPa 0,0 l/m 12,4 km/h (3 Bft) S-SW 196 2 min 0,000 mm 0,9 UV-I 388 W/m 9,9 C 14,1 C 20,9 km/h (4 Bft) 97,87 %
11.08.2016 17:52 16,7 C 64 % 1022,3 hPa 0,0 l/m 11,3 km/h (2 Bft) SW 215 2 min 0,000 mm 0,9 UV-I 372 W/m 9,9 C 14,5 C 19,3 km/h (3 Bft) 98,00 %
11.08.2016 17:54 16,6 C 65 % 1022,2 hPa 0,0 l/m 14,3 km/h (3 Bft) S-SO 166 2 min 0,000 mm 0,9 UV-I 361 W/m 10,0 C 13,3 C 24,1 km/h (4 Bft) 95,74 %
11.08.2016 17:56 16,6 C 65 % 1022,3 hPa 0,0 l/m 12,1 km/h (2 Bft) W-SW 249 2 min 0,000 mm 0,8 UV-I 346 W/m 10,0 C 14,1 C 20,9 km/h (4 Bft) 100,00 %
11.08.2016 17:58 16,6 C 66 % 1022,2 hPa 0,0 l/m 9,7 km/h (2 Bft) SW 216 2 min 0,000 mm 0,8 UV-I 342 W/m 10,2 C 15,0 C 17,7 km/h (3 Bft) 100,00 %
11.08.2016 18:00 16,6 C 65 % 1022,2 hPa 0,0 l/m 12,5 km/h (3 Bft) S-SW 213 2 min 0,229 mm 0,8 UV-I 336 W/m 10,0 C 13,9 C 19,3 km/h (3 Bft) 95,74 %
11.08.2016 18:02 16,6 C 65 % 1022,3 hPa 0,0 l/m 10,5 km/h (2 Bft) SW 219 2 min 0,000 mm 0,8 UV-I 330 W/m 10,0 C 14,7 C 20,9 km/h (4 Bft) 98,00 %
11.08.2016 18:04 16,6 C 66 % 1022,2 hPa 0,0 l/m 10,0 km/h (2 Bft) S-SO 167 2 min 0,000 mm 0,7 UV-I 322 W/m 10,2 C 14,9 C 17,7 km/h (3 Bft) 97,87 %
11.08.2016 18:06 16,6 C 67 % 1022,3 hPa 0,0 l/m 7,7 km/h (2 Bft) SW 217 2 min 0,000 mm 0,7 UV-I 323 W/m 10,4 C 15,9 C 16,1 km/h (3 Bft) 97,37 %
11.08.2016 18:08 16,6 C 66 % 1022,3 hPa 0,0 l/m 11,7 km/h (2 Bft) SW 224 2 min 0,000 mm 0,7 UV-I 291 W/m 10,2 C 14,2 C 19,3 km/h (3 Bft) 100,00 %
11.08.2016 18:10 16,7 C 67 % 1022,2 hPa 0,0 l/m 7,4 km/h (2 Bft) S 178 2 min 0,000 mm 0,6 UV-I 322 W/m 10,5 C 16,2 C 12,9 km/h (3 Bft) 97,87 %
11.08.2016 18:12 16,7 C 65 % 1022,2 hPa 0,0 l/m 11,0 km/h (2 Bft) S-SO 161 2 min 0,000 mm 0,6 UV-I 323 W/m 10,1 C 14,6 C 17,7 km/h (3 Bft) 97,87 %
11.08.2016 18:14 16,6 C 66 % 1022,2 hPa 0,0 l/m 7,7 km/h (2 Bft) S-SW 203 2 min 0,000 mm 0,6 UV-I 314 W/m 10,2 C 15,9 C 14,5 km/h (3 Bft) 100,00 %
11.08.2016 18:16 16,7 C 66 % 1022,2 hPa 0,0 l/m 8,4 km/h (2 Bft) S 169 2 min 0,000 mm 0,6 UV-I 308 W/m 10,3 C 15,7 C 12,9 km/h (3 Bft) 100,00 %
11.08.2016 18:18 16,7 C 65 % 1022,2 hPa 0,0 l/m 11,4 km/h (2 Bft) S 188 2 min 0,000 mm 0,5 UV-I 308 W/m 10,1 C 14,4 C 19,3 km/h (3 Bft) 93,62 %
11.08.2016 18:20 16,7 C 63 % 1022,2 hPa 0,0 l/m 11,4 km/h (2 Bft) W-SW 258 2 min 0,000 mm 0,5 UV-I 308 W/m 9,6 C 14,4 C 19,3 km/h (3 Bft) 97,87 %
11.08.2016 18:22 16,7 C 66 % 1022,2 hPa 0,0 l/m 6,6 km/h (2 Bft) SW 234 2 min 0,000 mm 0,5 UV-I 310 W/m 10,3 C 16,6 C 12,9 km/h (3 Bft) 98,00 %
11.08.2016 18:24 16,7 C 64 % 1022,1 hPa 0,0 l/m 11,9 km/h (2 Bft) S-SW 209 2 min 0,000 mm 0,5 UV-I 294 W/m 9,9 C 14,3 C 19,3 km/h (3 Bft) 100,00 %
11.08.2016 18:26 16,7 C 64 % 1022,1 hPa 0,0 l/m 8,5 km/h (2 Bft) W 262 2 min 0,000 mm 0,5 UV-I 280 W/m 9,9 C 15,6 C 14,5 km/h (3 Bft) 97,87 %
11.08.2016 18:28 16,7 C 65 % 1022,1 hPa 0,0 l/m 10,9 km/h (2 Bft) S-SO 167 2 min 0,000 mm 0,5 UV-I 271 W/m 10,1 C 14,6 C 16,1 km/h (3 Bft) 97,87 %
11.08.2016 18:30 16,6 C 63 % 1022,1 hPa 0,0 l/m 10,3 km/h (2 Bft) S 171 2 min 0,000 mm 0,1 UV-I 258 W/m 9,5 C 14,8 C 16,1 km/h (3 Bft) 100,00 %
11.08.2016 18:32 16,6 C 63 % 1022,1 hPa 0,0 l/m 7,9 km/h (2 Bft) S 175 2 min 0,000 mm 0,0 UV-I 254 W/m 9,5 C 15,8 C 14,5 km/h (3 Bft) 100,00 %
11.08.2016 18:34 16,6 C 65 % 1022,1 hPa 0,0 l/m 9,2 km/h (2 Bft) S 170 2 min 0,000 mm 0,0 UV-I 245 W/m 10,0 C 15,2 C 16,1 km/h (3 Bft) 100,00 %
11.08.2016 18:36 16,6 C 63 % 1022,0 hPa 0,0 l/m 11,6 km/h (2 Bft) S 178 2 min 0,000 mm 0,0 UV-I 235 W/m 9,5 C 14,3 C 17,7 km/h (3 Bft) 100,00 %
11.08.2016 18:38 16,5 C 64 % 1022,0 hPa 0,0 l/m 11,5 km/h (2 Bft) S-SW 192 2 min 0,000 mm 0,0 UV-I 224 W/m 9,7 C 14,2 C 17,7 km/h (3 Bft) 100,00 %
11.08.2016 18:40 16,4 C 65 % 1022,0 hPa 0,0 l/m 11,8 km/h (2 Bft) SO 140 2 min 0,000 mm 0,0 UV-I 214 W/m 9,8 C 14,0 C 19,3 km/h (3 Bft) 97,87 %
11.08.2016 18:42 16,4 C 64 % 1022,0 hPa 0,0 l/m 7,0 km/h (2 Bft) S 182 2 min 0,000 mm 0,0 UV-I 201 W/m 9,6 C 16,1 C 14,5 km/h (3 Bft) 100,00 %
11.08.2016 18:44 16,4 C 66 % 1022,0 hPa 0,0 l/m 7,0 km/h (2 Bft) S 175 2 min 0,000 mm 0,0 UV-I 160 W/m 10,0 C 16,1 C 14,5 km/h (3 Bft) 97,87 %
11.08.2016 18:46 16,4 C 64 % 1022,0 hPa 0,0 l/m 8,3 km/h (2 Bft) S-SW 192 2 min 0,000 mm 0,0 UV-I 193 W/m 9,6 C 15,4 C 14,5 km/h (3 Bft) 100,00 %
11.08.2016 18:48 16,4 C 64 % 1022,0 hPa 0,0 l/m 9,9 km/h (2 Bft) S-SW 200 2 min 0,000 mm 0,0 UV-I 195 W/m 9,6 C 14,7 C 16,1 km/h (3 Bft) 95,74 %
11.08.2016 18:50 16,3 C 65 % 1022,1 hPa 0,0 l/m 8,5 km/h (2 Bft) S-SO 156 0 min 0,000 mm 0,0 UV-I 109 W/m 9,7 C 15,2 C 14,5 km/h (3 Bft) 96,00 %
11.08.2016 18:52 16,3 C 66 % 1022,1 hPa 0,0 l/m 6,3 km/h (2 Bft) S-SW 213 0 min 0,000 mm 0,0 UV-I 69 W/m 9,9 C 16,3 C 11,3 km/h (2 Bft) 97,92 %
11.08.2016 18:54 16,2 C 66 % 1022,0 hPa 0,0 l/m 9,3 km/h (2 Bft) S 171 0 min 0,000 mm 0,0 UV-I 70 W/m 9,8 C 14,7 C 14,5 km/h (3 Bft) 97,87 %
11.08.2016 18:56 16,1 C 65 % 1022,1 hPa 0,0 l/m 10,0 km/h (2 Bft) S 184 0 min 0,000 mm 0,0 UV-I 82 W/m 9,5 C 14,3 C 16,1 km/h (3 Bft) 93,62 %
11.08.2016 18:58 16,1 C 64 % 1022,1 hPa 0,0 l/m 9,5 km/h (2 Bft) SW 227 2 min 0,000 mm 0,0 UV-I 133 W/m 9,3 C 14,6 C 16,1 km/h (3 Bft) 97,87 %
11.08.2016 19:00 16,1 C 65 % 1022,0 hPa 0,0 l/m 8,3 km/h (2 Bft) S 176 2 min 0,000 mm 0,0 UV-I 177 W/m 9,5 C 15,1 C 14,5 km/h (3 Bft) 95,74 %
11.08.2016 19:02 16,2 C 65 % 1022,1 hPa 0,0 l/m 7,8 km/h (2 Bft) S-SW 206 2 min 0,178 mm 0,0 UV-I 184 W/m 9,6 C 15,5 C 14,5 km/h (3 Bft) 93,62 %
11.08.2016 19:04 16,3 C 64 % 1022,1 hPa 0,0 l/m 9,5 km/h (2 Bft) SW 233 2 min 0,000 mm 0,0 UV-I 189 W/m 9,5 C 14,8 C 17,7 km/h (3 Bft) 95,74 %
11.08.2016 19:06 16,4 C 64 % 1022,0 hPa 0,0 l/m 10,8 km/h (2 Bft) S 185 2 min 0,000 mm 0,0 UV-I 185 W/m 9,6 C 14,3 C 17,7 km/h (3 Bft) 89,47 %
11.08.2016 19:08 16,4 C 63 % 1022,0 hPa 0,0 l/m 9,8 km/h (2 Bft) W-SW 239 2 min 0,000 mm 0,0 UV-I 171 W/m 9,3 C 14,7 C 16,1 km/h (3 Bft) 97,96 %
11.08.2016 19:10 16,4 C 62 % 1022,0 hPa 0,0 l/m 9,3 km/h (2 Bft) SW 231 2 min 0,000 mm 0,0 UV-I 154 W/m 9,1 C 15,0 C 14,5 km/h (3 Bft) 95,74 %
11.08.2016 19:12 16,4 C 63 % 1022,0 hPa 0,0 l/m 9,4 km/h (2 Bft) SW 225 2 min 0,000 mm 0,0 UV-I 139 W/m 9,3 C 14,9 C 17,7 km/h (3 Bft) 97,87 %
11.08.2016 19:14 16,4 C 63 % 1022,0 hPa 0,0 l/m 8,9 km/h (2 Bft) SW 223 2 min 0,000 mm 0,0 UV-I 125 W/m 9,3 C 15,1 C 12,9 km/h (3 Bft) 97,87 %
11.08.2016 19:16 16,4 C 62 % 1022,0 hPa 0,0 l/m 9,7 km/h (2 Bft) S-SW 213 2 min 0,000 mm 0,0 UV-I 109 W/m 9,1 C 14,8 C 14,5 km/h (3 Bft) 95,74 %
11.08.2016 19:18 16,3 C 63 % 1022,0 hPa 0,0 l/m 10,8 km/h (2 Bft) S-SW 193 2 min 0,000 mm 0,0 UV-I 101 W/m 9,2 C 14,2 C 16,1 km/h (3 Bft) 95,74 %
11.08.2016 19:20 16,3 C 64 % 1022,0 hPa 0,0 l/m 7,7 km/h (2 Bft) SW 217 2 min 0,000 mm 0,0 UV-I 94 W/m 9,5 C 15,6 C 14,5 km/h (3 Bft) 97,87 %
11.08.2016 19:22 16,2 C 65 % 1022,0 hPa 0,0 l/m 8,2 km/h (2 Bft) SW 227 2 min 0,000 mm 0,0 UV-I 88 W/m 9,6 C 15,3 C 12,9 km/h (3 Bft) 95,74 %
11.08.2016 19:24 16,1 C 65 % 1022,0 hPa 0,0 l/m 7,7 km/h (2 Bft) S-SW 195 0 min 0,000 mm 0,0 UV-I 77 W/m 9,5 C 15,4 C 12,9 km/h (3 Bft) 100,00 %
11.08.2016 19:26 16,1 C 66 % 1022,0 hPa 0,0 l/m 9,1 km/h (2 Bft) SW 214 0 min 0,000 mm 0,0 UV-I 76 W/m 9,7 C 14,7 C 12,9 km/h (3 Bft) 97,87 %
11.08.2016 19:28 15,9 C 65 % 1022,1 hPa 0,0 l/m 8,4 km/h (2 Bft) S-SW 208 0 min 0,000 mm 0,0 UV-I 74 W/m 9,3 C 14,8 C 12,9 km/h (3 Bft) 100,00 %
11.08.2016 19:30 15,9 C 66 % 1022,1 hPa 0,0 l/m 7,5 km/h (2 Bft) S-SW 194 0 min 0,000 mm 0,0 UV-I 70 W/m 9,6 C 15,3 C 11,3 km/h (2 Bft) 100,00 %
11.08.2016 19:32 15,8 C 66 % 1022,1 hPa 0,0 l/m 6,3 km/h (2 Bft) S-SO 148 0 min 0,000 mm 0,0 UV-I 67 W/m 9,5 C 15,8 C 12,9 km/h (3 Bft) 100,00 %
11.08.2016 19:34 15,8 C 67 % 1022,1 hPa 0,0 l/m 7,8 km/h (2 Bft) S-SW 212 0 min 0,000 mm 0,0 UV-I 64 W/m 9,7 C 15,0 C 16,1 km/h (3 Bft) 100,00 %
11.08.2016 19:36 15,7 C 67 % 1022,1 hPa 0,0 l/m 8,1 km/h (2 Bft) S-SW 211 0 min 0,000 mm 0,0 UV-I 62 W/m 9,6 C 14,8 C 11,3 km/h (2 Bft) 97,96 %
11.08.2016 19:38 15,6 C 67 % 1022,1 hPa 0,0 l/m 7,6 km/h (2 Bft) S 187 0 min 0,000 mm 0,0 UV-I 58 W/m 9,5 C 14,9 C 9,7 km/h (2 Bft) 97,30 %
11.08.2016 19:40 15,6 C 68 % 1022,1 hPa 0,0 l/m 6,4 km/h (2 Bft) S-SW 206 0 min 0,000 mm 0,0 UV-I 55 W/m 9,7 C 15,6 C 9,7 km/h (2 Bft) 100,00 %
11.08.2016 19:42 15,6 C 67 % 1022,1 hPa 0,0 l/m 7,3 km/h (2 Bft) S-SW 208 0 min 0,000 mm 0,0 UV-I 49 W/m 9,5 C 15,1 C 11,3 km/h (2 Bft) 100,00 %
11.08.2016 19:44 15,5 C 68 % 1022,1 hPa 0,0 l/m 5,3 km/h (1 Bft) S-SW 200 0 min 0,000 mm 0,0 UV-I 48 W/m 9,6 C 15,5 C 8,0 km/h (2 Bft) 100,00 %
11.08.2016 19:46 15,4 C 69 % 1022,2 hPa 0,0 l/m 5,4 km/h (1 Bft) S-SW 202 0 min 0,000 mm 0,0 UV-I 43 W/m 9,7 C 15,4 C 8,0 km/h (2 Bft) 100,00 %
11.08.2016 19:48 15,3 C 68 % 1022,1 hPa 0,0 l/m 7,2 km/h (2 Bft) S 190 0 min 0,000 mm 0,0 UV-I 40 W/m 9,4 C 14,9 C 11,3 km/h (2 Bft) 100,00 %
11.08.2016 19:50 15,3 C 69 % 1022,1 hPa 0,0 l/m 5,0 km/h (1 Bft) S-SW 203 0 min 0,000 mm 0,0 UV-I 33 W/m 9,6 C 15,3 C 8,0 km/h (2 Bft) 100,00 %
11.08.2016 19:52 15,2 C 70 % 1022,2 hPa 0,0 l/m 6,3 km/h (2 Bft) S-SW 194 0 min 0,000 mm 0,0 UV-I 31 W/m 9,8 C 15,2 C 9,7 km/h (2 Bft) 100,00 %
11.08.2016 19:54 15,1 C 70 % 1022,2 hPa 0,0 l/m 5,9 km/h (2 Bft) S-SW 203 0 min 0,000 mm 0,0 UV-I 28 W/m 9,7 C 15,1 C 8,0 km/h (2 Bft) 100,00 %
11.08.2016 19:56 15,0 C 70 % 1022,2 hPa 0,0 l/m 6,0 km/h (2 Bft) S 188 0 min 0,000 mm 0,0 UV-I 26 W/m 9,6 C 15,0 C 8,0 km/h (2 Bft) 100,00 %
11.08.2016 19:58 14,9 C 70 % 1022,2 hPa 0,0 l/m 6,2 km/h (2 Bft) SW 220 0 min 0,000 mm 0,0 UV-I 24 W/m 9,5 C 14,9 C 9,7 km/h (2 Bft) 100,00 %
11.08.2016 20:00 14,9 C 71 % 1022,1 hPa 0,0 l/m 7,4 km/h (2 Bft) S 190 0 min 0,000 mm 0,0 UV-I 21 W/m 9,7 C 14,3 C 11,3 km/h (2 Bft) 100,00 %
11.08.2016 20:02 14,8 C 72 % 1022,2 hPa 0,0 l/m 5,6 km/h (1 Bft) S 177 0 min 0,076 mm 0,0 UV-I 19 W/m 9,8 C 14,8 C 8,0 km/h (2 Bft) 100,00 %
11.08.2016 20:04 14,7 C 72 % 1022,2 hPa 0,0 l/m 4,3 km/h (1 Bft) S-SW 195 0 min 0,000 mm 0,0 UV-I 18 W/m 9,7 C 14,7 C 8,0 km/h (2 Bft) 98,00 %
11.08.2016 20:06 14,7 C 72 % 1022,2 hPa 0,0 l/m 5,0 km/h (1 Bft) S 175 0 min 0,000 mm 0,0 UV-I 16 W/m 9,7 C 14,7 C 8,0 km/h (2 Bft) 100,00 %
11.08.2016 20:08 14,6 C 73 % 1022,2 hPa 0,0 l/m 4,6 km/h (1 Bft) S 182 0 min 0,000 mm 0,0 UV-I 13 W/m 9,8 C 14,6 C 8,0 km/h (2 Bft) 100,00 %
11.08.2016 20:10 14,5 C 73 % 1022,2 hPa 0,0 l/m 4,8 km/h (1 Bft) S-SO 166 2 min 0,000 mm 0,0 UV-I 12 W/m 9,7 C 14,5 C 6,4 km/h (2 Bft) 100,00 %
11.08.2016 20:12 14,4 C 74 % 1022,2 hPa 0,0 l/m 5,5 km/h (1 Bft) S-SW 207 2 min 0,000 mm 0,0 UV-I 9 W/m 9,8 C 14,4 C 9,7 km/h (2 Bft) 97,87 %
11.08.2016 20:14 14,3 C 74 % 1022,2 hPa 0,0 l/m 4,8 km/h (1 Bft) S 180 0 min 0,000 mm 0,0 UV-I 7 W/m 9,7 C 14,3 C 8,0 km/h (2 Bft) 100,00 %
11.08.2016 20:16 14,3 C 74 % 1022,2 hPa 0,0 l/m 4,9 km/h (1 Bft) S 172 0 min 0,000 mm 0,0 UV-I 6 W/m 9,7 C 14,3 C 8,0 km/h (2 Bft) 100,00 %
11.08.2016 20:18 14,3 C 75 % 1022,2 hPa 0,0 l/m 4,6 km/h (1 Bft) S 173 0 min 0,000 mm 0,0 UV-I 5 W/m 9,9 C 14,3 C 8,0 km/h (2 Bft) 100,00 %
11.08.2016 20:20 14,3 C 76 % 1022,2 hPa 0,0 l/m 4,0 km/h (1 Bft) S-SO 165 0 min 0,000 mm 0,0 UV-I 5 W/m 10,1 C 14,3 C 6,4 km/h (2 Bft) 100,00 %
11.08.2016 20:22 14,2 C 76 % 1022,2 hPa 0,0 l/m 2,4 km/h (1 Bft) S-SO 165 0 min 0,000 mm 0,0 UV-I 5 W/m 10,0 C 14,2 C 3,2 km/h (1 Bft) 97,92 %
11.08.2016 20:24 14,2 C 77 % 1022,3 hPa 0,0 l/m 5,1 km/h (1 Bft) S 178 0 min 0,000 mm 0,0 UV-I 0 W/m 10,2 C 14,2 C 9,7 km/h (2 Bft) 100,00 %
11.08.2016 20:26 14,1 C 77 % 1022,3 hPa 0,0 l/m 5,9 km/h (2 Bft) S 181 0 min 0,000 mm 0,0 UV-I 0 W/m 10,1 C 14,1 C 11,3 km/h (2 Bft) 97,87 %
11.08.2016 20:28 14,1 C 78 % 1022,3 hPa 0,0 l/m 5,7 km/h (1 Bft) S-SW 202 0 min 0,000 mm 0,0 UV-I 0 W/m 10,3 C 14,1 C 9,7 km/h (2 Bft) 95,74 %
11.08.2016 20:30 14,0 C 78 % 1022,3 hPa 0,0 l/m 6,5 km/h (2 Bft) S 173 0 min 0,000 mm 0,0 UV-I 0 W/m 10,2 C 14,0 C 14,5 km/h (3 Bft) 100,00 %
11.08.2016 20:32 13,9 C 79 % 1022,3 hPa 0,0 l/m 5,7 km/h (1 Bft) S 170 0 min 0,000 mm 0,0 UV-I 0 W/m 10,3 C 13,9 C 11,3 km/h (2 Bft) 100,00 %
11.08.2016 20:34 13,8 C 79 % 1022,3 hPa 0,0 l/m 5,8 km/h (2 Bft) S 184 0 min 0,000 mm 0,0 UV-I 0 W/m 10,2 C 13,8 C 8,0 km/h (2 Bft) 95,74 %
11.08.2016 20:36 13,8 C 79 % 1022,4 hPa 0,0 l/m 4,9 km/h (1 Bft) S 187 0 min 0,000 mm 0,0 UV-I 0 W/m 10,2 C 13,8 C 8,0 km/h (2 Bft) 100,00 %
11.08.2016 20:38 13,7 C 80 % 1022,4 hPa 0,0 l/m 4,1 km/h (1 Bft) S-SW 194 0 min 0,000 mm 0,0 UV-I 0 W/m 10,3 C 13,7 C 8,0 km/h (2 Bft) 100,00 %
11.08.2016 20:40 13,7 C 80 % 1022,4 hPa 0,0 l/m 3,9 km/h (1 Bft) S 177 0 min 0,000 mm 0,0 UV-I 0 W/m 10,3 C 13,7 C 8,0 km/h (2 Bft) 97,87 %
11.08.2016 20:42 13,6 C 80 % 1022,4 hPa 0,0 l/m 4,0 km/h (1 Bft) S 171 0 min 0,000 mm 0,0 UV-I 0 W/m 10,2 C 13,6 C 8,0 km/h (2 Bft) 95,83 %
11.08.2016 20:44 13,6 C 80 % 1022,4 hPa 0,0 l/m 1,8 km/h (1 Bft) S 171 0 min 0,000 mm 0,0 UV-I 0 W/m 10,2 C 13,6 C 6,4 km/h (2 Bft) 97,87 %
11.08.2016 20:46 13,6 C 80 % 1022,4 hPa 0,0 l/m 2,2 km/h (1 Bft) S 171 0 min 0,000 mm 0,0 UV-I 0 W/m 10,2 C 13,6 C 3,2 km/h (1 Bft) 97,87 %
11.08.2016 20:48 13,6 C 80 % 1022,4 hPa 0,0 l/m 2,2 km/h (1 Bft) S 171 0 min 0,000 mm 0,0 UV-I 0 W/m 10,2 C 13,6 C 6,4 km/h (2 Bft) 97,22 %
11.08.2016 20:50 13,5 C 80 % 1022,4 hPa 0,0 l/m 3,3 km/h (1 Bft) S 172 0 min 0,000 mm 0,0 UV-I 0 W/m 10,1 C 13,5 C 6,4 km/h (2 Bft) 100,00 %
11.08.2016 20:52 13,4 C 81 % 1022,5 hPa 0,0 l/m 3,1 km/h (1 Bft) S 173 0 min 0,000 mm 0,0 UV-I 0 W/m 10,2 C 13,4 C 8,0 km/h (2 Bft) 95,83 %
11.08.2016 20:54 13,3 C 82 % 1022,4 hPa 0,0 l/m 2,6 km/h (1 Bft) S-SO 167 0 min 0,000 mm 0,0 UV-I 0 W/m 10,3 C 13,3 C 4,8 km/h (1 Bft) 95,74 %
11.08.2016 20:56 13,3 C 82 % 1022,5 hPa 0,0 l/m 3,8 km/h (1 Bft) S-SO 159 0 min 0,000 mm 0,0 UV-I 0 W/m 10,3 C 13,3 C 6,4 km/h (2 Bft) 97,87 %
11.08.2016 20:58 13,3 C 82 % 1022,5 hPa 0,0 l/m 3,2 km/h (1 Bft) S-SW 199 0 min 0,000 mm 0,0 UV-I 0 W/m 10,3 C 13,3 C 8,0 km/h (2 Bft) 97,87 %
11.08.2016 21:00 13,2 C 82 % 1022,5 hPa 0,0 l/m 3,9 km/h (1 Bft) S-SO 162 0 min 0,000 mm 0,0 UV-I 0 W/m 10,2 C 13,2 C 8,0 km/h (2 Bft) 95,74 %
11.08.2016 21:02 13,2 C 82 % 1022,5 hPa 0,0 l/m 2,9 km/h (1 Bft) S-SO 161 0 min 0,025 mm 0,0 UV-I 0 W/m 10,2 C 13,2 C 6,4 km/h (2 Bft) 98,00 %
11.08.2016 21:04 13,2 C 81 % 1022,5 hPa 0,0 l/m 2,5 km/h (1 Bft) S 170 0 min 0,000 mm 0,0 UV-I 0 W/m 10,0 C 13,2 C 6,4 km/h (2 Bft) 91,49 %
11.08.2016 21:06 13,2 C 81 % 1022,5 hPa 0,0 l/m 2,8 km/h (1 Bft) S-SO 163 0 min 0,000 mm 0,0 UV-I 0 W/m 10,0 C 13,2 C 8,0 km/h (2 Bft) 97,87 %
11.08.2016 21:08 13,2 C 81 % 1022,5 hPa 0,0 l/m 2,9 km/h (1 Bft) S 169 0 min 0,000 mm 0,0 UV-I 0 W/m 10,0 C 13,2 C 6,4 km/h (2 Bft) 97,37 %
11.08.2016 21:10 13,2 C 81 % 1022,5 hPa 0,0 l/m 3,5 km/h (1 Bft) S 181 0 min 0,000 mm 0,0 UV-I 0 W/m 10,0 C 13,2 C 8,0 km/h (2 Bft) 97,87 %
11.08.2016 21:12 13,1 C 81 % 1022,5 hPa 0,0 l/m 5,4 km/h (1 Bft) S-SO 168 0 min 0,000 mm 0,0 UV-I 0 W/m 9,9 C 13,1 C 8,0 km/h (2 Bft) 97,87 %
11.08.2016 21:14 13,1 C 81 % 1022,5 hPa 0,0 l/m 3,9 km/h (1 Bft) S-SO 167 0 min 0,000 mm 0,0 UV-I 0 W/m 9,9 C 13,1 C 8,0 km/h (2 Bft) 97,87 %
11.08.2016 21:16 13,0 C 81 % 1022,5 hPa 0,0 l/m 4,9 km/h (1 Bft) S 182 0 min 0,000 mm 0,0 UV-I 0 W/m 9,8 C 13,0 C 9,7 km/h (2 Bft) 93,62 %
11.08.2016 21:18 12,9 C 82 % 1022,5 hPa 0,0 l/m 5,2 km/h (1 Bft) S-SO 157 0 min 0,000 mm 0,0 UV-I 0 W/m 9,9 C 12,9 C 8,0 km/h (2 Bft) 98,00 %
11.08.2016 21:20 12,8 C 82 % 1022,5 hPa 0,0 l/m 5,8 km/h (2 Bft) S-SO 156 0 min 0,000 mm 0,0 UV-I 0 W/m 9,8 C 12,8 C 9,7 km/h (2 Bft) 97,87 %
11.08.2016 21:22 12,8 C 82 % 1022,6 hPa 0,0 l/m 5,3 km/h (1 Bft) S 189 0 min 0,000 mm 0,0 UV-I 0 W/m 9,8 C 12,8 C 9,7 km/h (2 Bft) 95,74 %
11.08.2016 21:24 12,7 C 83 % 1022,6 hPa 0,0 l/m 7,3 km/h (2 Bft) S-SW 194 0 min 0,000 mm 0,0 UV-I 0 W/m 9,9 C 12,1 C 12,9 km/h (3 Bft) 95,74 %
11.08.2016 21:26 12,7 C 83 % 1022,6 hPa 0,0 l/m 6,3 km/h (2 Bft) S-SO 153 0 min 0,000 mm 0,0 UV-I 0 W/m 9,9 C 12,7 C 9,7 km/h (2 Bft) 100,00 %
11.08.2016 21:28 12,7 C 83 % 1022,6 hPa 0,0 l/m 4,7 km/h (1 Bft) S-SO 165 0 min 0,000 mm 0,0 UV-I 0 W/m 9,9 C 12,7 C 8,0 km/h (2 Bft) 100,00 %
11.08.2016 21:30 12,6 C 84 % 1022,7 hPa 0,0 l/m 4,9 km/h (1 Bft) S 183 0 min 0,000 mm 0,0 UV-I 0 W/m 10,0 C 12,6 C 8,0 km/h (2 Bft) 95,74 %
11.08.2016 21:32 12,5 C 84 % 1022,7 hPa 0,0 l/m 4,9 km/h (1 Bft) S 177 0 min 0,000 mm 0,0 UV-I 0 W/m 9,9 C 12,5 C 9,7 km/h (2 Bft) 97,87 %
11.08.2016 21:34 12,4 C 84 % 1022,7 hPa 0,0 l/m 5,6 km/h (1 Bft) S 177 0 min 0,000 mm 0,0 UV-I 0 W/m 9,8 C 12,4 C 9,7 km/h (2 Bft) 100,00 %
11.08.2016 21:36 12,4 C 84 % 1022,7 hPa 0,0 l/m 5,5 km/h (1 Bft) S 190 0 min 0,000 mm 0,0 UV-I 0 W/m 9,8 C 12,4 C 9,7 km/h (2 Bft) 100,00 %
11.08.2016 21:38 12,3 C 84 % 1022,7 hPa 0,0 l/m 6,7 km/h (2 Bft) S 180 0 min 0,000 mm 0,0 UV-I 0 W/m 9,7 C 12,1 C 9,7 km/h (2 Bft) 97,87 %
11.08.2016 21:40 12,3 C 85 % 1022,7 hPa 0,0 l/m 5,3 km/h (1 Bft) S 190 0 min 0,000 mm 0,0 UV-I 0 W/m 9,9 C 12,3 C 8,0 km/h (2 Bft) 100,00 %
11.08.2016 21:42 12,2 C 85 % 1022,7 hPa 0,0 l/m 5,6 km/h (1 Bft) S 187 0 min 0,000 mm 0,0 UV-I 0 W/m 9,8 C 12,2 C 8,0 km/h (2 Bft) 97,87 %
11.08.2016 21:44 12,2 C 85 % 1022,8 hPa 0,0 l/m 5,3 km/h (1 Bft) S-SO 163 0 min 0,000 mm 0,0 UV-I 0 W/m 9,8 C 12,2 C 8,0 km/h (2 Bft) 100,00 %
11.08.2016 21:46 12,2 C 85 % 1022,7 hPa 0,0 l/m 5,9 km/h (2 Bft) S 175 0 min 0,000 mm 0,0 UV-I 0 W/m 9,8 C 12,2 C 9,7 km/h (2 Bft) 97,87 %
11.08.2016 21:48 12,1 C 85 % 1022,8 hPa 0,0 l/m 5,6 km/h (1 Bft) S-SO 163 0 min 0,000 mm 0,0 UV-I 0 W/m 9,7 C 12,1 C 9,7 km/h (2 Bft) 97,87 %
11.08.2016 21:50 12,1 C 85 % 1022,8 hPa 0,0 l/m 5,1 km/h (1 Bft) S-SW 192 0 min 0,000 mm 0,0 UV-I 0 W/m 9,7 C 12,1 C 8,0 km/h (2 Bft) 97,87 %
11.08.2016 21:52 12,1 C 85 % 1022,9 hPa 0,0 l/m 6,6 km/h (2 Bft) S 178 0 min 0,000 mm 0,0 UV-I 0 W/m 9,7 C 12,0 C 9,7 km/h (2 Bft) 100,00 %
11.08.2016 21:54 12,1 C 86 % 1022,9 hPa 0,0 l/m 6,2 km/h (2 Bft) S 169 0 min 0,000 mm 0,0 UV-I 0 W/m 9,8 C 12,1 C 11,3 km/h (2 Bft) 95,74 %
11.08.2016 21:56 12,0 C 86 % 1022,9 hPa 0,0 l/m 5,4 km/h (1 Bft) S-SO 165 0 min 0,000 mm 0,0 UV-I 0 W/m 9,7 C 12,0 C 8,0 km/h (2 Bft) 100,00 %
11.08.2016 21:58 11,9 C 86 % 1022,9 hPa 0,0 l/m 4,6 km/h (1 Bft) S 181 0 min 0,000 mm 0,0 UV-I 0 W/m 9,6 C 11,9 C 8,0 km/h (2 Bft) 100,00 %
11.08.2016 22:00 11,9 C 86 % 1022,9 hPa 0,0 l/m 5,4 km/h (1 Bft) S 174 0 min 0,026 mm 0,0 UV-I 0 W/m 9,6 C 11,9 C 8,0 km/h (2 Bft) 97,87 %
11.08.2016 22:02 11,9 C 86 % 1022,9 hPa 0,0 l/m 5,5 km/h (1 Bft) S-SW 194 0 min 0,000 mm 0,0 UV-I 0 W/m 9,6 C 11,9 C 8,0 km/h (2 Bft) 97,87 %
11.08.2016 22:04 11,8 C 86 % 1022,9 hPa 0,0 l/m 6,1 km/h (2 Bft) S 185 0 min 0,000 mm 0,0 UV-I 0 W/m 9,5 C 11,8 C 9,7 km/h (2 Bft) 100,00 %
11.08.2016 22:06 11,8 C 86 % 1022,9 hPa 0,0 l/m 5,8 km/h (2 Bft) S 189 0 min 0,000 mm 0,0 UV-I 0 W/m 9,5 C 11,8 C 9,7 km/h (2 Bft) 97,87 %
11.08.2016 22:08 11,8 C 86 % 1022,9 hPa 0,0 l/m 6,1 km/h (2 Bft) S 186 0 min 0,000 mm 0,0 UV-I 0 W/m 9,5 C 11,8 C 9,7 km/h (2 Bft) 100,00 %
11.08.2016 22:10 11,8 C 86 % 1022,9 hPa 0,0 l/m 6,1 km/h (2 Bft) S-SW 194 0 min 0,000 mm 0,0 UV-I 0 W/m 9,5 C 11,8 C 9,7 km/h (2 Bft) 100,00 %
11.08.2016 22:12 11,8 C 86 % 1022,8 hPa 0,0 l/m 6,0 km/h (2 Bft) S 177 0 min 0,000 mm 0,0 UV-I 0 W/m 9,5 C 11,8 C 9,7 km/h (2 Bft) 100,00 %
11.08.2016 22:14 11,8 C 86 % 1022,8 hPa 0,0 l/m 6,1 km/h (2 Bft) S-SO 162 0 min 0,000 mm 0,0 UV-I 0 W/m 9,5 C 11,8 C 8,0 km/h (2 Bft) 100,00 %
11.08.2016 22:16 11,7 C 86 % 1022,8 hPa 0,0 l/m 6,4 km/h (2 Bft) S 173 0 min 0,000 mm 0,0 UV-I 0 W/m 9,4 C 11,7 C 11,3 km/h (2 Bft) 100,00 %
11.08.2016 22:18 11,7 C 86 % 1022,8 hPa 0,0 l/m 5,9 km/h (2 Bft) S-SW 194 0 min 0,000 mm 0,0 UV-I 0 W/m 9,4 C 11,7 C 11,3 km/h (2 Bft) 97,87 %
11.08.2016 22:20 11,7 C 86 % 1022,8 hPa 0,0 l/m 6,4 km/h (2 Bft) S-SO 159 0 min 0,000 mm 0,0 UV-I 0 W/m 9,4 C 11,7 C 11,3 km/h (2 Bft) 100,00 %
11.08.2016 22:22 11,6 C 86 % 1022,8 hPa 0,0 l/m 6,1 km/h (2 Bft) S 169 0 min 0,000 mm 0,0 UV-I 0 W/m 9,3 C 11,6 C 9,7 km/h (2 Bft) 100,00 %
11.08.2016 22:24 11,7 C 86 % 1022,8 hPa 0,0 l/m 6,4 km/h (2 Bft) S 183 0 min 0,000 mm 0,0 UV-I 0 W/m 9,4 C 11,7 C 11,3 km/h (2 Bft) 97,87 %
11.08.2016 22:26 11,7 C 86 % 1022,9 hPa 0,0 l/m 6,1 km/h (2 Bft) S-SO 162 0 min 0,000 mm 0,0 UV-I 0 W/m 9,4 C 11,7 C 9,7 km/h (2 Bft) 97,87 %
11.08.2016 22:28 11,7 C 85 % 1022,9 hPa 0,0 l/m 6,8 km/h (2 Bft) S 179 0 min 0,000 mm 0,0 UV-I 0 W/m 9,3 C 11,4 C 9,7 km/h (2 Bft) 100,00 %
11.08.2016 22:30 11,6 C 85 % 1022,9 hPa 0,0 l/m 5,9 km/h (2 Bft) S-SW 198 0 min 0,000 mm 0,0 UV-I 0 W/m 9,2 C 11,6 C 9,7 km/h (2 Bft) 100,00 %
11.08.2016 22:32 11,6 C 85 % 1023,0 hPa 0,0 l/m 6,2 km/h (2 Bft) S 186 0 min 0,000 mm 0,0 UV-I 0 W/m 9,2 C 11,6 C 9,7 km/h (2 Bft) 100,00 %
11.08.2016 22:34 11,5 C 85 % 1023,0 hPa 0,0 l/m 4,8 km/h (1 Bft) S 177 0 min 0,000 mm 0,0 UV-I 0 W/m 9,1 C 11,5 C 8,0 km/h (2 Bft) 100,00 %
11.08.2016 22:36 11,5 C 85 % 1022,9 hPa 0,0 l/m 6,1 km/h (2 Bft) S 177 0 min 0,000 mm 0,0 UV-I 0 W/m 9,1 C 11,5 C 11,3 km/h (2 Bft) 97,87 %
11.08.2016 22:38 11,4 C 85 % 1023,0 hPa 0,0 l/m 5,3 km/h (1 Bft) S-SO 158 0 min 0,000 mm 0,0 UV-I 0 W/m 9,0 C 11,4 C 9,7 km/h (2 Bft) 100,00 %
11.08.2016 22:40 11,5 C 85 % 1023,0 hPa 0,0 l/m 6,2 km/h (2 Bft) S-SW 197 0 min 0,000 mm 0,0 UV-I 0 W/m 9,1 C 11,5 C 9,7 km/h (2 Bft) 100,00 %
11.08.2016 22:42 11,6 C 85 % 1023,0 hPa 0,0 l/m 5,1 km/h (1 Bft) S-SW 198 0 min 0,000 mm 0,0 UV-I 0 W/m 9,2 C 11,6 C 12,9 km/h (3 Bft) 100,00 %
11.08.2016 22:44 11,5 C 85 % 1023,0 hPa 0,0 l/m 6,1 km/h (2 Bft) S 182 0 min 0,000 mm 0,0 UV-I 0 W/m 9,1 C 11,5 C 9,7 km/h (2 Bft) 97,37 %
11.08.2016 22:46 11,5 C 85 % 1023,0 hPa 0,0 l/m 5,0 km/h (1 Bft) S 175 0 min 0,000 mm 0,0 UV-I 0 W/m 9,1 C 11,5 C 9,7 km/h (2 Bft) 98,00 %
11.08.2016 22:48 11,4 C 85 % 1023,0 hPa 0,0 l/m 6,6 km/h (2 Bft) S-SO 167 0 min 0,000 mm 0,0 UV-I 0 W/m 9,0 C 11,3 C 9,7 km/h (2 Bft) 97,87 %
11.08.2016 22:50 11,4 C 85 % 1023,0 hPa 0,0 l/m 5,9 km/h (2 Bft) S-SW 192 0 min 0,000 mm 0,0 UV-I 0 W/m 9,0 C 11,4 C 9,7 km/h (2 Bft) 95,74 %
11.08.2016 22:52 11,4 C 85 % 1022,9 hPa 0,0 l/m 4,5 km/h (1 Bft) S 183 0 min 0,000 mm 0,0 UV-I 0 W/m 9,0 C 11,4 C 8,0 km/h (2 Bft) 95,74 %
11.08.2016 22:54 11,3 C 85 % 1023,0 hPa 0,0 l/m 5,5 km/h (1 Bft) S 173 0 min 0,000 mm 0,0 UV-I 0 W/m 8,9 C 11,3 C 9,7 km/h (2 Bft) 97,87 %
11.08.2016 22:56 11,3 C 85 % 1023,0 hPa 0,0 l/m 4,9 km/h (1 Bft) S-SW 193 0 min 0,000 mm 0,0 UV-I 0 W/m 8,9 C 11,3 C 8,0 km/h (2 Bft) 97,87 %
11.08.2016 22:58 11,2 C 86 % 1023,0 hPa 0,0 l/m 4,4 km/h (1 Bft) S-SW 194 0 min 0,000 mm 0,0 UV-I 0 W/m 8,9 C 11,2 C 8,0 km/h (2 Bft) 94,00 %
11.08.2016 23:00 11,2 C 86 % 1023,0 hPa 0,0 l/m 3,3 km/h (1 Bft) S 169 0 min 0,000 mm 0,0 UV-I 0 W/m 8,9 C 11,2 C 6,4 km/h (2 Bft) 97,37 %
11.08.2016 23:02 11,1 C 86 % 1023,0 hPa 0,0 l/m 4,5 km/h (1 Bft) S 190 0 min 0,000 mm 0,0 UV-I 0 W/m 8,8 C 11,1 C 8,0 km/h (2 Bft) 97,87 %
11.08.2016 23:04 11,1 C 86 % 1023,0 hPa 0,0 l/m 4,3 km/h (1 Bft) S-SO 166 0 min 0,000 mm 0,0 UV-I 0 W/m 8,8 C 11,1 C 8,0 km/h (2 Bft) 97,87 %
11.08.2016 23:06 11,1 C 86 % 1023,1 hPa 0,0 l/m 5,2 km/h (1 Bft) S 174 0 min 0,000 mm 0,0 UV-I 0 W/m 8,8 C 11,1 C 8,0 km/h (2 Bft) 95,74 %
11.08.2016 23:08 11,0 C 86 % 1023,1 hPa 0,0 l/m 4,8 km/h (1 Bft) S 180 0 min 0,000 mm 0,0 UV-I 0 W/m 8,7 C 11,0 C 6,4 km/h (2 Bft) 95,74 %
11.08.2016 23:10 11,0 C 86 % 1023,1 hPa 0,0 l/m 4,0 km/h (1 Bft) S 178 0 min 0,000 mm 0,0 UV-I 0 W/m 8,7 C 11,0 C 6,4 km/h (2 Bft) 97,87 %
11.08.2016 23:12 10,9 C 86 % 1023,1 hPa 0,0 l/m 2,7 km/h (1 Bft) S 178 0 min 0,000 mm 0,0 UV-I 0 W/m 8,7 C 10,9 C 4,8 km/h (1 Bft) 95,74 %
11.08.2016 23:14 10,9 C 86 % 1023,1 hPa 0,0 l/m 3,0 km/h (1 Bft) S 178 0 min 0,000 mm 0,0 UV-I 0 W/m 8,7 C 10,9 C 4,8 km/h (1 Bft) 97,87 %
11.08.2016 23:16 10,9 C 87 % 1023,1 hPa 0,0 l/m 3,1 km/h (1 Bft) S 183 0 min 0,000 mm 0,0 UV-I 0 W/m 8,8 C 10,9 C 4,8 km/h (1 Bft) 96,00 %
11.08.2016 23:18 10,8 C 87 % 1023,1 hPa 0,0 l/m 3,5 km/h (1 Bft) S-SW 192 0 min 0,000 mm 0,0 UV-I 0 W/m 8,7 C 10,8 C 4,8 km/h (1 Bft) 97,87 %
11.08.2016 23:20 10,7 C 87 % 1023,1 hPa 0,0 l/m 5,0 km/h (1 Bft) S-SW 197 0 min 0,000 mm 0,0 UV-I 0 W/m 8,6 C 10,7 C 6,4 km/h (2 Bft) 97,96 %
11.08.2016 23:22 10,6 C 87 % 1023,1 hPa 0,0 l/m 4,2 km/h (1 Bft) S 186 0 min 0,000 mm 0,0 UV-I 0 W/m 8,5 C 10,6 C 6,4 km/h (2 Bft) 98,00 %
11.08.2016 23:24 10,6 C 88 % 1023,1 hPa 0,0 l/m 5,2 km/h (1 Bft) S 181 0 min 0,000 mm 0,0 UV-I 0 W/m 8,7 C 10,6 C 8,0 km/h (2 Bft) 100,00 %
11.08.2016 23:26 10,6 C 88 % 1023,1 hPa 0,0 l/m 5,2 km/h (1 Bft) S 182 0 min 0,000 mm 0,0 UV-I 0 W/m 8,7 C 10,6 C 8,0 km/h (2 Bft) 100,00 %
11.08.2016 23:28 10,5 C 88 % 1023,1 hPa 0,0 l/m 4,2 km/h (1 Bft) S 180 0 min 0,000 mm 0,0 UV-I 0 W/m 8,6 C 10,5 C 6,4 km/h (2 Bft) 98,00 %
11.08.2016 23:30 10,6 C 88 % 1023,1 hPa 0,0 l/m 4,9 km/h (1 Bft) S-SW 196 0 min 0,000 mm 0,0 UV-I 0 W/m 8,7 C 10,6 C 8,0 km/h (2 Bft) 98,08 %
11.08.2016 23:32 10,6 C 88 % 1023,1 hPa 0,0 l/m 5,4 km/h (1 Bft) S 184 0 min 0,000 mm 0,0 UV-I 0 W/m 8,7 C 10,6 C 8,0 km/h (2 Bft) 100,00 %
11.08.2016 23:34 10,6 C 88 % 1023,2 hPa 0,0 l/m 4,0 km/h (1 Bft) S 183 0 min 0,000 mm 0,0 UV-I 0 W/m 8,7 C 10,6 C 6,4 km/h (2 Bft) 95,74 %
11.08.2016 23:36 10,6 C 88 % 1023,2 hPa 0,0 l/m 4,9 km/h (1 Bft) S-SO 161 0 min 0,000 mm 0,0 UV-I 0 W/m 8,7 C 10,6 C 8,0 km/h (2 Bft) 100,00 %
11.08.2016 23:38 10,6 C 88 % 1023,1 hPa 0,0 l/m 5,3 km/h (1 Bft) S 184 0 min 0,000 mm 0,0 UV-I 0 W/m 8,7 C 10,6 C 8,0 km/h (2 Bft) 100,00 %
11.08.2016 23:40 10,5 C 88 % 1023,2 hPa 0,0 l/m 4,5 km/h (1 Bft) S 177 0 min 0,000 mm 0,0 UV-I 0 W/m 8,6 C 10,5 C 6,4 km/h (2 Bft) 100,00 %
11.08.2016 23:42 10,5 C 88 % 1023,1 hPa 0,0 l/m 3,0 km/h (1 Bft) S 177 0 min 0,000 mm 0,0 UV-I 0 W/m 8,6 C 10,5 C 4,8 km/h (1 Bft) 100,00 %
11.08.2016 23:44 10,5 C 88 % 1023,1 hPa 0,0 l/m 2,8 km/h (1 Bft) S 177 0 min 0,000 mm 0,0 UV-I 0 W/m 8,6 C 10,5 C 4,8 km/h (1 Bft) 98,00 %
11.08.2016 23:46 10,4 C 88 % 1023,1 hPa 0,0 l/m 4,1 km/h (1 Bft) S 182 0 min 0,000 mm 0,0 UV-I 0 W/m 8,5 C 10,4 C 4,8 km/h (1 Bft) 100,00 %
11.08.2016 23:48 10,4 C 88 % 1023,2 hPa 0,0 l/m 3,8 km/h (1 Bft) S 182 0 min 0,000 mm 0,0 UV-I 0 W/m 8,5 C 10,4 C 6,4 km/h (2 Bft) 98,00 %
11.08.2016 23:50 10,4 C 88 % 1023,1 hPa 0,0 l/m 4,1 km/h (1 Bft) S 180 0 min 0,000 mm 0,0 UV-I 0 W/m 8,5 C 10,4 C 6,4 km/h (2 Bft) 100,00 %
11.08.2016 23:52 10,4 C 89 % 1023,1 hPa 0,0 l/m 2,9 km/h (1 Bft) S-SW 196 0 min 0,000 mm 0,0 UV-I 0 W/m 8,7 C 10,4 C 4,8 km/h (1 Bft) 95,74 %
11.08.2016 23:54 10,3 C 89 % 1023,1 hPa 0,0 l/m 4,2 km/h (1 Bft) S-SW 194 0 min 0,000 mm 0,0 UV-I 0 W/m 8,6 C 10,3 C 6,4 km/h (2 Bft) 97,87 %
11.08.2016 23:56 10,3 C 89 % 1023,1 hPa 0,0 l/m 3,7 km/h (1 Bft) S-SW 209 0 min 0,000 mm 0,0 UV-I 0 W/m 8,6 C 10,3 C 4,8 km/h (1 Bft) 100,00 %
11.08.2016 23:58 10,2 C 89 % 1023,1 hPa 0,0 l/m 5,4 km/h (1 Bft) S-SW 208 0 min 0,000 mm 0,0 UV-I 0 W/m 8,5 C 10,2 C 8,0 km/h (2 Bft) 97,22 %
_ Min-Zeit 06:10 15:54 00:36 - 01:18 - - - - - - 16:18 03:06 06:56 19:06
Minimum _ 8,7 C 50 % 1020,6 hPa - 0,0 km/h (0 Bft) - - - - - - 6,7 C 6,9 C 0,0 km/h (0 Bft) 89,47 %
_ Max-Zeit 15:20 02:06 09:30 03:26 12:10 - - 09:44 16:02 12:44 13:02 11:38 15:22 12:10 00:04
Maximum _ 17,9 C 97 % 1023,3 hPa 0,4 l/m 22,3 km/h
S (4 Bft)
- - 2 min 0,432 mm 5,4 UV-I 1042 W/m 11,8 C 17,8 C 37,0 km/h
SW (5 Bft)
100,00 %
Durchschnitt _ 12,8 C 81 % 1022,2 hPa #1,8 l/m 5,7 km/h (1 Bft) S-SW - #6:56 h #3,150 mm 2,7 UV-I 363 W/m 9,3 C 12,2 C 9,9 km/h (2 Bft) 98,46 %